[[{"header":{"parameterUnit":"m.s-1","parameterCategory":1,"la1":30.6,"la2":29.2853,"lo1":-89.7004,"lo2":-87.6739,"dy":0.0162,"dx":0.0183,"nx":112,"ny":82,"refTime":"2024-04-03T00:00:00:Z","depth":0,"parameterNumber":2,"parameterNumberName":"U-component_of_WINDS"},"data":[0.0,0.0,0.0,0.0,0.0,0.0,0.0,0.0,0.0,0.0,0.0,0.0,0.0,0.0,0.0,0.0,0.0,0.0,0.0,0.0,0.0,0.0,0.0,0.0,0.0,0.0,0.0,0.0,0.0,0.0,0.0,0.0,0.0,0.0,0.0,0.0,0.0,0.0,0.0,0.0,0.0,0.0,0.0,0.0,0.0,0.0,0.0,0.0,0.0,0.0,0.0,0.0,0.0,0.0,0.0,0.0,0.0,0.0,0.0,0.0,0.0,0.0,0.0,0.0,0.0,0.0,0.0,0.0,0.0,0.0,0.0,0.0,0.0,0.0,0.0,0.0,0.0,0.0,0.0,0.0,0.0,0.0,0.0,0.0,0.0,0.0,0.0,0.0,0.0,0.0,-4.461,-4.461,-4.461,-4.461,-4.461,-4.461,-4.461,-4.461,0.0,0.0,0.0,0.0,0.0,0.0,0.0,0.0,0.0,0.0,0.0,0.0,0.0,0.0,0.0,0.0,0.0,0.0,0.0,0.0,0.0,0.0,0.0,0.0,0.0,0.0,0.0,0.0,0.0,0.0,0.0,0.0,0.0,0.0,0.0,0.0,0.0,0.0,0.0,0.0,0.0,0.0,0.0,0.0,0.0,0.0,0.0,0.0,0.0,0.0,0.0,0.0,0.0,0.0,0.0,0.0,0.0,0.0,0.0,0.0,0.0,0.0,0.0,0.0,0.0,0.0,0.0,0.0,0.0,0.0,0.0,0.0,0.0,0.0,0.0,0.0,0.0,0.0,0.0,0.0,0.0,0.0,0.0,0.0,0.0,0.0,0.0,0.0,0.0,0.0,0.0,0.0,0.0,0.0,0.0,0.0,0.0,0.0,0.0,0.0,0.0,0.0,0.0,0.0,-4.461,-4.461,-4.461,-4.461,-4.461,-4.461,-4.461,-4.461,0.0,0.0,0.0,0.0,0.0,0.0,0.0,0.0,0.0,0.0,0.0,0.0,0.0,0.0,0.0,0.0,0.0,0.0,0.0,0.0,0.0,0.0,0.0,0.0,0.0,0.0,0.0,0.0,0.0,0.0,0.0,0.0,0.0,0.0,0.0,0.0,0.0,0.0,0.0,0.0,0.0,0.0,0.0,0.0,0.0,0.0,0.0,0.0,0.0,0.0,0.0,0.0,0.0,0.0,0.0,0.0,0.0,0.0,0.0,0.0,0.0,0.0,0.0,0.0,0.0,0.0,0.0,0.0,0.0,0.0,0.0,0.0,0.0,0.0,0.0,0.0,0.0,0.0,0.0,0.0,0.0,0.0,0.0,0.0,0.0,0.0,0.0,0.0,0.0,0.0,0.0,0.0,0.0,0.0,0.0,0.0,0.0,0.0,0.0,0.0,0.0,0.0,0.0,-4.422,-4.4266,-4.4266,-4.4266,-4.4266,-4.4266,-4.4266,-4.4305,-4.4419,-4.4419,0.0,0.0,0.0,0.0,0.0,0.0,0.0,0.0,0.0,0.0,0.0,0.0,0.0,0.0,0.0,0.0,0.0,0.0,0.0,0.0,0.0,0.0,0.0,0.0,0.0,0.0,0.0,0.0,0.0,0.0,0.0,0.0,0.0,0.0,0.0,0.0,0.0,0.0,0.0,0.0,0.0,0.0,0.0,0.0,0.0,0.0,0.0,0.0,0.0,0.0,0.0,0.0,0.0,0.0,0.0,0.0,0.0,0.0,0.0,0.0,0.0,0.0,0.0,0.0,0.0,0.0,0.0,0.0,0.0,0.0,0.0,0.0,0.0,0.0,0.0,0.0,0.0,0.0,0.0,0.0,0.0,0.0,0.0,0.0,0.0,0.0,0.0,0.0,0.0,0.0,0.0,0.0,0.0,0.0,0.0,0.0,0.0,0.0,0.0,0.0,0.0,0.0,-4.3949,-4.3949,-4.3988,-4.3988,-4.3988,-4.3988,-4.3988,-4.4065,-4.422,-4.4258,0.0,0.0,0.0,0.0,0.0,0.0,0.0,0.0,0.0,0.0,0.0,0.0,0.0,0.0,0.0,0.0,0.0,0.0,0.0,0.0,0.0,0.0,0.0,0.0,0.0,0.0,0.0,0.0,0.0,0.0,0.0,0.0,0.0,0.0,0.0,0.0,0.0,0.0,0.0,0.0,0.0,0.0,0.0,0.0,0.0,0.0,0.0,0.0,0.0,0.0,0.0,0.0,0.0,0.0,0.0,0.0,0.0,0.0,0.0,0.0,0.0,0.0,0.0,0.0,0.0,0.0,0.0,0.0,0.0,0.0,0.0,0.0,0.0,0.0,0.0,0.0,0.0,0.0,0.0,0.0,0.0,0.0,0.0,0.0,0.0,0.0,0.0,0.0,0.0,0.0,0.0,0.0,0.0,0.0,0.0,0.0,0.0,0.0,0.0,0.0,0.0,0.0,-4.3832,-4.3793,-4.3988,-4.3988,-4.3988,-4.3988,-4.3988,-4.4026,-4.4026,-4.4026,0.0,0.0,0.0,0.0,0.0,0.0,0.0,0.0,0.0,0.0,0.0,0.0,0.0,0.0,0.0,0.0,0.0,0.0,0.0,0.0,0.0,0.0,0.0,0.0,0.0,0.0,0.0,0.0,0.0,0.0,0.0,0.0,0.0,0.0,0.0,0.0,0.0,0.0,0.0,0.0,0.0,0.0,0.0,0.0,0.0,0.0,0.0,0.0,0.0,0.0,0.0,0.0,0.0,0.0,0.0,0.0,0.0,0.0,0.0,0.0,0.0,0.0,0.0,0.0,0.0,0.0,0.0,0.0,0.0,0.0,0.0,0.0,0.0,0.0,0.0,0.0,0.0,0.0,0.0,0.0,0.0,0.0,0.0,0.0,0.0,0.0,0.0,0.0,0.0,0.0,0.0,0.0,0.0,0.0,0.0,0.0,0.0,0.0,0.0,0.0,0.0,0.0,-4.3518,-4.3478,-4.3527,-4.3566,-4.3566,-4.3566,-4.3566,-4.3636,-4.3793,0.0,0.0,0.0,0.0,0.0,0.0,0.0,0.0,0.0,0.0,0.0,0.0,0.0,0.0,0.0,0.0,0.0,0.0,0.0,0.0,0.0,0.0,0.0,0.0,0.0,0.0,0.0,0.0,0.0,0.0,0.0,0.0,0.0,0.0,0.0,0.0,0.0,0.0,0.0,0.0,0.0,0.0,0.0,0.0,0.0,0.0,0.0,0.0,0.0,0.0,0.0,0.0,0.0,0.0,0.0,0.0,0.0,0.0,0.0,0.0,0.0,0.0,0.0,0.0,0.0,0.0,0.0,0.0,0.0,0.0,0.0,0.0,0.0,0.0,0.0,0.0,0.0,0.0,0.0,0.0,0.0,0.0,0.0,0.0,0.0,0.0,0.0,0.0,0.0,0.0,0.0,0.0,0.0,0.0,0.0,0.0,0.0,0.0,0.0,0.0,0.0,0.0,-4.329,-4.329,-4.329,-4.329,-4.329,-4.329,-4.329,-4.329,-4.3369,-4.3557,0.0,0.0,0.0,0.0,0.0,0.0,0.0,0.0,0.0,0.0,0.0,0.0,0.0,0.0,0.0,0.0,0.0,0.0,0.0,0.0,0.0,0.0,0.0,0.0,0.0,0.0,0.0,0.0,0.0,0.0,0.0,0.0,0.0,0.0,0.0,0.0,0.0,0.0,0.0,0.0,0.0,0.0,0.0,0.0,0.0,0.0,0.0,0.0,0.0,0.0,0.0,0.0,0.0,0.0,0.0,0.0,0.0,0.0,0.0,0.0,0.0,0.0,0.0,0.0,0.0,0.0,0.0,0.0,0.0,0.0,0.0,0.0,0.0,0.0,0.0,0.0,0.0,0.0,0.0,0.0,0.0,0.0,0.0,0.0,0.0,0.0,0.0,0.0,0.0,0.0,0.0,0.0,0.0,0.0,0.0,0.0,0.0,0.0,0.0,0.0,0.0,0.0,-4.329,-4.329,-4.325,-4.329,-4.329,-4.325,-4.325,-4.325,-4.325,0.0,0.0,0.0,0.0,0.0,0.0,0.0,0.0,0.0,0.0,0.0,0.0,0.0,0.0,0.0,0.0,0.0,0.0,0.0,0.0,0.0,0.0,0.0,0.0,0.0,0.0,0.0,0.0,0.0,0.0,0.0,0.0,0.0,0.0,0.0,0.0,0.0,0.0,0.0,0.0,0.0,0.0,0.0,0.0,0.0,0.0,0.0,0.0,0.0,0.0,0.0,0.0,0.0,0.0,0.0,0.0,0.0,0.0,0.0,0.0,0.0,0.0,0.0,0.0,0.0,0.0,0.0,0.0,0.0,0.0,0.0,0.0,0.0,0.0,0.0,0.0,0.0,0.0,0.0,0.0,0.0,0.0,0.0,0.0,0.0,0.0,0.0,0.0,0.0,0.0,0.0,0.0,0.0,0.0,0.0,0.0,0.0,0.0,0.0,0.0,0.0,0.0,0.0,-4.321,-4.2181,-4.1657,-4.2333,-4.1811,-4.1407,-4.1407,-4.1407,-4.1657,-4.2333,0.0,0.0,0.0,0.0,0.0,0.0,0.0,0.0,0.0,0.0,0.0,0.0,0.0,0.0,0.0,0.0,0.0,0.0,0.0,0.0,0.0,0.0,0.0,0.0,0.0,0.0,0.0,0.0,0.0,0.0,0.0,0.0,0.0,0.0,0.0,0.0,0.0,0.0,0.0,0.0,0.0,0.0,0.0,0.0,0.0,0.0,0.0,0.0,0.0,0.0,0.0,0.0,0.0,0.0,0.0,0.0,0.0,0.0,0.0,0.0,0.0,0.0,0.0,0.0,0.0,0.0,0.0,0.0,0.0,0.0,0.0,0.0,0.0,0.0,0.0,0.0,0.0,0.0,0.0,0.0,0.0,0.0,0.0,0.0,0.0,0.0,0.0,0.0,0.0,0.0,0.0,0.0,0.0,0.0,0.0,0.0,0.0,0.0,0.0,0.0,0.0,0.0,-4.2699,-4.1491,-4.0817,-4.1394,-4.0944,-4.0603,-4.0603,-4.0603,-4.0859,-4.1436,0.0,0.0,0.0,0.0,0.0,0.0,0.0,0.0,0.0,0.0,0.0,0.0,0.0,0.0,0.0,0.0,0.0,0.0,0.0,0.0,0.0,0.0,0.0,0.0,0.0,0.0,0.0,0.0,0.0,0.0,0.0,0.0,0.0,0.0,0.0,0.0,0.0,0.0,0.0,0.0,0.0,0.0,0.0,0.0,0.0,0.0,0.0,0.0,0.0,0.0,0.0,0.0,0.0,0.0,0.0,0.0,0.0,0.0,0.0,0.0,0.0,0.0,0.0,0.0,0.0,0.0,0.0,0.0,0.0,0.0,0.0,0.0,0.0,0.0,0.0,0.0,0.0,0.0,0.0,0.0,0.0,0.0,0.0,0.0,0.0,0.0,0.0,0.0,0.0,0.0,0.0,0.0,0.0,0.0,0.0,0.0,0.0,0.0,0.0,0.0,0.0,0.0,-4.1852,-4.0986,-4.0389,-4.0475,-4.0389,-4.0346,-4.0346,-4.0346,-4.0389,-4.0475,0.0,0.0,0.0,0.0,0.0,0.0,0.0,0.0,0.0,0.0,0.0,0.0,0.0,0.0,0.0,0.0,0.0,0.0,0.0,0.0,0.0,0.0,0.0,0.0,0.0,0.0,0.0,0.0,0.0,0.0,0.0,0.0,0.0,0.0,0.0,0.0,0.0,0.0,0.0,0.0,0.0,0.0,0.0,0.0,0.0,0.0,0.0,0.0,0.0,0.0,0.0,0.0,0.0,0.0,0.0,0.0,0.0,0.0,0.0,0.0,-4.5808,-4.6121,0.0,0.0,0.0,0.0,0.0,0.0,0.0,0.0,0.0,0.0,0.0,0.0,0.0,0.0,0.0,0.0,0.0,0.0,0.0,0.0,0.0,0.0,0.0,0.0,0.0,0.0,0.0,0.0,0.0,0.0,0.0,0.0,0.0,0.0,0.0,0.0,0.0,0.0,0.0,0.0,-4.0901,-3.9458,-3.8729,-3.9431,-3.8908,-3.8485,-3.8485,-3.8485,-3.8774,-3.9475,-3.9519,0.0,0.0,0.0,0.0,0.0,0.0,0.0,0.0,0.0,0.0,0.0,0.0,0.0,0.0,0.0,0.0,0.0,0.0,0.0,0.0,0.0,0.0,0.0,0.0,0.0,0.0,0.0,0.0,0.0,0.0,0.0,0.0,0.0,0.0,0.0,0.0,0.0,0.0,0.0,0.0,0.0,0.0,0.0,0.0,0.0,0.0,0.0,0.0,0.0,0.0,0.0,0.0,0.0,0.0,0.0,0.0,0.0,0.0,0.0,-4.4517,-4.5098,0.0,0.0,0.0,0.0,0.0,0.0,0.0,0.0,0.0,0.0,0.0,0.0,0.0,0.0,0.0,0.0,0.0,0.0,0.0,0.0,0.0,0.0,0.0,0.0,0.0,0.0,0.0,0.0,0.0,0.0,0.0,0.0,0.0,0.0,0.0,0.0,0.0,0.0,0.0,0.0,-3.9956,-3.8729,-3.8057,-3.8504,-3.8194,-3.79,-3.79,-3.79,-3.8103,-3.8549,-3.8594,0.0,0.0,0.0,0.0,0.0,0.0,0.0,0.0,0.0,0.0,0.0,0.0,0.0,0.0,0.0,0.0,0.0,0.0,0.0,0.0,0.0,0.0,0.0,0.0,0.0,0.0,0.0,0.0,0.0,0.0,0.0,0.0,0.0,0.0,0.0,0.0,0.0,0.0,0.0,0.0,0.0,0.0,0.0,0.0,0.0,0.0,0.0,0.0,0.0,0.0,0.0,0.0,0.0,-4.2978,-4.2978,-4.2978,-4.2978,-4.2496,-4.1789,-4.3054,-4.3748,-4.4012,-4.5391,0.0,0.0,0.0,0.0,0.0,0.0,0.0,0.0,0.0,0.0,0.0,0.0,0.0,0.0,0.0,0.0,0.0,0.0,0.0,0.0,0.0,0.0,-4.4527,-4.2352,-4.1791,-4.1674,-4.1582,0.0,0.0,0.0,0.0,0.0,0.0,0.0,0.0,0.0,0.0,0.0,-3.8899,-3.8304,-3.79,-3.7854,-3.7854,-3.7808,-3.7762,-3.7808,-3.7854,-3.7854,-3.7854,-3.79,0.0,0.0,0.0,0.0,0.0,0.0,0.0,0.0,0.0,0.0,0.0,0.0,0.0,0.0,0.0,0.0,0.0,0.0,0.0,0.0,0.0,0.0,0.0,0.0,0.0,0.0,0.0,0.0,0.0,0.0,0.0,0.0,-4.034,-4.0796,0.0,0.0,0.0,0.0,0.0,0.0,0.0,0.0,0.0,0.0,0.0,0.0,0.0,-4.3122,-4.223,-4.223,-4.1766,-4.087,-4.087,-4.087,-4.087,-4.087,-4.082,-4.0694,-4.092,0.0,-4.2328,-4.2555,0.0,0.0,0.0,0.0,0.0,0.0,0.0,0.0,0.0,0.0,0.0,0.0,0.0,0.0,0.0,0.0,0.0,0.0,0.0,0.0,0.0,0.0,-4.3526,-4.2601,-4.2021,-4.1333,-3.9951,-3.9919,-4.0173,-4.0173,-4.0173,-4.0275,0.0,0.0,0.0,0.0,0.0,0.0,-3.7848,-3.7854,-3.7808,-3.7551,-3.7551,-3.7459,-3.7227,-3.7413,-3.7551,-3.7551,-3.7762,-3.79,-3.79,-3.79,0.0,0.0,0.0,0.0,0.0,0.0,0.0,0.0,0.0,0.0,0.0,0.0,0.0,0.0,0.0,0.0,0.0,0.0,0.0,0.0,0.0,0.0,0.0,0.0,0.0,0.0,0.0,0.0,0.0,-3.933,-3.9036,-3.9825,-4.0846,-4.2038,0.0,0.0,0.0,0.0,0.0,0.0,0.0,0.0,0.0,-4.2447,-4.1887,-4.1319,-4.0693,-4.0693,-4.0465,-4.0057,-4.0057,-4.0057,-4.0057,-4.0057,-4.0057,-4.0057,-4.0057,-4.0287,-4.082,-4.206,-4.2673,-4.2909,0.0,0.0,0.0,0.0,-4.3313,-4.2834,-4.2689,-4.2641,-4.2641,-4.2641,0.0,0.0,0.0,0.0,0.0,0.0,0.0,-4.3882,-4.2738,-4.2398,-4.2118,-4.0781,-4.0057,-3.9337,-3.8364,-3.8002,-3.8179,-3.8988,-3.9121,-3.9343,-3.9929,-3.9579,0.0,0.0,0.0,-3.7867,-3.7341,-3.7366,-3.7413,-3.732,-3.7273,-3.7201,-3.7108,-3.7201,-3.7273,-3.7273,-3.7413,-3.7459,-3.7459,-3.7459,-3.7459,0.0,0.0,0.0,0.0,0.0,0.0,0.0,0.0,0.0,0.0,0.0,0.0,0.0,0.0,0.0,0.0,0.0,0.0,0.0,0.0,0.0,0.0,0.0,0.0,0.0,0.0,0.0,0.0,-3.7992,-3.8027,-3.8841,-3.9948,-4.109,0.0,0.0,0.0,0.0,0.0,0.0,-4.2544,-4.1838,-4.1319,-4.1119,-4.0415,-3.9878,-3.9697,-3.9697,-3.9697,-3.9697,-3.9697,-3.9697,-3.9697,-3.9697,-3.9697,-3.9697,-3.9697,-3.9697,-3.9825,-4.1463,-4.1913,-4.1644,-4.2883,-4.3145,-4.2689,-4.2641,-4.2181,-4.1518,-4.1468,-4.1419,-4.1419,-4.1419,-4.1936,-4.2593,-4.2834,0.0,0.0,0.0,0.0,-4.2641,-4.1419,-4.1119,-4.0791,-3.9424,-3.8542,-3.7889,-3.7487,-3.6908,-3.6709,-3.775,-3.7978,-3.8179,-3.8961,-3.8496,0.0,-3.8069,-3.75,-3.7062,-3.7015,-3.7062,-3.7062,-3.7015,-3.7015,-3.6968,-3.6922,-3.6968,-3.7015,-3.7015,-3.7062,-3.7108,-3.7108,-3.7108,-3.7108,-3.7108,0.0,0.0,0.0,0.0,0.0,0.0,0.0,0.0,0.0,0.0,0.0,0.0,0.0,0.0,0.0,0.0,0.0,0.0,0.0,0.0,0.0,0.0,0.0,0.0,0.0,0.0,0.0,0.0,0.0,-3.7988,-3.8866,0.0,0.0,0.0,0.0,-4.164,-4.0794,-4.0185,-3.9878,-3.9826,-3.98,-3.98,-3.9749,-3.9697,-3.9697,-3.9697,-3.9697,-3.9697,-3.9697,-3.9697,-3.9697,-3.9697,-3.9697,-3.9697,-3.9697,-3.9697,-3.9697,-3.9825,-4.0006,-4.0211,-4.0313,-4.0466,-4.0643,-4.0364,-4.0211,-4.0185,-3.9878,-3.9826,-3.9826,-3.9826,-3.9826,-4.0083,-4.1019,-4.1319,0.0,0.0,-4.1319,-4.1069,-4.0083,-3.98,-3.9775,-3.9647,-3.8818,-3.799,-3.7965,-3.7111,-3.6405,-3.6499,-3.6499,-3.6593,-3.6803,0.0,-3.6803,-3.6803,-3.6968,-3.7015,-3.6756,-3.6968,-3.7015,-3.6756,-3.6709,-3.6615,-3.6452,-3.6615,-3.6709,-3.6709,-3.6968,-3.7108,-3.7108,-3.7108,-3.7108,-3.7108,-3.7108,0.0,0.0,0.0,0.0,0.0,0.0,0.0,0.0,0.0,0.0,0.0,0.0,0.0,0.0,0.0,0.0,0.0,0.0,0.0,0.0,0.0,0.0,0.0,0.0,0.0,0.0,0.0,0.0,-3.8492,-3.9171,0.0,-4.0287,-4.0134,-4.0083,-4.0364,-4.0032,-3.98,-3.9697,-3.9697,-3.9697,-3.9697,-3.9697,-3.9697,-3.9697,-3.9697,-3.9697,-3.9697,-3.9697,-3.9697,-3.9697,-3.9697,-3.9697,-3.9697,-3.9697,-3.9697,-3.9697,-3.9697,-3.9749,-3.9826,-3.9826,-3.9878,-3.9955,-3.9903,-3.9826,-3.9826,-3.9749,-3.9697,-3.9697,-3.9697,-3.9697,-3.98,-4.0134,-4.0211,-4.0211,-4.0211,-4.0211,-4.0185,-3.98,-3.9697,-3.9697,-3.9697,-3.8843,-3.8015,-3.8015,-3.7136,-3.6405,-3.6405,-3.6405,-3.6405,-3.6499,-3.6499,-3.6499,-3.6499,-3.6593,-3.6593,-3.6546,-3.6593,-3.6593,-3.6499,-3.6827,-3.6981,-3.6933,-3.6981,-3.7029,-3.7029,-3.6796,-3.664,-3.664,-3.664,-3.664,-3.664,-3.664,-3.664,0.0,0.0,0.0,0.0,0.0,0.0,0.0,0.0,0.0,0.0,0.0,0.0,0.0,0.0,0.0,0.0,0.0,0.0,0.0,0.0,0.0,0.0,0.0,0.0,0.0,-3.7937,-3.8442,-3.8818,-3.9346,-3.9697,-3.9697,-3.9697,-3.9697,-3.9697,-3.9697,-3.9697,-3.9697,-3.9697,-3.9697,-3.9697,-3.9697,-3.9697,-3.9697,-3.9697,-3.9697,-3.9697,-3.9697,-3.9697,-3.9697,-3.9697,-3.9697,-3.9697,-3.9697,-3.9697,-3.9697,-3.9697,-3.9697,-3.9697,-3.9697,-3.9697,-3.9697,-3.9697,-3.9697,-3.9697,-3.9697,-3.9697,-3.9697,-3.9697,-3.9697,-3.9697,-3.9697,-3.9697,-3.9697,-3.9697,-3.9697,-3.9697,-3.9697,-3.9697,-3.9697,-3.9697,-3.8969,-3.8241,-3.804,-3.7287,-3.6681,-3.6681,-3.6531,-3.6405,-3.6405,-3.6405,-3.648,-3.6656,-3.6681,-3.6757,-3.6933,-3.6958,-3.6958,-3.6958,-3.7236,-3.7462,-3.7462,-3.7462,-3.7462,-3.7462,-3.7111,-3.6958,-3.6958,-3.6782,-3.6681,-3.6681,-3.6505,-3.6405,-3.6405,0.0,0.0,0.0,0.0,0.0,0.0,0.0,0.0,0.0,0.0,0.0,0.0,0.0,0.0,0.0,0.0,0.0,0.0,0.0,0.0,0.0,0.0,0.0,-3.7236,-3.8165,-3.8919,-3.8944,-3.9371,-3.9697,-3.9697,-3.9697,-3.9697,-3.9697,-3.9697,-3.9697,-3.9697,-3.9697,-3.9697,-3.9722,-3.9722,-3.9722,-3.9747,-3.9747,-3.9747,-3.9747,-3.9747,-3.9747,-3.9747,-3.9747,-3.9747,-3.9747,-3.9722,-3.9722,-3.9722,-3.9697,-3.9697,-3.9697,-3.9697,-3.9697,-3.9697,-3.9697,-3.9697,-3.9697,-3.9697,-3.9697,-3.9697,-3.9697,-3.9697,-3.9697,-3.9697,-3.9697,-3.9697,-3.9697,-3.9697,-3.9697,-3.9697,-3.9697,-3.9697,-3.9697,-3.927,-3.8718,-3.814,-3.7588,-3.7211,-3.7211,-3.6832,-3.6455,-3.6455,-3.6455,-3.6631,-3.7136,-3.7211,0.0,-3.7939,-3.8015,-3.8015,-3.8015,-3.8015,-3.804,-3.804,-3.804,-3.804,-3.804,-3.8015,-3.8015,-3.8015,-3.7487,-3.7211,-3.7211,-3.6707,-3.643,-3.643,0.0,0.0,0.0,0.0,0.0,0.0,0.0,0.0,0.0,0.0,0.0,0.0,0.0,0.0,0.0,0.0,0.0,0.0,0.0,0.0,0.0,-3.7513,-3.7914,-3.8341,-3.8668,-3.9019,-3.9421,-3.9597,-3.9697,-3.9697,-3.9697,-3.9697,-3.9697,-3.9697,-3.9697,-3.9697,-3.9697,-3.9873,-4.0275,-4.03,-4.0475,-4.0824,-4.0824,-4.0824,-4.0824,-4.0824,-4.0824,-4.0824,-4.0824,-4.0824,-4.0852,-4.0475,-4.03,-4.0249,-3.9848,-3.9697,-3.9697,-3.9697,-3.9697,-3.9697,-3.9697,-3.9697,-3.9697,-3.9697,-3.9697,-3.9697,-3.9697,-3.9697,-3.9697,-3.9697,-3.9697,-3.9697,-3.9697,-3.9697,-3.9697,-3.9697,-3.9697,-3.9697,-3.9697,-3.927,-3.8818,-3.8668,-3.8191,-3.7789,-3.7789,-3.7663,-3.7563,-3.7563,-3.7563,-3.7613,-3.7764,-3.7789,-3.7839,-3.799,-3.8015,-3.8015,-3.8015,-3.8391,-3.8642,-3.8642,-3.8642,-3.8642,-3.8642,-3.8241,-3.8015,-3.8015,-3.7864,-3.7789,-3.7789,-3.7236,-3.696,0.0,0.0,0.0,0.0,0.0,0.0,0.0,0.0,0.0,0.0,0.0,0.0,0.0,0.0,0.0,0.0,0.0,0.0,0.0,0.0,0.0,0.0,-3.799,-3.8567,-3.912,-3.922,-3.932,-3.9647,-3.9697,-3.9697,-3.9697,-3.9697,-3.9697,-3.9697,-3.9898,-4.0049,-4.0049,-4.0249,-4.0526,-4.0852,-4.0852,-4.0974,-4.1275,-4.1275,-4.1275,-4.1275,-4.1275,-4.1275,-4.1275,-4.1275,-4.1275,-4.1275,-4.0949,-4.0852,-4.0774,-4.0526,-4.0249,-4.0023,0.0,0.0,0.0,0.0,-3.9697,-3.9697,-3.9697,-3.9697,-3.9697,-3.9697,-3.9697,-3.9697,-3.9697,-3.9697,-3.9697,-3.9697,-3.9697,-3.9697,-3.9697,-3.9697,-3.9697,-3.9697,-3.9446,-3.9145,-3.8969,-3.8592,-3.8366,-3.8366,-3.8366,0.0,-3.8668,-3.8316,-3.809,-3.8341,-3.8366,-3.8442,-3.8693,-3.8718,-3.8718,-3.8718,-3.9019,-3.922,-3.922,-3.922,0.0,0.0,0.0,-3.8617,-3.8391,-3.8366,0.0,0.0,0.0,-3.7538,-3.7538,-3.7511,0.0,0.0,-3.6883,-3.6581,0.0,0.0,0.0,0.0,0.0,0.0,0.0,0.0,0.0,0.0,0.0,0.0,0.0,0.0,0.0,0.0,-3.8492,-3.912,-3.9622,-3.9697,-3.9697,-3.9697,-3.9697,-3.9697,-3.9697,-3.9747,-3.9798,-3.9798,-4.03,-4.0601,-4.0601,-4.1025,0.0,0.0,0.0,-4.1401,-4.1476,-4.1476,-4.1476,-4.1476,-4.1476,-4.1476,-4.1476,-4.1476,-4.1476,-4.1476,-4.1401,-4.1376,-4.1376,-4.13,-4.1,-4.0551,-3.9923,-3.9697,-3.9697,-3.9697,-3.9697,-3.9697,-3.9697,0.0,0.0,-3.9697,-3.9697,-3.9697,-3.9697,-3.9697,-3.9697,-3.9697,-3.9697,-3.9697,-3.9697,-3.9697,-3.9697,-3.9697,-3.9697,-3.9572,-3.9069,-3.902,-3.902,-3.902,-3.902,-3.912,-3.9622,-3.8868,-3.8366,-3.8894,-3.902,-3.9145,-3.9622,-3.9697,-3.9697,-3.9697,-3.9697,0.0,-3.9697,-3.9697,-3.9697,-3.9697,-3.9697,-3.9471,-3.8994,-3.902,-3.8718,-3.8216,-3.814,-3.809,-3.809,-3.8542,-3.8818,-3.8894,-3.7461,-3.6782,0.0,0.0,0.0,0.0,0.0,0.0,0.0,0.0,0.0,0.0,0.0,0.0,0.0,0.0,0.0,-3.7914,-3.8492,-3.912,-3.9622,-3.9697,-3.9697,-3.9697,-3.9697,-3.9697,-3.9697,-4.0099,-4.035,-4.035,-4.0824,-4.1125,-4.1125,-4.1225,-4.153,-4.2037,-4.2062,-4.2208,-4.266,-4.266,-4.266,-4.266,-4.266,0.0,-4.266,-4.266,-4.266,-4.2635,-4.2183,-4.2062,-4.1957,-4.153,-4.1225,-4.1025,-4.0074,-3.9697,-3.9697,-3.9697,-3.9697,-3.9697,-3.9697,-3.9697,-3.9697,-3.9697,-3.9697,-3.9697,-3.9697,-3.9697,0.0,-3.9697,-3.9697,-3.9697,-3.9697,-3.9697,-3.9697,-3.9697,-3.9697,-3.9672,-3.9546,-3.9546,-3.9546,-3.9546,-3.9546,-3.9572,-3.9672,-3.9521,-3.9396,-3.9521,-3.9546,-3.9572,-3.9672,-3.9697,-3.9697,-3.9697,-3.9697,-3.9697,-3.9697,-3.9697,-3.9697,-3.9697,-3.9697,-3.9647,-3.9546,-3.9546,-3.9496,-3.9371,-3.8919,-3.8718,-3.8718,-3.8341,-3.8417,-3.8919,-3.8994,-3.9044,0.0,0.0,0.0,0.0,0.0,0.0,0.0,0.0,0.0,0.0,0.0,-3.648,-3.6782,0.0,-3.7789,-3.8341,-3.8919,-3.9371,-3.9647,-3.9697,-3.9697,-3.9697,-3.9697,-3.9798,-4.0074,-4.035,-4.0626,-4.0849,-4.143,-4.1756,-4.1756,-4.2007,-4.2409,-4.2961,-4.2986,-4.3237,-4.379,-4.379,-4.379,-4.379,-4.379,-4.379,-4.379,-4.3514,-4.3388,-4.3363,-4.2811,-4.2615,-4.259,-4.1982,-4.1756,-4.1656,-4.0852,-4.035,-4.0074,-3.9798,-3.9697,-3.9697,-3.9697,-3.9697,-3.9697,-3.9697,-3.9697,-3.9697,-3.9697,-3.9697,-3.9697,-3.9697,-3.9697,-3.9697,-3.9697,-3.9697,-3.9697,-3.9697,-3.9697,-3.9697,-3.9697,-3.9697,-3.9697,-3.9697,-3.9697,-3.9697,-3.9697,-3.9697,-3.9697,-3.9697,-3.9697,-3.9697,-3.9697,-3.9697,-3.9697,-3.9697,-3.9697,-3.9697,-3.9697,-3.9697,-3.9697,-3.9697,-3.9697,-3.9697,-3.9697,-3.9697,-3.9697,-3.9697,-3.9421,-3.927,-3.927,-3.927,-3.9421,-3.9697,-4.0249,-4.0224,0.0,0.0,0.0,0.0,0.0,0.0,0.0,-3.6405,-3.643,-3.6556,-3.6556,-3.6732,-3.7236,-3.7789,-3.8316,-3.8844,-3.932,-3.9697,-3.9697,-3.9697,-3.9747,-3.9848,-3.9848,-4.0023,-4.0475,-4.0701,-4.1028,-4.1455,-4.2007,-4.2414,-4.2514,-4.2886,-4.3388,-4.394,-4.3966,-4.4166,-4.4618,-4.4618,-4.4618,-4.4618,-4.4618,-4.4618,-4.4618,-4.4166,-4.3966,-4.394,-4.3388,-4.3087,-4.2936,-4.2564,-4.2363,-4.2313,-4.1706,-4.1229,-4.0777,-4.0224,-3.9948,-3.9848,-3.9848,-3.9798,-3.9697,-3.9697,-3.9697,-3.9697,-3.9697,-3.9697,-3.9697,-3.9697,-3.9697,-3.9697,-3.9697,-3.9697,-3.9697,-3.9697,-3.9697,-3.9697,-3.9697,-3.9697,-3.9697,-3.9697,-3.9697,-3.9697,-3.9697,-3.9697,-3.9697,-3.9697,-3.9697,-3.9697,-3.9697,-3.9697,-3.9697,-3.9697,-3.9697,-3.9697,-3.9697,-3.9697,-3.9697,-3.9697,-3.9697,-3.9697,-3.9697,-3.9697,-3.9697,-3.9697,-3.9697,-3.9697,-3.9697,-4.0149,-4.04,-4.0526,-4.0924,-4.0752,-3.9033,-3.8432,-3.775,-3.7684,-3.6989,-3.6405,0.0,-3.6405,-3.6556,-3.6985,-3.7086,-3.7262,-3.7814,-3.8391,-3.8844,-3.8919,-3.932,-3.9697,-3.9697,-3.9697,-3.9873,-4.0375,-4.0425,-4.045,-4.0501,-4.1404,-4.2062,-4.2112,-4.2615,-4.3112,-4.3589,-4.3689,-4.3966,-4.4518,-4.4543,-4.4568,-4.4618,-4.4618,-4.4618,-4.4618,-4.4618,-4.4618,-4.4618,-4.4568,-4.4543,-4.4493,-4.394,-4.3438,-4.2961,-4.2911,-4.2886,-4.2891,-4.2338,-4.2087,-4.1961,-4.1354,-4.0852,-4.0425,-4.0425,-4.0099,-3.9697,-3.9697,-3.9697,-3.9697,-3.9697,-3.9697,-3.9697,-3.9697,-3.9697,-3.9697,-3.9697,-3.9697,-3.9697,-3.9697,-3.9697,-3.9697,-3.9697,-3.9697,-3.9697,-3.9697,-3.9697,-3.9697,-3.9697,-3.9697,-3.9697,-3.9697,-3.9697,-3.9697,-3.9697,-3.9697,-3.9697,-3.9697,-3.9697,-3.9697,-3.9697,-3.9697,-3.9697,-3.9697,-3.9697,-3.9697,-3.9697,-3.9697,-3.9697,-3.9697,-3.9697,-3.9697,-3.9697,-3.9747,-4.0049,-4.0526,-4.0576,-4.0802,-3.8541,-3.8115,-3.7684,-3.7129,-3.6687,-3.6405,-3.6405,-3.6656,-3.6958,-3.7136,-3.7437,-3.7839,-3.8417,-3.8718,-3.8969,-3.9295,-3.9546,-3.9697,-3.9697,-3.9697,-3.9898,-4.045,-4.0802,-4.1128,-4.143,-4.1936,-4.2338,-4.2665,-4.3137,-4.3564,-4.379,-4.4116,-4.4543,-4.5121,-4.5121,-4.5271,-4.5598,-4.5598,-4.5598,-4.5598,-4.5598,-4.5598,-4.5598,-4.5271,-4.4945,-4.4593,-4.4041,-4.3664,-4.3438,-4.3112,-4.2986,-4.2961,-4.2766,-4.269,-4.2534,-4.1656,-4.115,-4.1003,-4.1003,-4.0626,-4.0174,-4.0174,-3.9948,-3.9697,-3.9697,-3.9697,-3.9697,-3.9697,-3.9697,-3.9697,-3.9697,-3.9697,-3.9697,-3.9697,-3.9697,-3.9697,-3.9697,-3.9697,-3.9697,-3.9697,-3.9697,-3.9697,-3.9697,-3.9697,-3.9697,-3.9697,-3.9697,-3.9697,-3.9697,-3.9697,-3.9697,-3.9697,-3.9697,-3.9697,-3.9697,-3.9697,-3.9697,-3.9697,-3.9697,-3.9697,-3.9697,-3.9697,-3.9697,-3.9697,-3.9697,-3.9697,-3.9697,-3.9697,-3.9823,-4.0049,-4.0049,-4.0149,-3.8765,-3.8206,-3.7638,-3.6943,-3.6593,-3.6455,-3.6606,-3.6933,-3.7262,-3.7588,-3.7965,-3.8417,-3.8994,-3.9094,-3.922,-3.9622,-3.9697,-3.9697,-3.9697,-3.9823,-4.0124,-4.0676,-4.1229,-4.1781,-4.2389,-4.2439,-4.2665,-4.3162,-4.3589,-4.394,-4.4242,-4.4644,-4.5121,-4.5698,-4.5723,-4.5899,-4.6301,-4.6301,-4.6301,-4.6301,-4.6301,-4.6301,-4.6301,-4.5899,-4.5397,-4.4844,-4.4443,-4.4091,-4.3765,-4.3363,-4.3112,-4.2986,-4.2986,-4.2986,-4.2886,-4.2082,-4.1706,-4.1555,-4.1555,-4.1204,-4.0752,-4.0752,-4.0475,-4.0124,-3.9973,-3.9923,-3.9898,-3.9747,-3.9697,-3.9697,-3.9697,-3.9697,-3.9697,-3.9697,-3.9697,-3.9697,-3.9697,-3.9697,-3.9697,-3.9697,-3.9697,-3.9697,-3.9697,-3.9697,-3.9697,-3.9697,-3.9697,-3.9697,-3.9697,-3.9697,-3.9697,-3.9697,-3.9697,-3.9697,-3.9697,-3.9697,-3.9697,-3.9697,-3.9697,-3.9697,-3.9697,-3.9697,-3.9697,-3.9697,-3.9697,-3.9697,-3.9697,-3.9697,-3.9772,-3.9923,-3.9923,-3.9998,-4.0518,-3.921,-3.7821,-3.775,-3.7083,-3.6556,-3.7036,-3.7186,-3.7487,-3.8642,-3.8894,-3.907,-3.9572,-3.9672,-3.9672,-3.9697,-3.9697,-3.9697,-3.9697,-4.0149,-4.0701,-4.12,-4.1806,-4.2414,-4.2886,-4.2961,-4.3187,-4.374,-4.379,-4.4292,-4.5372,-4.5447,-4.5723,-4.6276,-4.6276,-4.6301,-4.6301,-4.6301,-4.6301,-4.6301,-4.6301,-4.6301,-4.6301,-4.6301,-4.5974,-4.5472,-4.5447,-4.4819,-4.379,-4.379,-4.3463,-4.2986,-4.2986,-4.2986,-4.2986,-4.2936,-4.264,-4.2187,-4.2187,-4.1781,-4.125,-4.125,-4.125,-4.1125,-4.0651,-4.0501,-4.0375,-3.9848,-3.9697,-3.9697,-3.9697,-3.9697,-3.9697,-3.9697,-3.9697,-3.9697,-3.9697,-3.9697,-3.9697,-3.9697,-3.9697,-3.9697,-3.9697,-3.9697,-3.9697,-3.9697,-3.9697,-3.9697,-3.9697,-3.9697,-3.9697,-3.9697,-3.9697,-3.9697,-3.9697,-3.9697,-3.9697,-3.9697,-3.9697,-3.9697,-3.9697,-3.9697,-3.9697,-3.9697,-3.9697,-3.9697,-3.9697,-3.9697,-3.9973,-4.0501,-4.0501,-4.0724,-4.0043,-3.921,-3.8405,-3.7176,-3.6919,-3.7008,-3.7136,-3.7764,-3.8466,-3.8844,-3.917,-3.9471,-3.9672,-3.9697,-3.9697,-3.9697,-3.9697,-3.9697,-3.9697,-4.0174,-4.0727,-4.1225,-4.1831,-4.2414,-4.2911,-4.3313,-4.3614,-4.379,-4.4493,-4.5095,-4.5472,-4.5824,-4.6125,-4.6301,-4.6301,-4.6301,-4.6301,-4.6301,-4.6301,-4.6301,-4.6301,-4.6301,-4.6301,-4.6301,-4.62,-4.6024,-4.5648,-4.5271,-4.4869,-4.4116,-4.3689,-4.3489,-4.3112,-4.2986,-4.2986,-4.2986,-4.2861,-4.2766,-4.2766,-4.2333,-4.1882,-4.1882,-4.163,-4.125,-4.1075,-4.1,-4.0974,-4.0774,-4.0724,-4.0701,-4.0325,-4.0249,-4.0149,-3.9772,-3.9697,-3.9697,-3.9697,-3.9697,-3.9697,-3.9697,-3.9697,-3.9697,-3.9697,-3.9697,-3.9697,-3.9697,-3.9697,-3.9697,-3.9697,-3.9697,-3.9697,-3.9697,-3.9697,-3.9697,-3.9697,-3.9697,-3.9697,-3.9697,-3.9697,-3.9697,-3.9697,-3.9697,-3.9697,-3.9697,-4.0049,-4.0249,-4.0249,-4.0601,-4.0824,-4.1,-4.1,-4.11,-4.0043,-3.921,-3.8459,-3.7433,-3.7197,-3.7287,-3.7688,-3.8341,-3.8919,-3.912,-3.9446,-3.9697,-3.9697,-3.9697,-3.9697,-3.9697,-3.9697,-3.9697,-3.9697,-4.035,-4.0899,-4.125,-4.1982,-4.264,-4.2936,-4.3664,-4.4091,-4.4091,-4.497,-4.5573,-4.5773,-4.6125,-4.6301,-4.6301,-4.6301,-4.6301,-4.6301,-4.6301,-4.6301,-4.6301,-4.6301,-4.6301,-4.6301,-4.6301,-4.6301,-4.6301,-4.5924,-4.5673,-4.5422,-4.4468,-4.3991,-4.374,-4.3187,-4.2986,-4.2986,-4.2986,-4.2986,-4.2986,-4.2986,-4.2735,-4.2514,-4.2514,-4.2208,-4.1882,-4.1681,-4.163,-4.1605,-4.1351,-4.1275,-4.12,-4.0902,-4.0802,-4.0727,-4.0375,-4.0275,-4.0275,-4.0275,-4.0275,-4.0275,-4.0275,-4.0275,-4.0275,-4.0275,-4.0275,-4.0275,-4.0275,-4.0275,-4.0149,-3.9747,-3.9697,-3.9697,-3.9697,-3.9697,-3.9697,-3.9697,-3.9697,-3.9772,-3.9973,-3.9998,-4.0074,-4.0275,-4.0275,-4.0275,-4.0275,-4.0626,-4.0802,-4.0802,-4.1125,-4.1376,-4.163,-4.163,-4.1731,-4.056,-3.9282,-3.8024,-3.8434,-3.7932,-3.7563,-3.8668,-3.8944,-3.912,-3.9597,-3.9697,-3.9697,-3.9697,-3.9697,-3.9697,-3.9697,-3.9697,-3.9697,-3.9697,-4.0651,-4.1275,-4.1275,-4.2308,-4.2986,-4.2986,-4.3966,-4.4618,-4.4618,-4.5171,-4.5748,-4.6276,-4.6301,-4.6301,-4.6301,-4.6301,-4.6301,-4.6301,-4.6301,-4.6301,-4.6301,-4.6301,-4.6301,-4.6301,-4.6301,-4.6301,-4.6301,-4.6301,-4.6024,-4.5472,-4.4895,-4.4342,-4.379,-4.3237,-4.3011,-4.2986,-4.2986,-4.2986,-4.2986,-4.2986,-4.2986,-4.2986,-4.2986,-4.2986,-4.2942,-4.2414,-4.2263,-4.2137,-4.158,-4.1376,-4.1351,-4.1326,-4.1326,-4.1326,-4.13,-4.1275,-4.1275,-4.1275,-4.1275,-4.1275,-4.1275,-4.1275,-4.1275,-4.1275,-4.1275,-4.1275,-4.1275,-4.1275,-4.0899,-3.9923,-3.9772,-3.9772,-3.9772,-3.9772,-3.9772,-3.9772,-3.9772,-3.9998,-4.0526,-4.0551,-4.0802,-4.125,-4.1275,-4.1275,-4.1275,-4.13,-4.1326,-4.1326,-4.1351,-4.1681,-4.2263,-4.2263,-4.2539,-3.9956,-3.9491,-3.9142,-3.7877,-3.801,-3.8517,-3.8844,-3.9195,-3.9521,-3.9672,-3.9697,-3.9697,-3.9697,-3.9697,-3.9697,-3.9697,-3.9697,-3.9697,-3.9697,-4.0651,-4.1275,-4.1275,-4.2308,-4.2986,-4.2986,-4.3966,-4.4618,-4.4618,-4.5547,-4.6175,-4.6301,-4.6301,-4.6301,-4.6301,-4.6301,-4.6301,-4.6301,-4.6301,-4.6301,-4.6301,-4.6301,-4.6301,-4.6301,-4.6301,-4.6301,-4.6301,-4.6301,-4.6225,-4.605,-4.5497,-4.492,-4.4367,-4.3815,-4.3338,-4.2986,-4.2986,-4.2986,-4.2986,-4.2986,-4.2986,-4.2986,-4.2986,-4.2986,-4.2961,-4.2811,-4.2816,-4.2735,-4.261,-4.2559,-4.2459,-4.2057,-4.1957,-4.1856,-4.1376,-4.1275,-4.1275,-4.1275,-4.1275,-4.1275,-4.1275,-4.1275,-4.1275,-4.1275,-4.1275,-4.1275,-4.1275,-4.1275,-4.1175,-4.0953,-4.0874,-4.0874,-4.0874,-4.0874,-4.0874,-4.0874,-4.0874,-4.0924,-4.1075,-4.1075,-4.115,-4.1275,-4.1275,-4.1275,-4.1275,-4.1731,-4.1957,-4.1957,-4.2359,-4.2635,-4.2816,-4.2816,-4.2836,-4.0332,-3.9518,-3.8762,-3.8592,-3.8714,-3.8944,-3.917,-3.9471,-3.9697,-3.9697,-3.9697,-3.9697,-3.9697,-3.9697,-3.9697,-3.9697,-3.9697,-3.9697,-3.9697,-4.0651,-4.1275,-4.1275,-4.2308,-4.3062,-4.3313,-4.4116,-4.4719,-4.4995,-4.5824,-4.6301,-4.6301,-4.6301,-4.6301,-4.6301,-4.6301,-4.6301,-4.6301,-4.6301,-4.6301,-4.6301,-4.6301,-4.6301,-4.6301,-4.6301,-4.6301,-4.6301,-4.6301,-4.6301,-4.6276,-4.5723,-4.5146,-4.4568,-4.4016,-4.3463,-4.2986,-4.2986,-4.2986,-4.2986,-4.2986,-4.2986,-4.2986,-4.2986,-4.2986,-4.2986,-4.2986,-4.2986,-4.2986,-4.2986,-4.2986,-4.2911,-4.2665,-4.2564,-4.2489,-4.2133,-4.2057,-4.2057,-4.2057,-4.2057,-4.2057,-4.2057,-4.2057,-4.2057,-4.2057,-4.2057,-4.2057,-4.2057,-4.2057,-4.2057,-4.2057,-4.1576,-4.1275,-4.1275,-4.1275,-4.1275,-4.1275,-4.1275,-4.1376,-4.1681,-4.1681,-4.1806,-4.2057,-4.2057,-4.2057,-4.2057,-4.2359,-4.2564,-4.2564,-4.2836,-4.2986,-4.2986,-4.2986,-4.2986,-4.0863,-3.9428,-3.8095,-3.9731,-3.9597,-3.912,-3.9597,-3.9697,-3.9697,-3.9697,-3.9697,-3.9697,-3.9697,-3.9697,-3.9697,-3.9697,-3.9697,-3.9697,-3.9697,-4.0651,-4.1275,-4.1275,-4.2308,-4.3187,-4.374,-4.4292,-4.4869,-4.5447,-4.5999,-4.6301,-4.6301,-4.6301,-4.6301,-4.6301,-4.6301,-4.6301,-4.6301,-4.6301,-4.6301,-4.6301,-4.6301,-4.6301,-4.6301,-4.6301,-4.6301,-4.6301,-4.6301,-4.6301,-4.6276,-4.5799,-4.5271,-4.4694,-4.4116,-4.3564,-4.3087,-4.3011,-4.2986,-4.2986,-4.2986,-4.2986,-4.293,-4.2986,-4.2986,-4.2986,-4.2986,-4.2986,-4.2986,-4.2986,-4.2986,-4.2986,-4.2986,-4.2986,-4.2986,-4.2986,-4.2986,-4.2986,-4.2986,-4.2986,-4.2986,-4.2986,-4.2986,-4.2986,-4.2986,-4.2986,-4.2986,-4.2986,-4.2986,-4.2986,-4.2986,-4.2158,-4.1501,-4.1501,-4.1501,-4.1501,-4.1501,-4.1501,-4.1756,-4.2288,-4.2313,-4.2539,-4.2961,-4.2986,-4.2986,-4.2986,-4.2986,-4.2986,-4.2986,-4.2986,-4.2986,-4.2986,-4.3062,-4.3087,-3.9562,-3.9655,-4.0092,-3.9317,-3.9348,-3.9572,-3.9672,-3.9697,0.0,-3.9697,-3.9697,-3.9697,-3.9697,-3.9697,-3.9697,-3.9697,-3.9697,-3.9697,-3.9697,-4.0651,-4.1275,-4.1275,-4.2308,-4.3187,-4.374,-4.4292,-4.4869,-4.5447,-4.5999,-4.6301,-4.6301,-4.6301,-4.6301,-4.6301,-4.6301,-4.6301,-4.6301,-4.6301,-4.6301,-4.6301,-4.6301,-4.6301,-4.6301,-4.6301,-4.6301,-4.6301,-4.6301,-4.6301,-4.6301,-4.62,-4.5849,-4.5271,-4.4694,-4.4141,-4.3614,-4.3137,-4.2986,-4.2986,-4.2986,-4.2818,-4.2625,-4.293,-4.2986,-4.2986,-4.2986,-4.2986,-4.2986,-4.2986,-4.2986,-4.2986,-4.2986,-4.2986,-4.2986,-4.2986,-4.2986,-4.2986,-4.2986,-4.2986,-4.2986,-4.2986,-4.2986,-4.2986,-4.2986,-4.2986,-4.2986,-4.2986,-4.2986,-4.2986,-4.2986,-4.2811,-4.2685,-4.2685,-4.2685,-4.2685,-4.2685,-4.2685,-4.2735,-4.2836,-4.2836,-4.2886,-4.2986,-4.2986,-4.2986,-4.2986,-4.2986,-4.2986,-4.2986,-4.2986,-4.2986,-4.2986,-4.3438,-4.3664,-4.0049,-3.9947,-3.9991,-3.9474,-3.9496,-3.9697,-3.9697,0.0,0.0,-3.9697,-3.9697,-3.9697,-3.9697,-3.9697,-3.9697,-3.9697,-3.9697,-3.9697,-3.9697,-4.0651,-4.1275,-4.1275,-4.2308,-4.3187,-4.374,-4.4292,-4.4869,-4.5447,-4.5999,-4.6301,-4.6301,-4.6301,-4.6301,-4.6301,-4.6301,-4.618,-4.6059,-4.6059,-4.5939,-4.5757,-4.5939,-4.6059,-4.6059,-4.624,-4.6301,-4.6301,-4.6301,-4.6301,-4.6301,-4.6301,-4.5974,-4.5422,-4.4844,-4.4292,-4.374,-4.3187,-4.2874,-4.2737,-4.293,-4.2818,-4.2594,-4.2874,-4.2849,-4.2762,-4.2762,-4.2874,-4.2986,-4.2986,-4.2986,-4.2986,-4.2986,-4.2986,-4.2986,-4.2986,-4.2986,-4.2986,-4.2986,-4.2986,-4.2986,-4.2986,-4.2986,-4.2986,-4.2986,-4.2986,-4.2986,-4.2986,-4.2986,-4.2986,-4.2986,-4.2986,-4.2986,-4.2986,-4.2986,-4.2986,-4.2986,-4.2986,-4.2986,-4.2986,-4.2986,-4.2986,-4.2986,-4.2986,-4.2986,-4.2986,-4.2986,-4.2986,-4.2986,-4.3263,-4.3413,-4.3413,-4.3966,-4.4242,-4.0629,-4.016,-3.9707,-3.9702,-3.9697,-3.9697,-3.9697,-3.9697,0.0,-3.9697,-3.9697,-3.9697,-3.9697,-3.9697,-3.9697,-3.9697,-3.9697,-3.9697,-3.9697,-4.0651,-4.1275,-4.1275,-4.2308,-4.3187,-4.374,-4.4292,-4.4869,-4.5447,-4.5999,-4.6301,-4.6301,-4.6301,-4.6301,-4.6301,-4.624,-4.6059,-4.5817,-4.5757,-4.5574,-4.5331,-4.5635,-4.5817,-4.5817,-4.612,-4.6301,-4.6301,-4.6301,-4.6301,-4.6301,-4.6301,-4.605,-4.5598,-4.4895,-4.4367,-4.389,-4.3212,-4.2793,-4.2625,-4.293,-4.2818,-4.2513,-4.2793,-4.2737,-4.2625,-4.2625,-4.2818,-4.2986,-4.2986,-4.2986,-4.2986,-4.2986,-4.2986,-4.2986,-4.2986,-4.2986,-4.2986,-4.2986,-4.2986,-4.2986,-4.2986,-4.2986,-4.2986,-4.2986,-4.2986,-4.2986,-4.2986,-4.2986,-4.2986,-4.2986,-4.2986,-4.2986,-4.2986,-4.2986,-4.2986,-4.2986,-4.2986,-4.2986,-4.2986,-4.2986,-4.2986,-4.2986,-4.2986,-4.2986,-4.2986,-4.3087,-4.3162,-4.3162,-4.3714,-4.3966,-4.3991,-4.4543,-4.4794,-4.0001,-4.016,-4.0594,-3.9906,-3.9697,-3.9697,-3.9697,0.0,-3.9697,-3.9697,-3.9697,-3.9697,-3.9697,-3.9697,-3.9697,-3.9697,-3.9697,-3.9697,-3.9697,-4.0651,-4.1275,-4.1275,-4.2308,-4.3187,-4.374,-4.4292,-4.4869,-4.5447,-4.5999,-4.6301,-4.6301,-4.6301,-4.6301,-4.6301,-4.5999,-4.5817,-4.5817,-4.5514,-4.5331,-4.5331,-4.5635,-4.5817,-4.5817,-4.612,-4.6301,-4.6301,-4.6301,-4.6301,-4.6301,-4.6301,-4.6276,-4.6125,-4.5045,-4.4593,-4.4418,-4.3363,-4.2986,-4.2986,-4.2986,-4.2818,-4.2538,-4.2513,-4.2762,-4.2986,-4.2986,-4.2986,-4.2986,-4.2986,-4.2986,-4.2986,-4.2986,-4.2986,-4.2986,-4.2986,-4.2986,-4.2986,-4.2986,-4.2986,-4.2986,-4.2986,-4.2986,-4.2986,-4.2986,-4.2986,-4.2986,-4.2986,-4.2986,-4.2986,-4.2986,-4.2986,-4.2986,-4.2986,-4.2986,-4.2986,-4.2986,-4.2986,-4.2986,-4.2986,-4.2986,-4.2986,-4.2986,-4.2986,-4.2986,-4.2986,-4.3463,-4.374,-4.374,-4.4267,-4.4543,-4.4568,-4.5146,-4.5422,-4.0629,-4.0582,-4.0716,-3.9906,-3.9697,-3.9697,-3.9697,0.0,-3.9697,-3.9697,-3.9697,-3.9697,-3.9697,-3.9697,-3.9697,-3.9697,0.0,0.0,-3.9697,-4.0651,-4.1275,-4.1275,-4.2308,-4.3062,-4.3288,-4.4116,-4.4995,-4.5924,-4.6175,-4.6301,-4.6301,-4.6301,-4.6301,-4.6301,-4.618,-4.5878,-4.5514,-4.5392,-4.5086,-4.4717,-4.5025,-4.5331,-4.5514,-4.5817,-4.612,-4.6301,-4.6301,-4.6301,-4.6301,-4.6301,-4.6301,-4.62,-4.507,-4.4618,-4.4493,-4.3388,-4.2849,-4.2762,-4.293,-4.2818,-4.2513,-4.2762,-4.2874,-4.2986,-4.2737,-4.2874,-4.2986,-4.2986,-4.2986,-4.2986,-4.2986,-4.2986,-4.2986,-4.2986,-4.2986,-4.2986,-4.2986,-4.2986,-4.2986,-4.2986,-4.2986,-4.2986,-4.2986,-4.2986,-4.2986,-4.2986,-4.2986,-4.2986,-4.2986,-4.2986,-4.2986,-4.2986,-4.2986,-4.2986,-4.2986,-4.2986,-4.2986,-4.2986,-4.2986,-4.2986,-4.2986,-4.3288,-4.3463,-4.3463,-4.4016,-4.4292,-4.4292,-4.4869,-4.5146,-4.5171,-4.5723,-4.5974,-4.1114,-4.0889,-4.0716,-3.9906,-3.9697,-3.9697,0.0,0.0,-3.9697,-3.9697,-3.9697,-3.9697,-3.9697,-3.9697,-3.9697,0.0,0.0,-3.9697,-3.9697,-4.0501,-4.11,-4.1275,-4.2158,-4.2866,-4.2961,-4.3966,-4.5095,-4.6225,-4.6301,-4.6301,-4.6301,-4.6301,-4.6301,-4.6301,-4.612,-4.5757,-4.5331,-4.5086,-4.4779,-4.4285,-4.4656,-4.4963,-4.5331,-4.5635,-4.5999,-4.6301,-4.6301,-4.6301,-4.6301,-4.6301,-4.6301,-4.62,-4.507,-4.4618,-4.4493,-4.3388,-4.2874,-4.2681,-4.293,-4.2874,-4.2681,-4.293,-4.2986,-4.2986,-4.2737,-4.2793,-4.2986,-4.2986,-4.2986,-4.2986,-4.2986,-4.2986,-4.2986,-4.2986,-4.2986,-4.2986,-4.2986,-4.2986,-4.2986,-4.2986,-4.2986,-4.2986,-4.2986,-4.2986,-4.2986,-4.2986,-4.2986,-4.2986,-4.2986,-4.2986,-4.2986,-4.2986,-4.2986,-4.2986,-4.2986,-4.2986,-4.2986,-4.2986,-4.2986,-4.3062,-4.3212,-4.3589,-4.3865,-4.4041,-4.4593,-4.4895,-4.4895,-4.5447,-4.5723,-4.5748,-4.6125,-4.6301,-4.1114,-4.0889,-4.0716,-3.9906,-3.9697,-3.9697,0.0,-3.9697,-3.9697,-3.9697,-3.9697,-3.9697,-3.9697,-3.9697,-3.9697,-3.9697,-3.9697,0.0,-3.9697,-4.0174,-4.0727,-4.1225,-4.1831,-4.2439,-4.2936,-4.3966,-4.5095,-4.6225,-4.6301,-4.6301,-4.6301,-4.6301,-4.6301,-4.6301,-4.5635,-4.5331,-4.5331,-4.4656,-4.4285,-4.4285,-4.4656,-4.4963,-4.5331,-4.5635,-4.5999,-4.6301,-4.6301,-4.6301,-4.6301,-4.6301,-4.6301,-4.62,-4.507,-4.4618,-4.4493,-4.3388,-4.2986,-4.2986,-4.2986,-4.2986,-4.2986,-4.2986,-4.2986,-4.2986,-4.2986,-4.2986,-4.2986,-4.2986,-4.2986,-4.2986,-4.2986,-4.2986,-4.2986,-4.2986,-4.2986,-4.2986,-4.2986,-4.2986,-4.2986,-4.2986,-4.2986,-4.2986,-4.2986,-4.2986,-4.2986,-4.2986,-4.2986,-4.2986,-4.2986,-4.2986,-4.2986,-4.2986,-4.2986,-4.2986,-4.2986,-4.2986,-4.2986,-4.2986,-4.2986,-4.3212,-4.3765,-4.379,-4.4066,-4.4593,-4.5171,-4.5472,-4.5472,-4.6024,-4.6301,-4.6301,-4.6301,-4.6301,-4.1971,-4.1443,-4.0878,-4.0759,-4.0211,-3.9697,-3.9697,-3.9697,-3.9697,-3.9697,-3.9697,-3.9697,-3.9697,-3.9697,-3.9697,-3.9697,-3.9697,0.0,-3.9697,-4.0174,-4.0727,-4.1225,-4.2158,-4.3087,-4.4016,-4.4418,-4.5095,-4.6225,-4.6301,-4.6301,-4.6301,-4.6301,-4.6301,-4.6301,-4.5878,-4.5514,-4.5331,-4.484,-4.4532,-4.4285,-4.4409,-4.4779,-4.5331,-4.5392,-4.5757,-4.6301,-4.6301,-4.6301,-4.6301,-4.6301,-4.6075,-4.5673,-4.492,-4.4392,-4.3966,-4.3237,-4.2986,-4.2986,-4.2986,-4.2986,-4.2986,-4.2986,-4.2986,-4.2986,-4.2986,-4.2986,-4.2986,-4.2986,-4.2986,-4.2986,-4.2986,-4.2986,-4.2986,-4.2986,-4.2986,-4.2986,-4.2986,-4.2986,-4.2986,-4.2986,-4.2986,-4.2986,-4.2986,-4.2986,-4.2986,-4.2986,-4.2986,-4.2986,-4.2986,-4.2986,-4.2986,-4.2986,-4.2986,-4.2986,-4.2986,-4.2986,-4.3137,-4.3514,-4.3539,-4.379,-4.4342,-4.4744,-4.5045,-4.5221,-4.5773,-4.605,-4.605,-4.6225,-4.6301,-4.6301,-4.6301,-4.6301,-4.1792,-4.1397,-4.0878,-4.0659,-4.0465,-4.016,-3.98,-3.9697,-3.9697,-3.9697,-3.9697,-3.9697,-3.9697,-3.9697,-3.9697,-3.9697,-3.9697,-3.9697,-3.9697,-3.9998,-4.0501,-4.12,-4.2308,-4.3338,-4.4217,-4.4493,-4.4995,-4.5924,-4.62,-4.6301,-4.6301,-4.6301,-4.6301,-4.6301,-4.5817,-4.5514,-4.5331,-4.484,-4.4532,-4.4285,-4.4285,-4.4594,-4.5086,-4.5086,-4.5392,-4.5939,-4.6059,-4.612,0.0,-4.624,-4.5974,-4.5422,-4.4844,-4.4292,-4.374,-4.3187,-4.2986,-4.2986,-4.2986,-4.2986,-4.2986,-4.2986,-4.2986,-4.2986,-4.2986,-4.2986,-4.2986,-4.2986,-4.2986,-4.2986,-4.2986,-4.2986,-4.2986,-4.2986,-4.2986,-4.2986,-4.2986,-4.2986,-4.2986,-4.2986,-4.2986,-4.2986,-4.2986,-4.2986,-4.2986,-4.2986,-4.2986,-4.2986,-4.2986,-4.2986,-4.2986,-4.2986,-4.2986,-4.3062,-4.3263,-4.3288,-4.3438,-4.379,-4.3991,-4.4367,-4.492,-4.5296,-4.5598,-4.5799,-4.6125,-4.6301,-4.6301,-4.6301,-4.6301,-4.6301,-4.6301,-4.6301,0.0,-4.0889,-4.0689,-4.0007,-4.0465,-4.0844,-3.9929,-3.9697,0.0,-3.9697,-3.9697,-3.9697,-3.9697,-3.9697,-3.9697,-3.9697,-3.9697,-3.9697,-3.9697,-3.9772,-4.0199,-4.1175,-4.2308,-4.3187,-4.374,-4.4292,-4.4869,-4.5447,-4.5999,-4.6301,-4.6301,-4.6301,-4.6301,-4.6301,-4.5635,-4.5331,-4.5331,-4.4656,-4.4285,-4.4285,-4.4285,-4.447,-4.4779,-4.484,-4.5025,-4.5331,-4.5635,-4.5817,-4.5817,-4.612,-4.5914,-4.5372,-4.4844,-4.4209,-4.3633,-4.3162,-4.2986,-4.2986,-4.2986,-4.2986,-4.2986,-4.2986,-4.2986,-4.2986,-4.2986,-4.2986,-4.2986,-4.2986,-4.2986,-4.2986,-4.2986,-4.2986,-4.2986,-4.2986,-4.2986,-4.2986,-4.2986,-4.2986,-4.2986,-4.2986,-4.2986,-4.2986,-4.2986,-4.2986,-4.2986,-4.2986,-4.2986,-4.2986,-4.2986,-4.2986,-4.2986,-4.3037,-4.3037,-4.3263,-4.3815,-4.3815,-4.384,-4.3915,-4.4392,-4.4945,-4.5522,-4.5547,-4.5773,-4.6301,-4.6301,-4.6301,-4.6301,-4.6301,-4.6301,-4.6301,-4.6301,-4.6301,-4.0657,0.0,-3.9948,-4.0633,-4.0465,-3.9981,0.0,-3.9697,-3.9697,-3.9697,-3.9697,-3.9697,-3.9697,-3.9697,-3.9697,-3.9697,-3.9697,-3.9697,-3.9697,-4.0425,-4.1,-4.125,-4.2308,-4.3187,-4.374,-4.4292,-4.4869,-4.5447,-4.5999,-4.6301,-4.6301,-4.6301,-4.6301,-4.6301,-4.5635,-4.5331,-4.5331,-4.4656,-4.4285,-4.4285,-4.4285,-4.447,-4.484,-4.5086,-4.5208,-4.5331,-4.5635,-4.5817,-4.5817,-4.5878,-4.5366,-4.4494,-4.4577,-4.3844,-4.2824,-4.2955,-4.2986,-4.2986,-4.2986,-4.2986,-4.2986,-4.2986,-4.2986,-4.2986,-4.2986,-4.2986,-4.2986,-4.2986,-4.2986,-4.2986,-4.2986,-4.2986,-4.2986,-4.2986,-4.2986,-4.2986,-4.2986,-4.2986,-4.2986,-4.2986,-4.2986,-4.2986,-4.2986,-4.2986,-4.2986,-4.2986,-4.2986,-4.2986,-4.2986,-4.2986,-4.3137,-4.3564,-4.3614,-4.384,-4.4392,-4.4041,-4.4166,-4.5045,-4.5221,-4.5547,-4.61,-4.6125,-4.6175,-4.6301,-4.6301,-4.6301,-4.6301,-4.6301,-4.6301,-4.6301,-4.6301,-4.6301,-4.061,-4.0207,-3.9685,-4.0309,-4.0465,-4.0262,-3.98,-3.9697,-3.9697,-3.9697,-3.9697,-3.9697,-3.9697,-3.9697,-3.9697,-3.9697,-3.9697,-3.9697,-3.9697,-4.0651,-4.1275,-4.1275,-4.2308,-4.3087,-4.3388,-4.4141,-4.4744,-4.507,-4.5849,-4.6301,-4.6301,-4.6301,-4.6301,-4.6301,-4.5635,-4.5331,-4.5331,-4.4656,-4.4285,-4.4285,-4.4285,-4.4409,-4.4594,-4.4779,-4.4902,-4.5086,-4.527,-4.5453,-4.555,-4.5303,-4.4829,-4.4178,-4.4078,-4.3512,-4.2737,-4.2905,-4.2986,-4.2986,-4.2986,-4.2986,-4.2986,-4.2986,-4.2986,-4.3037,-4.3288,-4.3363,-4.3313,-4.3062,-4.2986,-4.2986,-4.2986,-4.2986,-4.2986,-4.2986,-4.2986,-4.2986,-4.2986,-4.2986,-4.2986,-4.2986,-4.2986,-4.2986,-4.2986,-4.2986,-4.2986,-4.2986,-4.2986,-4.3062,-4.3313,-4.3363,-4.3564,-4.4116,-4.4192,-4.4418,-4.497,-4.4744,-4.4844,-4.5447,-4.5723,-4.5999,-4.6301,-4.6301,-4.6301,-4.6301,-4.6301,-4.6301,-4.6301,-4.6301,-4.6301,-4.6301,-4.6301,-4.6301,-4.0399,-4.0018,-3.9421,-3.9651,-4.0364,-4.0743,-3.9878,-3.9697,-3.9697,-3.9697,-3.9697,-3.9697,-3.9697,-3.9697,-3.9697,-3.9697,-3.9697,-3.9697,-3.9697,-4.0651,-4.1275,-4.1275,-4.2308,-4.2986,-4.2986,-4.389,-4.4543,-4.4618,-4.5598,-4.6225,-4.6301,-4.6301,-4.6301,-4.6301,-4.5635,-4.5331,-4.5331,-4.4656,-4.4285,-4.4285,-4.4285,-4.4285,-4.4285,-4.4347,-4.447,-4.4717,-4.4779,-4.4963,-4.5159,-4.462,-4.4259,-4.4011,-4.3524,-4.3148,-4.2874,-4.293,-4.2986,-4.2986,-4.2986,-4.2986,-4.2986,-4.2986,-4.3037,-4.3187,-4.3664,-4.3865,-4.384,-4.3363,-4.3237,-4.3237,-4.3237,-4.3237,-4.3237,-4.3237,-4.3237,-4.3237,-4.3237,-4.3162,-4.3112,-4.3112,-4.3037,-4.3011,-4.3087,-4.3112,-4.3137,-4.3212,-4.3237,-4.3388,-4.3865,-4.3915,-4.4141,-4.4694,-4.4744,-4.4995,-4.5573,-4.5623,-4.5623,-4.5623,-4.605,-4.6301,-4.6301,-4.6301,-4.6301,-4.6301,-4.6301,-4.6301,-4.6301,-4.6301,-4.6301,-4.6301,-4.6301,-4.6301,-3.9532,-3.8917,-3.8464,-3.9472,-3.9826,-3.9878,-3.9749,-3.9697,-3.9697,-3.9697,-3.9697,-3.9697,-3.9697,-3.9697,-3.9697,-3.9697,-3.9697,-3.9697,-3.9697,-4.0651,-4.1275,-4.1275,-4.2308,-4.2986,-4.2986,-4.3564,-4.4116,-4.4593,-4.5246,-4.5824,-4.6276,-4.6301,-4.6301,-4.6301,-4.5635,-4.5331,-4.5331,-4.4656,-4.4285,-4.4285,-4.4285,-4.4285,-4.4285,-4.4594,-4.4594,-4.4409,-4.4656,-4.484,-4.4853,-4.4293,-4.3793,-4.334,-4.306,-4.2692,-4.228,-4.2481,-4.2737,-4.2986,-4.2986,-4.2986,-4.2986,-4.2986,-4.3288,-4.3689,-4.379,-4.4141,-4.4493,-4.4392,-4.4367,-4.4367,-4.4367,-4.4367,-4.4367,-4.4367,-4.4367,-4.4367,-4.4367,-4.4016,-4.3689,-4.3689,-4.3288,-4.3112,-4.3589,-4.3689,-4.384,-4.4292,-4.4367,-4.4392,-4.4493,-4.4493,-4.4719,-4.5296,-4.5347,-4.5573,-4.6125,-4.6175,-4.6175,-4.6175,-4.625,-4.6301,-4.6301,-4.6301,-4.6301,-4.6301,-4.6301,-4.6301,-4.6301,-4.6301,-4.6301,-4.6301,-4.6301,-4.6301,-4.0027,-3.9136,-3.8266,-3.9421,-3.9697,-3.9697,-3.9697,-3.9697,-3.9697,-3.9697,-3.9697,-3.9697,-3.9697,-3.9697,-3.9697,-3.9697,-3.9697,-3.9697,-3.9697,-4.0651,-4.1275,-4.1275,-4.2308,-4.2986,-4.2986,-4.3489,-4.4041,-4.4593,-4.5171,-4.5723,-4.6276,-4.6301,-4.6301,-4.6301,-4.5635,-4.5331,-4.5331,-4.4656,-4.4285,-4.4285,-4.4285,-4.4285,-4.4285,-4.447,-4.4532,-4.4594,-4.4532,-4.4656,-4.4706,-4.376,-4.3251,-4.3138,-4.2485,-4.2136,-4.211,-4.2425,-4.2681,-4.2986,-4.2986,-4.2986,-4.3037,-4.3313,-4.3589,-4.3915,-4.4518,-4.4895,-4.5146,-4.5447,-4.5095,-4.4618,-4.4618,-4.4618,-4.4618,-4.4618,-4.4618,-4.4618,-4.4618,-4.4418,-4.4242,-4.4242,-4.4041,-4.394,-4.4192,-4.4242,-4.4342,-4.4593,-4.4618,-4.4744,-4.5045,-4.5095,-4.5296,-4.5874,-4.5924,-4.6024,-4.6276,-4.6301,-4.6301,-4.6301,-4.6301,-4.6301,-4.6301,-4.6301,-4.6301,-4.6301,-4.6301,-4.6301,-4.6301,-4.6301,-4.6301,-4.6301,-4.6301,-4.6301,-4.0027,-3.9136,-3.8266,-3.9421,-3.9697,-3.9697,-3.9697,-3.9697,-3.9697,-3.9697,-3.9697,-3.9697,-3.9697,-3.9645,-3.9594,-3.9594,-3.9542,-3.949,-3.949,-4.0467,-4.1168,-4.1139,-4.2143,-4.2849,-4.2849,-4.325,-4.3783,-4.4392,-4.4844,-4.5397,-4.6075,-4.6125,-4.6175,-4.6301,-4.5635,-4.5331,-4.5331,-4.4656,-4.4285,-4.4285,-4.4285,-4.4285,-4.4285,-4.4285,-4.4409,-4.4656,-4.4409,-4.4398,-4.4389,-4.3265,-4.2866,-4.2826,-4.188,-4.1745,-4.211,-4.2425,-4.2681,-4.2986,-4.2986,-4.2986,-4.3062,-4.3614,-4.389,-4.4192,-4.5171,-4.5573,-4.5773,-4.62,-4.5698,-4.502,-4.502,-4.502,-4.502,-4.502,-4.502,-4.502,-4.502,-4.492,-4.4819,-4.4819,-4.4719,-4.4669,-4.4794,-4.4819,-4.4869,-4.4995,-4.502,-4.5171,-4.5623,-4.5673,-4.5849,-4.6276,-4.6301,-4.6301,-4.6301,-4.6301,-4.6301,-4.6301,-4.6301,-4.6301,-4.6301,-4.6301,-4.6301,-4.6301,-4.6301,-4.6301,-4.6301,-4.6301,-4.6301,-4.6301,-4.6301,-4.6301,-3.8393,-3.8114,-3.8266,-3.9421,-3.9697,-3.9697,-3.9697,-3.9697,-3.9697,-3.9697,-3.9697,-3.9697,-3.9697,-3.949,-3.931,-3.931,-3.905,-3.8841,-3.8841,-4.0042,-4.0844,-4.0597,-4.17,-4.2513,-4.2513,-4.2562,-4.2924,-4.3815,-4.389,-4.4392,-4.5497,-4.5547,-4.5773,-4.6301,-4.5635,-4.5331,-4.5331,-4.4656,-4.4285,-4.4285,-4.4285,-4.4285,-4.4285,-4.4285,-4.4285,-4.4347,-4.4285,-4.4058,-4.3529,-4.3036,-4.253,-4.2024,-4.1446,-4.1598,-4.211,-4.2425,-4.2681,-4.2986,-4.2986,-4.2986,-4.3062,-4.3614,-4.4141,-4.4669,-4.5296,-4.5849,-4.625,-4.6301,-4.625,-4.62,-4.62,-4.62,-4.62,-4.62,-4.62,-4.62,-4.62,-4.5799,-4.5422,-4.5422,-4.4995,-4.4794,-4.5321,-4.5422,-4.5598,-4.61,-4.62,-4.62,-4.625,-4.625,-4.6276,-4.6301,-4.6301,-4.6301,-4.6301,-4.6301,-4.6301,-4.6301,-4.6301,-4.6301,-4.6301,-4.6301,-4.6301,-4.6301,-4.6301,-4.6301,-4.6301,-4.6301,-4.6301,-4.6301,-4.6301,-4.6301,-3.8752,-3.8407,-3.8266,-3.9421,-3.9697,-3.9697,-3.9697,-3.9594,-3.949,-3.9645,-3.9413,-3.9206,-3.9413,-3.9206,-3.905,-3.9258,-3.8998,-3.8911,-3.923,-4.005,-4.072,-4.0955,-4.1755,-4.2312,-4.2457,-4.2513,-4.2874,-4.3765,-4.379,-4.4141,-4.492,-4.5119,-4.5276,-4.55,-4.5159,-4.4963,-4.4963,-4.4532,-4.4285,-4.4285,-4.4285,-4.4285,-4.4285,-4.4285,-4.4285,-4.4285,-4.4285,-4.4034,-4.3481,-4.2976,-4.2506,-4.1976,-4.1389,-4.1459,-4.1859,-4.2142,-4.2425,-4.2737,-4.293,-4.2986,-4.3112,-4.4016,-4.4443,-4.4794,-4.5723,-4.615,-4.6301,-4.6301,-4.6301,-4.6301,-4.6301,-4.6301,-4.6301,-4.6301,-4.6301,-4.6301,-4.6301,-4.615,-4.5999,-4.5999,-4.5824,-4.5748,-4.5974,-4.5999,-4.6075,-4.6276,-4.6301,-4.6301,-4.6301,-4.6301,-4.6301,-4.6301,-4.6301,-4.6301,-4.6301,-4.6301,-4.6301,-4.6301,-4.6301,-4.6301,-4.6301,-4.6301,-4.6301,-4.6301,-4.6301,-4.6301,-4.6301,-4.6301,-4.6301,-4.6301,-4.6301,-4.6301,-3.8803,-3.8657,-3.8517,-3.9446,-3.9697,-3.9697,-3.9594,-3.9413,-3.931,-3.9413,-3.9154,-3.8998,-3.9102,-3.8945,-3.8841,-3.8998,-3.8736,-3.8721,-3.9258,-3.9927,-4.052,-4.0947,-4.1541,-4.2029,-4.2174,-4.2287,-4.263,-4.3344,-4.3482,-4.379,-4.4342,-4.4452,-4.4575,-4.4749,-4.4437,-4.433,-4.433,-4.4109,-4.4021,-4.4021,-4.4213,-4.4285,-4.4285,-4.4285,-4.4285,-4.4285,-4.4093,-4.377,-4.3241,-4.2711,-4.2265,-4.1677,-4.1317,-4.1344,-4.1663,-4.1972,-4.2199,-4.2425,-4.2874,-4.293,-4.305,-4.4209,-4.4618,-4.4844,-4.5974,-4.6301,-4.6301,-4.6301,-4.6301,-4.6301,-4.6301,-4.6301,-4.6301,-4.6301,-4.6301,-4.6301,-4.6301,-4.6301,-4.6301,-4.6301,-4.6301,-4.6301,-4.6301,-4.6301,-4.6301,-4.6301,-4.6301,-4.6301,-4.6301,-4.6301,-4.6301,-4.6301,-4.6301,-4.6301,-4.6301,-4.6301,-4.6301,-4.6301,-4.6301,-4.6301,-4.6301,-4.6301,-4.6301,-4.6301,-4.6301,-4.6301,-4.6301,-4.6301,-4.6301,-4.6301,-4.6301,-4.6301,-3.8084,-3.8442,-3.9045,-3.9546,-3.9697,-3.9645,-3.9362,-3.931,-3.9206,-3.8841,-3.905,-3.9206,-3.8841,-3.8788,-3.8736,-3.8473,-3.8185,-3.819,-3.8743,-3.9467,-4.011,-4.0387,-4.112,-4.1606,-4.1606,-4.1915,-4.2199,-4.2457,-4.2793,-4.3212,-4.3765,-4.3529,-4.3631,-4.4178,-4.3566,-4.3187,-4.3187,-4.3361,-4.3505,-4.3505,-4.3997,-4.4285,-4.4285,-4.4285,-4.4285,-4.4237,-4.3746,-4.3216,-4.2771,-4.2182,-4.1653,-4.1172,-4.1172,-4.1344,-4.1663,-4.1972,-4.211,-4.2224,-4.2818,-4.2793,-4.2768,-4.4152,-4.4618,-4.4844,-4.5974,-4.6301,-4.6301,-4.6301,-4.6301,-4.6301,-4.6301,-4.6301,-4.6301,-4.6301,-4.6301,-4.6301,-4.6301,-4.6301,-4.6301,-4.6301,-4.6301,-4.6301,-4.6301,-4.6301,-4.6301,-4.6301,-4.6301,-4.6301,-4.6301,-4.6301,-4.6301,-4.6301,-4.6301,-4.6301,-4.6301,-4.6301,-4.6301,-4.6301,-4.6301,-4.6301,-4.6301,-4.6301,-4.6301,-4.6301,-4.6301,-4.6301,-4.6301,-4.6301,-4.6301,-4.6301,-4.6301,-4.6301,-3.7962,-3.8442,-3.9045,-3.9546,-3.9697,-3.9645,-3.9362,-3.931,-3.9154,-3.8631,-3.8579,-3.8631,-3.8526,-3.8368,-3.8262,-3.8368,-3.8185,-3.831,-3.9248,-3.9568,-4.0033,-4.0836,-4.1191,-4.1516,-4.1915,-4.2054,-4.2312,-4.2793,-4.2905,-4.2981,-4.2874,-4.2987,-4.3029,-4.2944,-4.2899,-4.2938,-4.2938,-4.2964,-4.2976,-4.2976,-4.3144,-4.3625,-4.4261,-4.3938,-4.377,-4.3721,-4.3216,-4.2687,-4.2217,-4.1629,-4.1317,-4.1172,-4.1172,-4.123,-4.1402,-4.194,-4.211,-4.2224,-4.2818,-4.2905,-4.305,-4.4209,-4.4618,-4.4844,-4.5974,-4.6301,-4.6301,-4.6301,-4.6301,-4.6301,-4.6301,-4.6301,-4.6301,-4.6301,-4.6301,-4.6301,-4.6301,-4.6301,-4.6301,-4.6301,-4.6301,-4.6301,-4.6301,-4.6301,-4.6301,-4.6301,-4.6301,-4.6301,-4.6301,-4.6301,-4.6301,-4.6301,-4.6301,-4.6301,-4.6301,-4.6301,-4.6301,-4.6301,-4.6301,-4.6301,-4.6301,-4.6301,-4.6301,-4.6301,-4.6301,-4.6301,-4.6301,-4.6301,-4.6301,-4.6301,-4.6301,-4.6301,-3.8191,-3.8768,-3.927,-3.9622,-3.9697,-3.9645,-3.9362,-3.9102,-3.8788,-3.8344,-3.8315,-3.8368,-3.8238,-3.8185,-3.821,-3.8262,-3.808,-3.8359,-3.9465,-3.9609,-3.9994,-4.1052,-4.1172,-4.1344,-4.1859,-4.2054,-4.2312,-4.2762,-4.2818,-4.2681,-4.2513,-4.2438,-4.2266,-4.2093,-4.2117,-4.2134,-4.2134,-4.241,-4.2506,-4.2506,-4.2723,-4.3096,-4.3697,-4.3361,-4.3216,-4.3192,-4.2723,-4.2217,-4.1629,-4.1317,-4.1172,-4.1172,-4.1172,-4.1172,-4.1287,-4.1883,-4.2054,-4.2029,-4.2762,-4.3081,-4.3294,-4.4285,-4.4769,-4.5146,-4.6024,-4.6301,-4.6301,-4.6301,-4.6301,-4.6301,-4.6301,-4.6301,-4.6301,-4.6301,-4.6301,-4.6301,-4.6301,-4.6301,-4.6301,-4.6301,-4.6301,-4.6301,-4.6301,-4.6301,-4.6301,-4.6301,-4.6301,-4.6301,-4.6301,-4.6301,-4.6301,-4.6301,-4.6301,-4.6301,-4.6301,-4.6301,-4.6301,-4.6301,-4.6301,-4.6301,-4.6301,-4.6301,-4.6301,-4.6301,-4.6301,-4.6301,-4.6301,-4.6301,-4.6301,-4.6301,-4.6301,-4.6301,-3.8718,-3.927,-3.9697,-3.9697,-3.9697,-3.9645,-3.931,-3.8841,-3.8368,-3.808,-3.8185,-3.8291,-3.8027,-3.8185,-3.8315,-3.8027,-3.7974,-3.8359,-3.9465,-3.9609,-3.9994,-4.1052,-4.1172,-4.1344,-4.1606,-4.1915,-4.2199,-4.2457,-4.2513,-4.2457,-4.24,-4.1891,-4.1606,-4.1549,-4.1344,-4.1172,-4.1172,-4.1653,-4.1894,-4.1918,-4.2458,-4.2675,-4.2675,-4.2723,-4.2723,-4.2651,-4.2169,-4.1629,-4.1172,-4.1172,-4.1172,-4.1172,-4.1172,-4.1172,-4.1254,-4.1802,-4.1859,-4.172,-4.2625,-4.3112,-4.3514,-4.4327,-4.502,-4.5598,-4.615,-4.6301,-4.6301,-4.6301,-4.6301,-4.6301,-4.6301,-4.6301,-4.6301,-4.6301,-4.6301,-4.6301,-4.6301,-4.6301,-4.6301,-4.6301,-4.6301,-4.6301,-4.6301,-4.6301,-4.6301,-4.6301,-4.6301,-4.6301,-4.6301,-4.6301,-4.6301,-4.6301,-4.6301,-4.6301,-4.6301,-4.6301,-4.6301,-4.6301,-4.6301,-4.6301,-4.6301,-4.6301,-4.6301,-4.6301,-4.6301,-4.6301,-4.6301,-4.6301,-4.6301,-4.6301,-4.6301,-4.6301,-3.8718,-3.927,-3.9697,-3.9697,-3.9697,-3.9542,-3.905,-3.8788,-3.8631,-3.8368,-3.821,-3.808,-3.8027,-3.8027,-3.808,-3.8027,-3.7974,-3.8359,-3.9465,-3.9609,-3.9994,-4.1052,-4.1172,-4.1402,-4.1915,-4.2054,-4.2199,-4.2457,-4.2513,-4.2287,-4.1834,-4.1663,-4.1492,-4.1287,-4.123,-4.1172,-4.1172,-4.1293,-4.1365,-4.1365,-4.1461,-4.1533,-4.1533,-4.1966,-4.1918,-4.1509,-4.1413,-4.1293,-4.1172,-4.1172,-4.1172,-4.1172,-4.1172,-4.1172,-4.123,-4.1549,-4.1663,-4.172,-4.2344,-4.2967,-4.3514,-4.4327,-4.502,-4.5598,-4.615,-4.6301,-4.6301,-4.6301,-4.6301,-4.6301,-4.6301,-4.6301,-4.6301,-4.6301,-4.6301,-4.6301,-4.6301,-4.6301,-4.6301,-4.6301,-4.6301,-4.6301,-4.6301,-4.6301,-4.6301,-4.6301,-4.6301,-4.6301,-4.6301,-4.6301,-4.6301,-4.6301,-4.6301,-4.6301,-4.6301,-4.6301,-4.6301,-4.6301,-4.6301,-4.6301,-4.6301,-4.6301,-4.6301,-4.6301,-4.6301,-4.6301,-4.6301,-4.6301,-4.6301,-4.6301,-4.6301,-4.6301,-3.912,-3.9471,-3.9697,-3.9697,-3.9697,-3.9594,-3.9154,-3.905,-3.8945,-3.8473,-3.821,-3.7974,-3.7974,-3.7974,-3.7974,-3.7974,-3.7974,-3.8262,-3.9104,-3.9441,-3.9898,-4.0715,-4.1028,-4.1344,-4.1802,-4.1859,-4.1972,-4.2312,-4.2174,-4.1948,-4.1606,-4.1492,-4.1344,-4.1172,-4.1172,-4.1172,-4.1172,-4.1172,-4.1172,-4.1172,-4.1172,-4.1172,-4.1196,-4.1461,-4.1437,-4.1172,-4.1172,-4.1172,-4.1172,-4.1172,-4.1172,-4.1172,-4.1172,-4.1172,-4.123,-4.1492,-4.1606,-4.172,-4.2287,-4.3059,-4.3863,-4.4427,-4.5196,-4.5924,-4.6225,-4.6301,-4.6301,-4.6301,-4.6301,-4.6301,-4.6301,-4.6301,-4.6301,-4.6301,-4.6301,-4.6301,-4.6301,-4.6301,-4.6301,-4.6301,-4.6301,-4.6301,-4.6301,-4.6301,-4.6301,-4.6301,-4.6301,-4.6301,-4.6301,-4.6301,-4.6301,-4.6301,-4.6301,-4.6301,-4.6301,-4.6301,-4.6301,-4.6301,-4.6301,-4.6301,-4.6301,-4.6301,-4.6301,-4.6301,-4.6301,-4.6301,-4.6301,-4.6301,-4.6301,-4.6301,-4.6301,-4.6301,-3.9546,-3.9697,-3.9697,-3.9697,-3.9697,-3.9645,-3.9362,-3.931,-3.9154,-3.8526,-3.8185,-3.8027,-3.8027,-3.7974,-3.7974,-3.7974,-3.7974,-3.819,-3.8743,-3.9272,-3.9801,-4.0331,-4.086,-4.1287,-4.1549,-4.1606,-4.172,-4.1972,-4.1745,-4.1606,-4.1549,-4.1344,-4.1172,-4.1172,-4.1172,-4.1172,-4.1172,-4.1172,-4.1172,-4.1172,-4.1172,-4.1172,-4.1172,-4.1172,-4.1172,-4.1172,-4.1172,-4.1172,-4.1172,-4.1172,-4.1172,-4.1172,-4.1172,-4.1172,-4.123,-4.1435,-4.1549,-4.1663,-4.2354,-4.3275,-4.4261,-4.4627,-4.5472,-4.6301,-4.6301,-4.6301,-4.6301,-4.6301,-4.6301,-4.6301,-4.6301,-4.6301,-4.6301,-4.6301,-4.6301,-4.6301,-4.6301,-4.6301,-4.6301,-4.6301,-4.6301,-4.6301,-4.6301,-4.6301,-4.6301,-4.6301,-4.6301,-4.6301,-4.6301,-4.6301,-4.6301,-4.6301,-4.6301,-4.6301,-4.6301,-4.6301,-4.6301,-4.6301,-4.6301,-4.6301,-4.6301,-4.6301,-4.6301,-4.6301,-4.6301,-4.6301,-4.6301,-4.6301,-4.6301,-4.6301,-4.6301,-4.6301,-3.9546,-3.9697,-3.9697,-3.9697,-3.9697,-3.9645,-3.9362,-3.931,-3.9154,-3.8526,-3.8368,-3.8315,-3.8027,-3.7974,-3.7974,-3.7974,-3.7974,-3.819,-3.8743,-3.9272,-3.9801,-4.0331,-4.086,-4.1287,-4.1549,-4.1606,-4.1606,-4.1663,-4.1606,-4.1492,-4.1287,-4.123,-4.1172,-4.1172,-4.1172,-4.1172,-4.1172,-4.1172,-4.1172,-4.1172,-4.1172,-4.1172,-4.1172,-4.1172,-4.1172,-4.1172,-4.1172,-4.1172,-4.1172,-4.1172,-4.1172,-4.1172,-4.1172,-4.1172,-4.1172,-4.123,-4.1402,-4.1736,-4.2569,-4.3424,-4.4335,-4.5103,-4.5799,-4.6301,-4.6301,-4.6301,-4.6301,-4.6301,-4.6301,-4.6301,-4.6301,-4.6301,-4.6301,-4.6301,-4.6301,-4.6301,-4.6301,-4.6301,-4.6301,-4.6301,-4.6301,-4.6301,-4.6301,-4.6301,-4.6301,-4.6301,-4.6301,-4.6301,-4.6301,-4.6301,-4.6301,-4.6301,-4.6301,-4.6301,-4.6301,-4.6301,-4.6301,-4.6301,-4.6301,-4.6301,-4.6301,-4.6301,-4.6301,-4.6301,-4.6301,-4.6301,-4.6301,-4.6301,-4.6301,-4.6301,-4.6301,-4.6301,-3.9622,-3.9697,-3.9697,-3.9697,-3.9697,-3.9697,-3.9542,-3.9517,-3.9413,-3.8998,-3.8736,-3.8526,-3.808,-3.7974,-3.7974,-3.7974,-3.7974,-3.807,-3.831,-3.8815,-3.9369,-3.9898,-4.0427,-4.0917,-4.132,-4.1402,-4.1402,-4.1402,-4.1402,-4.1344,-4.1172,-4.1172,-4.1172,-4.1172,-4.1172,-4.1172,-4.1172,-4.1172,-4.1172,-4.1172,-4.1172,-4.1172,-4.1172,-4.1172,-4.1172,-4.1172,-4.1172,-4.1172,-4.1172,-4.1172,-4.1172,-4.1172,-4.1172,-4.1172,-4.1172,-4.1172,-4.1402,-4.1736,-4.261,-4.3498,-4.4335,-4.5237,-4.5849,-4.6301,-4.6301,-4.6301,-4.6301,-4.6301,-4.6301,-4.6301,-4.6301,-4.6301,-4.6301,-4.6301,-4.6301,-4.6301,-4.6301,-4.6301,-4.6301,-4.6301,-4.6301,-4.6301,-4.6301,-4.6301,-4.6301,-4.6301,-4.6301,-4.6301,-4.6301,-4.6301,-4.6301,-4.6301,-4.6301,-4.6301,-4.6301,-4.6301,-4.6301,-4.6301,-4.6301,-4.6301,-4.6301,-4.6301,-4.6301,-4.6301,-4.6301,-4.6301,-4.6301,-4.6301,-4.6301,-4.6301,-4.6301,-4.6301,-3.9697,-3.9697,-3.9697,-3.9697,-3.9697,-3.9697,-3.9697,-3.9697,-3.9645,-3.9362,-3.905,-3.8684,-3.821,-3.8051,-3.7974,-3.7974,-3.7974,-3.7974,-3.7974,-3.8455,-3.9008,-3.9537,-4.0066,-4.0652,-4.1239,-4.1287,-4.1344,-4.1426,-4.1344,-4.1287,-4.1287,-4.123,-4.1172,-4.1172,-4.1172,-4.1172,-4.1172,-4.1172,-4.1172,-4.1172,-4.1172,-4.1172,-4.1172,-4.1172,-4.1172,-4.1172,-4.1172,-4.1172,-4.1172,-4.1172,-4.1172,-4.1172,-4.1172,-4.1172,-4.1172,-4.1287,-4.1589,-4.207,-4.2922,-4.3813,-4.4677,-4.5463,-4.5974,-4.6301,-4.6301,-4.6301,-4.6301,-4.6301,-4.6301,-4.6301,-4.6301,-4.6301,-4.6301,-4.6301,-4.6301,-4.6301,-4.6301,-4.6301,-4.6301,-4.6301,-4.6301,-4.6301,-4.6301,-4.6301,-4.6301,-4.6301,-4.6301,-4.6301,-4.6301,-4.6301,-4.6301,-4.6301,-4.6301,-4.6301,-4.6301,-4.6301,-4.6301,-4.6301,-4.6301,-4.6301,-4.6301,-4.6301,-4.6301,-4.6301,-4.6301,-4.6301,-4.6301,-4.6301,-4.6301,-4.6301,-4.6301,-4.6301,-3.9697,-3.9697,-3.9697,-3.9697,-3.9697,-3.9697,-3.9697,-3.9697,-3.9645,-3.9362,-3.905,-3.8736,-3.8421,-3.8185,-3.7974,-3.7974,-3.7974,-3.7974,-3.7974,-3.8455,-3.9008,-3.9537,-4.0066,-4.0708,-4.1501,-4.1606,-4.172,-4.2054,-4.1745,-4.1606,-4.1606,-4.1344,-4.1172,-4.1172,-4.1172,-4.1172,-4.1172,-4.1172,-4.1172,-4.1172,-4.1172,-4.1172,-4.1172,-4.1172,-4.1172,-4.1172,-4.1172,-4.1172,-4.1172,-4.1172,-4.1172,-4.1172,-4.1172,-4.1172,-4.123,-4.1492,-4.2119,-4.2946,-4.3837,-4.4677,-4.5547,-4.6075,-4.6276,-4.6301,-4.6301,-4.6301,-4.6301,-4.6301,-4.6301,-4.6301,-4.6301,-4.6301,-4.6301,-4.6301,-4.6301,-4.6301,-4.6301,-4.6301,-4.6301,-4.6301,-4.6301,-4.6301,-4.6301,-4.6301,-4.6301,-4.6301,-4.6301,-4.6301,-4.6301,-4.6301,-4.6301,-4.6301,-4.6301,-4.6301,-4.6301,-4.6301,-4.6301,-4.6301,-4.6301,-4.6301,-4.6301,-4.6301,-4.6301,-4.6301,-4.6301,-4.6301,-4.6301,-4.6301,-4.6301,-4.6301,-4.6301,-4.6301,-3.9697,-3.9697,-3.9697,-3.9697,-3.9697,-3.9697,-3.9697,-3.9697,-3.9697,-3.9594,-3.931,-3.9102,-3.8998,-3.8449,-3.7974,-3.7974,-3.7974,-3.7974,-3.7974,-3.8166,-3.8479,-3.9032,-3.9561,-4.0146,-4.0789,-4.1127,-4.1459,-4.1745,-4.1663,-4.1663,-4.1915,-4.1631,-4.1435,-4.1435,-4.1287,-4.1172,-4.1172,-4.1172,-4.1172,-4.1172,-4.1172,-4.1172,-4.1172,-4.1172,-4.1172,-4.1172,-4.1172,-4.1172,-4.1172,-4.1172,-4.1172,-4.1172,-4.1172,-4.1172,-4.1278,-4.1962,-4.2494,-4.3102,-4.4284,-4.5085,-4.5573,-4.6125,-4.6301,-4.6301,-4.6301,-4.6301,-4.6301,-4.6301,-4.6301,-4.6301,-4.6301,-4.6301,-4.6301,-4.6301,-4.6301,-4.6301,-4.6301,-4.6301,-4.6301,-4.6301,-4.6301,-4.6301,-4.6301,-4.6301,-4.6301,-4.6301,-4.6301,-4.6301,-4.6301,-4.6301,-4.6301,-4.6301,-4.6301,-4.6301,-4.6301,-4.6301,-4.6301,-4.6301,-4.6301,-4.6301,-4.6301,-4.6301,-4.6301,-4.6301,-4.6301,-4.6301,-4.6301,-4.6301,-4.6301,-4.6301,-4.6301,-4.6301,-3.9697,-3.9697,-3.9697,-3.9697,-3.9697,-3.9697,-3.9697,-3.9697,-3.9697,-3.9697,-3.949,-3.931,-3.931,-3.8684,-3.8133,-3.8133,-3.8027,-3.7974,-3.7974,-3.7974,-3.819,-3.8743,-3.9128,-3.9664,-4.0475,-4.0942,-4.1436,-4.1866,-4.1891,-4.2004,-4.2199,-4.1972,-4.172,-4.1606,-4.1435,-4.1287,-4.1172,-4.1172,-4.1172,-4.1172,-4.1172,-4.1172,-4.1172,-4.1172,-4.1172,-4.1172,-4.1172,-4.1172,-4.1172,-4.1172,-4.1172,-4.1172,-4.1172,-4.1408,-4.1716,-4.2369,-4.3085,-4.3736,-4.4808,-4.542,-4.5824,-4.62,-4.6301,-4.6301,-4.6301,-4.6301,-4.6301,-4.6301,-4.6301,-4.6301,-4.6301,-4.6301,-4.6301,-4.6301,-4.6301,-4.6301,-4.6301,-4.6301,-4.6301,-4.6301,-4.6301,-4.6301,-4.6301,-4.6301,-4.6301,-4.6301,-4.6301,-4.6301,-4.6301,-4.6301,-4.6301,-4.6301,-4.6301,-4.6301,-4.6301,-4.6301,-4.6301,-4.6301,-4.6301,-4.6301,-4.6301,-4.6301,-4.6301,-4.6301,-4.6301,-4.6301,-4.6301,-4.6301,-4.6301,-4.6301,-4.6301,-4.6301,0.0,0.0,0.0,-3.9697,-3.9697,-3.9697,-3.9697,-3.9697,-3.9697,-3.9697,-3.949,-3.931,-3.931,-3.8841,-3.8421,-3.8421,-3.821,-3.7974,-3.7974,-3.7974,-3.819,-3.8719,-3.8815,-3.931,-4.0658,-4.1083,-4.1632,-4.2407,-4.2513,-4.2513,-4.2513,-4.2256,-4.1972,-4.1606,-4.1606,-4.1492,-4.1172,-4.1172,-4.1172,-4.1172,-4.1172,-4.1172,-4.1172,-4.1172,-4.1172,-4.1172,-4.1172,-4.1172,-4.1172,-4.1172,-4.1172,-4.1172,-4.1254,-4.1765,-4.2549,-4.283,-4.3811,-4.5057,-4.5379,-4.5874,-4.6301,-4.6301,-4.6301,-4.6301,-4.6301,-4.6301,-4.6301,-4.6301,-4.6301,-4.6301,-4.6301,-4.6301,-4.6301,-4.6301,-4.6301,-4.6301,-4.6301,-4.6301,-4.6301,-4.6301,-4.6301,-4.6301,-4.6301,-4.6301,-4.6301,-4.6301,-4.6301,-4.6301,-4.6301,-4.6301,-4.6301,-4.6301,-4.6301,-4.6301,-4.6301,-4.6301,-4.6301,-4.6301,-4.6301,-4.6301,-4.6301,-4.6301,-4.6301,-4.6301,-4.6301,-4.6301,-4.6301,-4.6301,-4.6301,-4.6301,-4.6301,-4.6301,-3.9697,0.0,0.0,0.0,0.0,0.0,-3.9697,-3.9697,-3.9697,-3.9697,-3.9645,-3.9594,-3.9594,-3.9258,-3.905,-3.905,-3.8473,-3.7974,-3.7974,-3.7974,-3.8152,-3.8456,-3.8819,-3.9345,-3.9908,-4.0777,-4.146,-4.1861,-4.2289,-4.2594,-4.2874,-4.2594,-4.2256,-4.1972,-4.1972,-4.1802,-4.1492,-4.1492,-4.1402,-4.1172,-4.1172,-4.1172,-4.1172,-4.1172,-4.1172,-4.1172,-4.1172,-4.1172,-4.1172,-4.1172,-4.1172,-4.1278,-4.1895,-4.2311,-4.2647,-4.3959,-4.469,-4.5132,-4.583,-4.6175,-4.6301,-4.6301,-4.6301,-4.6301,-4.6301,-4.6301,-4.6301,-4.6301,-4.6301,-4.6301,-4.6301,-4.6301,-4.6301,-4.6301,-4.6301,-4.6301,-4.6301,-4.6301,-4.6301,-4.6301,-4.6301,-4.6301,-4.6301,-4.6301,-4.6301,-4.6301,-4.6301,-4.6301,-4.6301,-4.6301,-4.6301,-4.6301,-4.6301,-4.6301,-4.6301,-4.6301,-4.6301,-4.6301,-4.6301,-4.6301,-4.6301,-4.6301,-4.6301,-4.6301,-4.6301,-4.6301,-4.6301,-4.6301,-4.6301,-4.6301,-4.6301,-4.6301,-3.9697,-3.9697,-3.9697,-3.9697,0.0,0.0,-3.9697,-3.9697,-3.9697,-3.9697,-3.9697,-3.9697,-3.9697,-3.9465,-3.931,-3.931,-3.8788,-3.8291,-3.8185,-3.8238,-3.8315,-3.8262,-3.8688,-3.9116,-3.9414,-4.0272,-4.1057,-4.1668,-4.2127,-4.2568,-4.2961,-4.2793,-4.2594,-4.2256,-4.2256,-4.2142,-4.1802,-4.1802,-4.1688,-4.1402,-4.1402,-4.1287,-4.1172,-4.1172,-4.1172,-4.1172,-4.1172,-4.1172,-4.1172,-4.1344,-4.1402,-4.145,-4.2214,-4.2812,-4.3339,-4.4556,-4.5206,-4.5635,-4.614,-4.6301,-4.6301,-4.6301,-4.6301,-4.6301,-4.6301,-4.6301,-4.6301,-4.6301,-4.6301,-4.6301,-4.6301,-4.6301,-4.6301,-4.6301,-4.6301,-4.6301,-4.6301,-4.6301,-4.6301,-4.6301,-4.6301,-4.6301,-4.6301,-4.6301,-4.6301,-4.6301,-4.6301,-4.6301,-4.6301,-4.6301,-4.6301,-4.6301,-4.6301,-4.6301,-4.6301,-4.6301,-4.6301,-4.6301,-4.6301,-4.6301,-4.6301,-4.6301,-4.6301,-4.6301,-4.6301,-4.6301,-4.6301,-4.6301,-4.6301,-4.6301,-4.6301,-4.6301,-3.9697,-3.9697,-3.9697,-3.9697,-3.9697,0.0,-3.9697,-3.9697,-3.9697,-3.9697,-3.9697,-3.9697,-3.9697,-3.9542,-3.931,-3.931,-3.9102,-3.8788,-3.8473,-3.8631,-3.8631,-3.8185,-3.8579,-3.8985,-3.9238,-3.9763,-4.0529,-4.1499,-4.1973,-4.2439,-4.2936,-4.2986,-4.2874,-4.2569,-4.2594,-4.2425,-4.2167,-4.2167,-4.1972,-4.1663,-4.1663,-4.1492,-4.123,-4.1287,-4.1287,-4.123,-4.1287,-4.1287,-4.1287,-4.1549,-4.1688,-4.1752,-4.2427,-4.3315,-4.4351,-4.4957,-4.5635,-4.6301,-4.6301,-4.6301,-4.6301,-4.6301,-4.6301,-4.6301,-4.6301,-4.6301,-4.6301,-4.6301,-4.6301,-4.6301,-4.6301,-4.6301,-4.6301,-4.6301,-4.6301,-4.6301,-4.6301,-4.6301,-4.6301,-4.6301,-4.6301,-4.6301,-4.6301,-4.6301,-4.6301,-4.6301,-4.6301,-4.6301,-4.6301,-4.6301,-4.6301,-4.6301,-4.6301,-4.6301,-4.6301,-4.6301,-4.6301,-4.6301,-4.6301,-4.6301,-4.6301,-4.6301,-4.6301,-4.6301,-4.6301,-4.6301,-4.6301,-4.6301,-4.6301,-4.6301,-4.6301,-4.6301,-3.9697,-3.9697,-3.9697,-3.9697,-3.9697,0.0,-3.9697,-3.9697,-3.9697,-3.9697,-3.9697,-3.9697,-3.9697,-3.9645,-3.9645,-3.9645,-3.9594,-3.931,-3.8788,-3.8788,-3.8841,-3.905,-3.9154,-3.9308,-3.9588,-4.0092,-4.0495,-4.0721,-4.1656,-4.2439,-4.2936,-4.2986,-4.2986,-4.293,-4.293,-4.2762,-4.2425,-4.2425,-4.2256,-4.1972,-4.1972,-4.1859,-4.1549,-4.1802,-4.1802,-4.1549,-4.1802,-4.1745,-4.1549,-4.1859,-4.2127,-4.2452,-4.3456,-4.4259,-4.4923,-4.577,-4.6165,-4.6301,-4.6301,-4.6301,-4.6301,-4.6301,-4.6301,-4.6301,-4.6301,-4.6301,-4.6301,-4.6301,-4.6301,-4.6301,-4.6301,-4.6301,-4.6301,-4.6301,-4.6301,-4.6301,-4.6301,-4.6301,-4.6301,-4.6301,-4.6301,-4.6301,-4.6301,-4.6301,-4.6301,-4.6301,-4.6301,-4.6301,-4.6301,-4.6301,-4.6301,-4.6301,-4.6301,-4.6301,-4.6301,-4.6301,-4.6301,-4.6301,-4.6301,-4.6301,-4.6301,-4.6301,-4.6301,-4.6301,-4.6301,-4.6301,-4.6301,-4.6301,-4.6301,-4.6301,-4.6301,-4.6301,-3.9697,-3.9697,-3.9697,-3.9697,-3.9697,0.0,0.0,-3.9697,-3.9697,-3.9697,-3.9697,-3.9697,-3.9697,-3.9697,-3.9697,-3.9697,-3.9697,-3.9594,-3.9258,-3.9258,-3.9206,-3.905,-3.931,-3.949,-3.949,-3.9896,-4.0325,-4.0824,-4.1681,-4.2439,-4.2936,-4.2986,-4.2986,-4.2986,-4.2986,-4.293,-4.2737,-4.2737,-4.2594,-4.2312,-4.2312,-4.2142,-4.1859,-4.2054,-4.1997,-4.1859,-4.2029,-4.1972,-4.1883,-4.2495,-4.2996,-4.3398,-4.3961,-4.4643,-4.531,-4.604,-4.6301,-4.6301,-4.6301,-4.6301,-4.6301,-4.6301,-4.6301,-4.6301,-4.6301,-4.6301,-4.6301,-4.6301,-4.6301,-4.6301,-4.6301,-4.6301,-4.6301,-4.6301,-4.6301,-4.6301,-4.6301,-4.6301,-4.6301,-4.6301,-4.6301,-4.6301,-4.6301,-4.6301,-4.6301,-4.6301,-4.6301,-4.6301,-4.6301,-4.6301,-4.6301,-4.6301,-4.6301,-4.6301,-4.6301,-4.6301,-4.6301,-4.6301,-4.6301,-4.6301,-4.6301,-4.6301,-4.6301,-4.6301,-4.6301,-4.6301,-4.6301,-4.6301,-4.6301,-4.6301,-4.6301,-4.6301,-3.9697,-3.9697,-3.9697,-3.9697,-3.9697,-3.9697,0.0,0.0,0.0,-3.9697,-3.9697,-3.9697,-3.9697,-3.9697,-3.9697,-3.9697,-3.9697,-3.9697,-3.9697,-3.9697,-3.9542,-3.905,-3.9413,-3.9645,-3.9413,-3.9594,-4.0099,-4.105,-4.1681,-4.2288,-4.2841,-4.2911,-4.2986,-4.2986,-4.2986,-4.2986,-4.2986,-4.2986,-4.2874,-4.2569,-4.2569,-4.2481,-4.2142,-4.2256,-4.2256,-4.2142,-4.228,-4.2224,-4.2248,-4.3134,-4.3763,-4.4202,-4.436,-4.491,-4.5698,-4.615,-4.6301,-4.6301,-4.6301,-4.6301,-4.6301,-4.6301,-4.6301,-4.6301,-4.6301,-4.6301,-4.6301,-4.6301,-4.6301,-4.6301,-4.6301,-4.6301,-4.6301,-4.6301,-4.6301,-4.6301,-4.6301,-4.6301,-4.6301,-4.6301,-4.6301,-4.6301,-4.6301,-4.6301,-4.6301,-4.6301,-4.6301,-4.6301,-4.6301,-4.6301,-4.6301,-4.6301,-4.6301,-4.6301,-4.6301,-4.6301,-4.6301,-4.6301,-4.6301,-4.6301,-4.6301,-4.6301,-4.6301,-4.6301,-4.6301,-4.6301,-4.6301,-4.6301,-4.6301,-4.6301,-4.6301,-4.6301,-3.9697,-3.9697,-3.9697,-3.9697,-3.9697,-3.9697,-3.9697,0.0,-3.9697,-3.9697,0.0,-3.9697,-3.9697,0.0,0.0,-3.9697,-3.9697,-3.9697,-3.9697,-3.9697,-3.9697,-3.9594,-3.9645,-3.9697,-3.9645,-3.9697,-3.9948,-4.0576,-4.1075,-4.1681,-4.2263,-4.271,-4.2986,-4.2986,-4.2986,-4.2986,-4.2986,-4.2986,-4.2986,-4.293,-4.293,-4.2762,-4.2457,-4.2762,-4.2762,-4.2457,-4.2762,-4.2762,-4.2506,-4.3419,-4.3911,-4.4311,-4.5019,-4.5723,-4.6225,-4.6276,-4.6301,-4.6301,-4.6301,-4.6301,-4.6301,-4.6301,-4.6301,-4.6301,-4.6301,-4.6301,-4.6301,-4.6301,-4.6301,-4.6301,-4.6301,-4.6301,-4.6301,-4.6301,-4.6301,-4.6301,-4.6301,-4.6301,-4.6301,-4.6301,-4.6301,-4.6301,-4.6301,-4.6301,-4.6301,-4.6301,-4.6301,-4.6301,-4.6301,-4.6301,-4.6301,-4.6301,-4.6301,-4.6301,-4.6301,-4.6301,-4.6301,-4.6301,-4.6301,-4.6301,-4.6301,-4.6301,-4.6301,-4.6301,-4.6301,-4.6301,-4.6301,-4.6301,-4.6301,-4.6301,-4.6301,-4.6301,-3.9697,-3.9697,-3.9697,-3.9697,-3.9697,-3.9697,-3.9697,-3.9697,-3.9697,-3.9697,0.0,0.0,0.0,0.0,0.0,0.0,-3.9697,-3.9697,-3.9697,-3.9697,-3.9697,-3.9697,-3.9697,-3.9697,-3.9697,-3.9697,-3.9923,-4.0475,-4.0727,-4.1229,-4.2162,-4.2439,-4.2715,-4.2961,-4.2986,-4.2986,-4.2986,-4.2986,-4.2986,-4.2986,-4.2986,-4.293,-4.2793,-4.293,-4.293,-4.2818,-4.293,-4.293,-4.2868,-4.3858,-4.4302,-4.4544,-4.5563,-4.61,-4.6301,-4.6301,-4.6301,-4.6301,-4.6301,-4.6301,-4.6301,-4.6301,-4.6301,-4.6301,-4.6301,-4.6301,-4.6301,-4.6301,-4.6301,-4.6301,-4.6301,-4.6301,-4.6301,-4.6301,-4.6301,-4.6301,-4.6301,-4.6301,-4.6301,-4.6301,-4.6301,-4.6301,-4.6301,-4.6301,-4.6301,-4.6301,-4.6301,-4.6301,-4.6301,-4.6301,-4.6301,-4.6301,-4.6301,-4.6301,-4.6301,-4.6301,-4.6301,-4.6301,-4.6301,-4.6301,-4.6301,-4.6301,-4.6301,-4.6301,-4.6301,-4.6301,-4.6301,-4.6301,-4.6301,-4.6301,-4.6301,-4.6301,-3.9697,-3.9697,-3.9697,-3.9697,-3.9697,-3.9697,-3.9697,-3.9697,-3.9697,-3.9697,-3.9697,0.0,0.0,0.0,0.0,0.0,0.0,-3.9697,-3.9697,-3.9697,-3.9697,-3.9697,-3.9697,-3.9697,-3.9697,-3.9697,-3.9848,-4.0249,-4.0425,-4.0927,-4.1882,-4.2137,-4.2464,-4.2961,-4.2986,-4.2986,-4.2986,-4.2986,-4.2986,-4.2986,-4.2986,-4.2986,-4.2986,-4.2986,-4.2986,-4.2986,-4.2986,-4.3062,-4.3263,-4.4242,-4.4719,-4.4945,-4.5924,-4.6301,-4.6301,-4.6301,-4.6301,-4.6301,-4.6301,-4.6301,-4.6301,-4.6301,-4.6301,-4.6301,-4.6301,-4.6301,-4.6301,-4.6301,-4.6301,-4.6301,-4.6301,-4.6301,-4.6301,-4.6301,-4.6301,-4.6301,-4.6301,-4.6301,-4.6301,-4.6301,-4.6301,-4.6301,-4.6301,-4.6301,-4.6301,-4.6301,-4.6301,-4.6301,-4.6301,-4.6301,-4.6301,-4.6301,-4.6301,-4.6301,-4.6301,-4.6301,-4.6301,-4.6301,-4.6301,-4.6301,-4.6301,-4.6301,-4.6301,-4.6301,-4.6301,-4.6301,-4.6301,-4.6301,-4.6301,-4.6301,-4.6301,-4.6301,-3.9697,-3.9697,-3.9697,-3.9697,-3.9697,-3.9697,-3.9697,-3.9697,-3.9697,-3.9697,-3.9697,-3.9697,-3.9697,0.0,0.0,0.0,0.0,0.0,0.0,-3.9697,-3.9697,-3.9697,-3.9697,-3.9697,-3.9697,-3.9697,-3.9697,-3.9722,-4.0224,-4.0752,-4.1275,-4.1856,-4.2464,-4.2961,-4.2986,-4.2986,-4.2986,-4.2986,-4.2986,-4.2986,-4.2986,-4.2986,-4.2986,-4.2986,-4.2986,-4.2986,-4.2986,-4.3288,-4.3815,-4.4392,-4.4945,-4.5522,-4.6075,-4.6301,-4.6301,-4.6301,-4.6301,-4.6301,-4.6301,-4.6301,-4.6301,-4.6301,-4.6301,-4.6301,-4.6301,-4.6301,-4.6301,-4.6301,-4.6301,-4.6301,-4.6301,-4.6301,-4.6301,-4.6301,-4.6301,-4.6301,-4.6301,-4.6301,-4.6301,-4.6301,-4.6301,-4.6301,-4.6301,-4.6301,-4.6301,-4.6301,-4.6301,-4.6301,-4.6301,-4.6301,-4.6301,-4.6301,-4.6301,-4.6301,-4.6301,-4.6301,-4.6301,-4.6301,-4.6301,-4.6301,-4.6301,-4.6301,-4.6301,-4.6301,-4.6301,-4.6301,-4.6301,-4.6301,-4.6301,-4.6301,-4.6301,-4.6301,-3.9697,-3.9697,-3.9697,-3.9697,-3.9697,-3.9697,-3.9697,-3.9697,-3.9697,-3.9697,-3.9697,-3.9697,-3.9697,0.0,0.0,0.0,0.0,0.0,0.0,-3.9697,-3.9697,-3.9697,-3.9697,-3.9697,-3.9697,-3.9697,-3.9697,-3.9697,-3.9873,-4.0199,-4.0752,-4.1304,-4.1856,-4.2464,-4.2785,-4.2986,-4.2986,-4.2986,-4.2986,-4.2986,-4.2986,-4.2986,-4.2986,-4.2986,-4.2986,-4.2986,-4.2986,-4.3288,-4.384,-4.4392,-4.497,-4.5547,-4.61,-4.6301,-4.6301,-4.6301,-4.6301,-4.6301,-4.6301,-4.6301,-4.6301,-4.6301,-4.6301,-4.6301,-4.6301,-4.6301,-4.6301,-4.6301,-4.6301,-4.6301,-4.6301,-4.6301,-4.6301,-4.6301,-4.6301,-4.6301,-4.6301,-4.6301,-4.6301,-4.6301,-4.6301,-4.6301,-4.6301,-4.6301,-4.6301,-4.6301,-4.6301,-4.6301,-4.6301,-4.6301,-4.6301,-4.6301,-4.6301,-4.6301,-4.6301,-4.6301,-4.6301,-4.6301,-4.6301,-4.6301,-4.6301,-4.6301,-4.6301,-4.6301,-4.6301,-4.6301,-4.6301,-4.6301,-4.6301,-4.6301,-4.6301,-4.6301,-3.9697,-3.9697,-3.9697,-3.9697,-3.9697,-3.9697,-3.9697,-3.9697,-3.9697,-3.9697,-3.9697,-3.9697,-3.9697,0.0,0.0,0.0,0.0,0.0,0.0,-3.9697,-3.9697,-3.9697,-3.9697,-3.9697,-3.9697,-3.9697,-3.9697,-3.9697,-3.9697,-3.9923,-4.0475,-4.1,-4.1605,-4.2187,-4.274,-4.2986,-4.2986,-4.2986,-4.2986,-4.2986,-4.2986,-4.2986,-4.2986,-4.2986,-4.2986,-4.2986,-4.3187,-4.3589,-4.4141,-4.4694,-4.5271,-4.5824,-4.6175,-4.6301,-4.6301,-4.6301,-4.6301,-4.6301,-4.6301,-4.6301,-4.6301,-4.6301,-4.6301,-4.6301,-4.6301,-4.6301,-4.6276,-4.6075,-4.615,-4.6276,-4.6075,-4.6175,-4.6301,-4.6301,-4.6301,-4.6301,-4.6301,-4.6301,-4.6301,-4.6301,-4.6301,-4.6301,-4.6301,-4.6301,-4.6301,-4.6301,-4.6301,-4.6301,-4.6301,-4.6301,-4.6301,-4.6301,-4.6301,-4.6301,-4.6301,-4.6301,-4.6301,-4.6301,-4.6301,-4.6301,-4.6301,-4.6301,-4.6476,-4.6878,-4.6502,-4.6502,-4.6878,-4.6502,-4.6301,-4.6301,-4.6301,-4.6301]},{"header":{"parameterUnit":"m.s-1","parameterCategory":1,"la1":30.6,"la2":29.2853,"lo1":-89.7004,"lo2":-87.6739,"dy":0.0162,"dx":0.0183,"nx":112,"ny":82,"refTime":"2024-04-03T00:00:00:Z","depth":0,"parameterNumber":3,"parameterNumberName":"V-component_of_WINDS"},"data":[0.0,0.0,0.0,0.0,0.0,0.0,0.0,0.0,0.0,0.0,0.0,0.0,0.0,0.0,0.0,0.0,0.0,0.0,0.0,0.0,0.0,0.0,0.0,0.0,0.0,0.0,0.0,0.0,0.0,0.0,0.0,0.0,0.0,0.0,0.0,0.0,0.0,0.0,0.0,0.0,0.0,0.0,0.0,0.0,0.0,0.0,0.0,0.0,0.0,0.0,0.0,0.0,0.0,0.0,0.0,0.0,0.0,0.0,0.0,0.0,0.0,0.0,0.0,0.0,0.0,0.0,0.0,0.0,0.0,0.0,0.0,0.0,0.0,0.0,0.0,0.0,0.0,0.0,0.0,0.0,0.0,0.0,0.0,0.0,0.0,0.0,0.0,0.0,0.0,0.0,3.4775,3.4775,3.4775,3.4775,3.4775,3.4775,3.4775,3.4775,0.0,0.0,0.0,0.0,0.0,0.0,0.0,0.0,0.0,0.0,0.0,0.0,0.0,0.0,0.0,0.0,0.0,0.0,0.0,0.0,0.0,0.0,0.0,0.0,0.0,0.0,0.0,0.0,0.0,0.0,0.0,0.0,0.0,0.0,0.0,0.0,0.0,0.0,0.0,0.0,0.0,0.0,0.0,0.0,0.0,0.0,0.0,0.0,0.0,0.0,0.0,0.0,0.0,0.0,0.0,0.0,0.0,0.0,0.0,0.0,0.0,0.0,0.0,0.0,0.0,0.0,0.0,0.0,0.0,0.0,0.0,0.0,0.0,0.0,0.0,0.0,0.0,0.0,0.0,0.0,0.0,0.0,0.0,0.0,0.0,0.0,0.0,0.0,0.0,0.0,0.0,0.0,0.0,0.0,0.0,0.0,0.0,0.0,0.0,0.0,0.0,0.0,0.0,0.0,3.4775,3.4775,3.4775,3.4775,3.4775,3.4775,3.4775,3.4775,0.0,0.0,0.0,0.0,0.0,0.0,0.0,0.0,0.0,0.0,0.0,0.0,0.0,0.0,0.0,0.0,0.0,0.0,0.0,0.0,0.0,0.0,0.0,0.0,0.0,0.0,0.0,0.0,0.0,0.0,0.0,0.0,0.0,0.0,0.0,0.0,0.0,0.0,0.0,0.0,0.0,0.0,0.0,0.0,0.0,0.0,0.0,0.0,0.0,0.0,0.0,0.0,0.0,0.0,0.0,0.0,0.0,0.0,0.0,0.0,0.0,0.0,0.0,0.0,0.0,0.0,0.0,0.0,0.0,0.0,0.0,0.0,0.0,0.0,0.0,0.0,0.0,0.0,0.0,0.0,0.0,0.0,0.0,0.0,0.0,0.0,0.0,0.0,0.0,0.0,0.0,0.0,0.0,0.0,0.0,0.0,0.0,0.0,0.0,0.0,0.0,0.0,0.0,3.5332,3.5211,3.5211,3.5211,3.5211,3.5211,3.5211,3.5163,3.5017,3.5017,0.0,0.0,0.0,0.0,0.0,0.0,0.0,0.0,0.0,0.0,0.0,0.0,0.0,0.0,0.0,0.0,0.0,0.0,0.0,0.0,0.0,0.0,0.0,0.0,0.0,0.0,0.0,0.0,0.0,0.0,0.0,0.0,0.0,0.0,0.0,0.0,0.0,0.0,0.0,0.0,0.0,0.0,0.0,0.0,0.0,0.0,0.0,0.0,0.0,0.0,0.0,0.0,0.0,0.0,0.0,0.0,0.0,0.0,0.0,0.0,0.0,0.0,0.0,0.0,0.0,0.0,0.0,0.0,0.0,0.0,0.0,0.0,0.0,0.0,0.0,0.0,0.0,0.0,0.0,0.0,0.0,0.0,0.0,0.0,0.0,0.0,0.0,0.0,0.0,0.0,0.0,0.0,0.0,0.0,0.0,0.0,0.0,0.0,0.0,0.0,0.0,0.0,3.5668,3.5668,3.562,3.562,3.562,3.562,3.562,3.5524,3.5332,3.5284,0.0,0.0,0.0,0.0,0.0,0.0,0.0,0.0,0.0,0.0,0.0,0.0,0.0,0.0,0.0,0.0,0.0,0.0,0.0,0.0,0.0,0.0,0.0,0.0,0.0,0.0,0.0,0.0,0.0,0.0,0.0,0.0,0.0,0.0,0.0,0.0,0.0,0.0,0.0,0.0,0.0,0.0,0.0,0.0,0.0,0.0,0.0,0.0,0.0,0.0,0.0,0.0,0.0,0.0,0.0,0.0,0.0,0.0,0.0,0.0,0.0,0.0,0.0,0.0,0.0,0.0,0.0,0.0,0.0,0.0,0.0,0.0,0.0,0.0,0.0,0.0,0.0,0.0,0.0,0.0,0.0,0.0,0.0,0.0,0.0,0.0,0.0,0.0,0.0,0.0,0.0,0.0,0.0,0.0,0.0,0.0,0.0,0.0,0.0,0.0,0.0,0.0,3.5812,3.586,3.562,3.562,3.562,3.562,3.562,3.5572,3.5572,3.5572,0.0,0.0,0.0,0.0,0.0,0.0,0.0,0.0,0.0,0.0,0.0,0.0,0.0,0.0,0.0,0.0,0.0,0.0,0.0,0.0,0.0,0.0,0.0,0.0,0.0,0.0,0.0,0.0,0.0,0.0,0.0,0.0,0.0,0.0,0.0,0.0,0.0,0.0,0.0,0.0,0.0,0.0,0.0,0.0,0.0,0.0,0.0,0.0,0.0,0.0,0.0,0.0,0.0,0.0,0.0,0.0,0.0,0.0,0.0,0.0,0.0,0.0,0.0,0.0,0.0,0.0,0.0,0.0,0.0,0.0,0.0,0.0,0.0,0.0,0.0,0.0,0.0,0.0,0.0,0.0,0.0,0.0,0.0,0.0,0.0,0.0,0.0,0.0,0.0,0.0,0.0,0.0,0.0,0.0,0.0,0.0,0.0,0.0,0.0,0.0,0.0,0.0,3.6193,3.6241,3.6121,3.6073,3.6073,3.6073,3.6073,3.6051,3.586,0.0,0.0,0.0,0.0,0.0,0.0,0.0,0.0,0.0,0.0,0.0,0.0,0.0,0.0,0.0,0.0,0.0,0.0,0.0,0.0,0.0,0.0,0.0,0.0,0.0,0.0,0.0,0.0,0.0,0.0,0.0,0.0,0.0,0.0,0.0,0.0,0.0,0.0,0.0,0.0,0.0,0.0,0.0,0.0,0.0,0.0,0.0,0.0,0.0,0.0,0.0,0.0,0.0,0.0,0.0,0.0,0.0,0.0,0.0,0.0,0.0,0.0,0.0,0.0,0.0,0.0,0.0,0.0,0.0,0.0,0.0,0.0,0.0,0.0,0.0,0.0,0.0,0.0,0.0,0.0,0.0,0.0,0.0,0.0,0.0,0.0,0.0,0.0,0.0,0.0,0.0,0.0,0.0,0.0,0.0,0.0,0.0,0.0,0.0,0.0,0.0,0.0,3.6405,3.6405,3.6405,3.6405,3.6405,3.6405,3.6405,3.6405,3.631,3.6146,0.0,0.0,0.0,0.0,0.0,0.0,0.0,0.0,0.0,0.0,0.0,0.0,0.0,0.0,0.0,0.0,0.0,0.0,0.0,0.0,0.0,0.0,0.0,0.0,0.0,0.0,0.0,0.0,0.0,0.0,0.0,0.0,0.0,0.0,0.0,0.0,0.0,0.0,0.0,0.0,0.0,0.0,0.0,0.0,0.0,0.0,0.0,0.0,0.0,0.0,0.0,0.0,0.0,0.0,0.0,0.0,0.0,0.0,0.0,0.0,0.0,0.0,0.0,0.0,0.0,0.0,0.0,0.0,0.0,0.0,0.0,0.0,0.0,0.0,0.0,0.0,0.0,0.0,0.0,0.0,0.0,0.0,0.0,0.0,0.0,0.0,0.0,0.0,0.0,0.0,0.0,0.0,0.0,0.0,0.0,0.0,0.0,0.0,0.0,0.0,0.0,0.0,3.6405,3.6405,3.6452,3.6405,3.6405,3.6452,3.6452,3.6452,3.6452,0.0,0.0,0.0,0.0,0.0,0.0,0.0,0.0,0.0,0.0,0.0,0.0,0.0,0.0,0.0,0.0,0.0,0.0,0.0,0.0,0.0,0.0,0.0,0.0,0.0,0.0,0.0,0.0,0.0,0.0,0.0,0.0,0.0,0.0,0.0,0.0,0.0,0.0,0.0,0.0,0.0,0.0,0.0,0.0,0.0,0.0,0.0,0.0,0.0,0.0,0.0,0.0,0.0,0.0,0.0,0.0,0.0,0.0,0.0,0.0,0.0,0.0,0.0,0.0,0.0,0.0,0.0,0.0,0.0,0.0,0.0,0.0,0.0,0.0,0.0,0.0,0.0,0.0,0.0,0.0,0.0,0.0,0.0,0.0,0.0,0.0,0.0,0.0,0.0,0.0,0.0,0.0,0.0,0.0,0.0,0.0,0.0,0.0,0.0,0.0,0.0,0.0,0.0,3.6499,3.7566,3.8088,3.7453,3.7978,3.836,3.836,3.836,3.8088,3.7453,0.0,0.0,0.0,0.0,0.0,0.0,0.0,0.0,0.0,0.0,0.0,0.0,0.0,0.0,0.0,0.0,0.0,0.0,0.0,0.0,0.0,0.0,0.0,0.0,0.0,0.0,0.0,0.0,0.0,0.0,0.0,0.0,0.0,0.0,0.0,0.0,0.0,0.0,0.0,0.0,0.0,0.0,0.0,0.0,0.0,0.0,0.0,0.0,0.0,0.0,0.0,0.0,0.0,0.0,0.0,0.0,0.0,0.0,0.0,0.0,0.0,0.0,0.0,0.0,0.0,0.0,0.0,0.0,0.0,0.0,0.0,0.0,0.0,0.0,0.0,0.0,0.0,0.0,0.0,0.0,0.0,0.0,0.0,0.0,0.0,0.0,0.0,0.0,0.0,0.0,0.0,0.0,0.0,0.0,0.0,0.0,0.0,0.0,0.0,0.0,0.0,0.0,3.7036,3.827,3.8988,3.8432,3.8854,3.921,3.921,3.921,3.8944,3.8387,0.0,0.0,0.0,0.0,0.0,0.0,0.0,0.0,0.0,0.0,0.0,0.0,0.0,0.0,0.0,0.0,0.0,0.0,0.0,0.0,0.0,0.0,0.0,0.0,0.0,0.0,0.0,0.0,0.0,0.0,0.0,0.0,0.0,0.0,0.0,0.0,0.0,0.0,0.0,0.0,0.0,0.0,0.0,0.0,0.0,0.0,0.0,0.0,0.0,0.0,0.0,0.0,0.0,0.0,0.0,0.0,0.0,0.0,0.0,0.0,0.0,0.0,0.0,0.0,0.0,0.0,0.0,0.0,0.0,0.0,0.0,0.0,0.0,0.0,0.0,0.0,0.0,0.0,0.0,0.0,0.0,0.0,0.0,0.0,0.0,0.0,0.0,0.0,0.0,0.0,0.0,0.0,0.0,0.0,0.0,0.0,0.0,0.0,0.0,0.0,0.0,0.0,3.7933,3.881,3.9431,3.9343,3.9431,3.9475,3.9475,3.9475,3.9431,3.9343,0.0,0.0,0.0,0.0,0.0,0.0,0.0,0.0,0.0,0.0,0.0,0.0,0.0,0.0,0.0,0.0,0.0,0.0,0.0,0.0,0.0,0.0,0.0,0.0,0.0,0.0,0.0,0.0,0.0,0.0,0.0,0.0,0.0,0.0,0.0,0.0,0.0,0.0,0.0,0.0,0.0,0.0,0.0,0.0,0.0,0.0,0.0,0.0,0.0,0.0,0.0,0.0,0.0,0.0,0.0,0.0,0.0,0.0,0.0,0.0,4.1246,4.0895,0.0,0.0,0.0,0.0,0.0,0.0,0.0,0.0,0.0,0.0,0.0,0.0,0.0,0.0,0.0,0.0,0.0,0.0,0.0,0.0,0.0,0.0,0.0,0.0,0.0,0.0,0.0,0.0,0.0,0.0,0.0,0.0,0.0,0.0,0.0,0.0,0.0,0.0,0.0,0.0,3.8899,4.0417,4.117,4.0389,4.1001,4.1451,4.1451,4.1451,4.1128,4.0346,4.0303,0.0,0.0,0.0,0.0,0.0,0.0,0.0,0.0,0.0,0.0,0.0,0.0,0.0,0.0,0.0,0.0,0.0,0.0,0.0,0.0,0.0,0.0,0.0,0.0,0.0,0.0,0.0,0.0,0.0,0.0,0.0,0.0,0.0,0.0,0.0,0.0,0.0,0.0,0.0,0.0,0.0,0.0,0.0,0.0,0.0,0.0,0.0,0.0,0.0,0.0,0.0,0.0,0.0,0.0,0.0,0.0,0.0,0.0,0.0,4.2523,4.1963,0.0,0.0,0.0,0.0,0.0,0.0,0.0,0.0,0.0,0.0,0.0,0.0,0.0,0.0,0.0,0.0,0.0,0.0,0.0,0.0,0.0,0.0,0.0,0.0,0.0,0.0,0.0,0.0,0.0,0.0,0.0,0.0,0.0,0.0,0.0,0.0,0.0,0.0,0.0,0.0,3.9869,4.117,4.1897,4.1381,4.1773,4.2092,4.2092,4.2092,4.1856,4.1339,4.1296,0.0,0.0,0.0,0.0,0.0,0.0,0.0,0.0,0.0,0.0,0.0,0.0,0.0,0.0,0.0,0.0,0.0,0.0,0.0,0.0,0.0,0.0,0.0,0.0,0.0,0.0,0.0,0.0,0.0,0.0,0.0,0.0,0.0,0.0,0.0,0.0,0.0,0.0,0.0,0.0,0.0,0.0,0.0,0.0,0.0,0.0,0.0,0.0,0.0,0.0,0.0,0.0,0.0,4.4022,4.4022,4.4022,4.4022,4.4489,4.5207,4.4003,4.3368,4.3156,4.2793,0.0,0.0,0.0,0.0,0.0,0.0,0.0,0.0,0.0,0.0,0.0,0.0,0.0,0.0,0.0,0.0,0.0,0.0,0.0,0.0,0.0,0.0,4.1887,4.1892,4.1791,4.1132,3.9031,0.0,0.0,0.0,0.0,0.0,0.0,0.0,0.0,0.0,0.0,0.0,4.0901,4.1619,4.2092,4.2133,4.2133,4.2175,4.2216,4.2175,4.2133,4.2133,4.2133,4.2092,0.0,0.0,0.0,0.0,0.0,0.0,0.0,0.0,0.0,0.0,0.0,0.0,0.0,0.0,0.0,0.0,0.0,0.0,0.0,0.0,0.0,0.0,0.0,0.0,0.0,0.0,0.0,0.0,0.0,0.0,0.0,0.0,3.9815,4.0354,0.0,0.0,0.0,0.0,0.0,0.0,0.0,0.0,0.0,0.0,0.0,0.0,0.0,4.3882,4.4794,4.4794,4.5281,4.6195,4.6195,4.6195,4.6195,4.6195,4.624,4.6403,4.6151,0.0,4.4702,4.4648,0.0,0.0,0.0,0.0,0.0,0.0,0.0,0.0,0.0,0.0,0.0,0.0,0.0,0.0,0.0,0.0,0.0,0.0,0.0,0.0,0.0,0.0,4.3148,4.2694,4.2113,4.1696,4.1733,4.0622,3.9651,3.9651,3.9651,3.9492,0.0,0.0,0.0,0.0,0.0,0.0,4.2034,4.2133,4.2175,4.2351,4.2351,4.2433,4.2637,4.2474,4.2351,4.2351,4.2216,4.2092,4.2092,4.2092,0.0,0.0,0.0,0.0,0.0,0.0,0.0,0.0,0.0,0.0,0.0,0.0,0.0,0.0,0.0,0.0,0.0,0.0,0.0,0.0,0.0,0.0,0.0,0.0,0.0,0.0,0.0,0.0,0.0,4.1084,4.1953,4.1692,4.239,4.2592,0.0,0.0,0.0,0.0,0.0,0.0,0.0,0.0,0.0,4.4535,4.5115,4.5689,4.6299,4.6299,4.655,4.7005,4.7005,4.7005,4.7005,4.7005,4.7005,4.7005,4.7005,4.6756,4.624,4.57,4.4967,4.4144,0.0,0.0,0.0,0.0,4.3693,4.4163,4.4303,4.4349,4.4349,4.4349,0.0,0.0,0.0,0.0,0.0,0.0,0.0,4.3122,4.4256,4.4581,4.4578,4.47,4.4196,4.3689,4.3458,4.2578,4.1574,4.0817,4.0689,4.0475,3.9842,4.0189,0.0,0.0,0.0,4.1964,4.2485,4.2514,4.2474,4.2555,4.2596,4.2607,4.2688,4.2607,4.2596,4.2596,4.2474,4.2433,4.2433,4.2433,4.2433,0.0,0.0,0.0,0.0,0.0,0.0,0.0,0.0,0.0,0.0,0.0,0.0,0.0,0.0,0.0,0.0,0.0,0.0,0.0,0.0,0.0,0.0,0.0,0.0,0.0,0.0,0.0,0.0,4.2848,4.3649,4.3137,4.3979,4.4257,0.0,0.0,0.0,0.0,0.0,0.0,4.4442,4.5161,4.5689,4.5869,4.6594,4.7106,4.7309,4.7309,4.7309,4.7309,4.7309,4.7309,4.7309,4.7309,4.7309,4.7309,4.7309,4.7309,4.7252,4.6557,4.5941,4.5446,4.5091,4.4678,4.4303,4.4349,4.484,4.5508,4.5553,4.5598,4.5598,4.5598,4.507,4.4396,4.4163,0.0,0.0,0.0,0.0,4.4349,4.5598,4.5869,4.6004,4.6466,4.5933,4.5155,4.4676,4.3888,4.2981,4.2017,4.1811,4.1574,4.0788,4.1281,0.0,4.1728,4.2293,4.2729,4.2769,4.2729,4.2729,4.2769,4.2769,4.2809,4.285,4.2809,4.2769,4.2769,4.2729,4.2688,4.2688,4.2688,4.2688,4.2688,0.0,0.0,0.0,0.0,0.0,0.0,0.0,0.0,0.0,0.0,0.0,0.0,0.0,0.0,0.0,0.0,0.0,0.0,0.0,0.0,0.0,0.0,0.0,0.0,0.0,0.0,0.0,0.0,0.0,4.5072,4.5607,0.0,0.0,0.0,0.0,4.5343,4.6211,4.6844,4.7106,4.7149,4.7222,4.7222,4.7266,4.7309,4.7309,4.7309,4.7309,4.7309,4.7309,4.7309,4.7309,4.7309,4.7309,4.7309,4.7309,4.7309,4.7309,4.7252,4.7048,4.677,4.6785,4.6653,4.6447,4.6638,4.677,4.6844,4.7106,4.7149,4.7149,4.7149,4.7149,4.6931,4.5958,4.5689,0.0,0.0,4.5689,4.5913,4.6931,4.7222,4.7193,4.7249,4.6262,4.5274,4.5244,4.4227,4.329,4.321,4.321,4.313,4.29,0.0,4.29,4.29,4.2809,4.2769,4.2941,4.2809,4.2769,4.2941,4.2981,4.3061,4.325,4.3061,4.2981,4.2981,4.2809,4.2688,4.2688,4.2688,4.2688,4.2688,4.2688,0.0,0.0,0.0,0.0,0.0,0.0,0.0,0.0,0.0,0.0,0.0,0.0,0.0,0.0,0.0,0.0,0.0,0.0,0.0,0.0,0.0,0.0,0.0,0.0,0.0,0.0,0.0,0.0,4.5873,4.6476,0.0,4.6653,4.6887,4.6931,4.6638,4.6975,4.7222,4.7309,4.7309,4.7309,4.7309,4.7309,4.7309,4.7309,4.7309,4.7309,4.7309,4.7309,4.7309,4.7309,4.7309,4.7309,4.7309,4.7309,4.7309,4.7309,4.7309,4.7266,4.7149,4.7149,4.7106,4.7092,4.7135,4.7149,4.7149,4.7266,4.7309,4.7309,4.7309,4.7309,4.7222,4.6887,4.677,4.677,4.677,4.677,4.6844,4.7222,4.7309,4.7309,4.7309,4.6292,4.5304,4.5304,4.4257,4.329,4.329,4.329,4.329,4.321,4.321,4.321,4.321,4.313,4.313,4.317,4.313,4.313,4.321,4.3598,4.3877,4.3917,4.3877,4.3837,4.3837,4.3369,4.309,4.309,4.309,4.309,4.309,4.309,4.309,0.0,0.0,0.0,0.0,0.0,0.0,0.0,0.0,0.0,0.0,0.0,0.0,0.0,0.0,0.0,0.0,0.0,0.0,0.0,0.0,0.0,0.0,0.0,0.0,0.0,4.5012,4.5813,4.6262,4.689,4.7309,4.7309,4.7309,4.7309,4.7309,4.7309,4.7309,4.7309,4.7309,4.7309,4.7309,4.7309,4.7309,4.7309,4.7309,4.7309,4.7309,4.7309,4.7309,4.7309,4.7309,4.7309,4.7309,4.7309,4.7309,4.7309,4.7309,4.7309,4.7309,4.7309,4.7309,4.7309,4.7309,4.7309,4.7309,4.7309,4.7309,4.7309,4.7309,4.7309,4.7309,4.7309,4.7309,4.7309,4.7309,4.7309,4.7309,4.7309,4.7309,4.7309,4.7309,4.6441,4.5574,4.5334,4.4436,4.3618,4.3618,4.3439,4.329,4.329,4.329,4.3379,4.3589,4.3618,4.3708,4.3917,4.3947,4.3947,4.3947,4.4377,4.4646,4.4646,4.4646,4.4646,4.4646,4.4227,4.3947,4.3947,4.3738,4.3618,4.3618,4.3409,4.329,4.329,0.0,0.0,0.0,0.0,0.0,0.0,0.0,0.0,0.0,0.0,0.0,0.0,0.0,0.0,0.0,0.0,0.0,0.0,0.0,0.0,0.0,0.0,0.0,4.4377,4.5484,4.6279,4.6309,4.692,4.7309,4.7309,4.7309,4.7309,4.7309,4.7309,4.7309,4.7309,4.7309,4.7309,4.7339,4.7339,4.7339,4.7369,4.7369,4.7369,4.7369,4.7369,4.7369,4.7369,4.7369,4.7369,4.7369,4.7339,4.7339,4.7339,4.7309,4.7309,4.7309,4.7309,4.7309,4.7309,4.7309,4.7309,4.7309,4.7309,4.7309,4.7309,4.7309,4.7309,4.7309,4.7309,4.7309,4.7309,4.7309,4.7309,4.7309,4.7309,4.7309,4.7309,4.7309,4.68,4.6142,4.5454,4.4796,4.4347,4.4347,4.3798,4.3349,4.3349,4.3349,4.3559,4.4257,4.4347,0.0,4.5214,4.5304,4.5304,4.5304,4.5304,4.5334,4.5334,4.5334,4.5334,4.5334,4.5304,4.5304,4.5304,4.4676,4.4347,4.4347,4.3648,4.3319,4.3319,0.0,0.0,0.0,0.0,0.0,0.0,0.0,0.0,0.0,0.0,0.0,0.0,0.0,0.0,0.0,0.0,0.0,0.0,0.0,0.0,0.0,4.4706,4.5185,4.5693,4.6082,4.6501,4.698,4.7189,4.7309,4.7309,4.7309,4.7309,4.7309,4.7309,4.7309,4.7309,4.7309,4.7519,4.7997,4.8027,4.8237,4.876,4.876,4.876,4.876,4.876,4.876,4.876,4.876,4.876,4.8686,4.8237,4.8027,4.7967,4.7489,4.7309,4.7309,4.7309,4.7309,4.7309,4.7309,4.7309,4.7309,4.7309,4.7309,4.7309,4.7309,4.7309,4.7309,4.7309,4.7309,4.7309,4.7309,4.7309,4.7309,4.7309,4.7309,4.7309,4.7309,4.68,4.6262,4.6082,4.5514,4.5035,4.5035,4.4885,4.4766,4.4766,4.4766,4.4825,4.5005,4.5035,4.5095,4.5274,4.5304,4.5304,4.5304,4.5753,4.6052,4.6052,4.6052,4.6052,4.6052,4.5574,4.5304,4.5304,4.5125,4.5035,4.5035,4.4377,4.4047,0.0,0.0,0.0,0.0,0.0,0.0,0.0,0.0,0.0,0.0,0.0,0.0,0.0,0.0,0.0,0.0,0.0,0.0,0.0,0.0,0.0,0.0,4.5274,4.5963,4.6621,4.6741,4.686,4.7249,4.7309,4.7309,4.7309,4.7309,4.7309,4.7309,4.7549,4.7728,4.7728,4.7967,4.8297,4.8686,4.8686,4.894,4.9299,4.9299,4.9299,4.9299,4.9299,4.9299,4.9299,4.9299,4.9299,4.9299,4.891,4.8686,4.87,4.8297,4.7967,4.7698,0.0,0.0,0.0,0.0,4.7309,4.7309,4.7309,4.7309,4.7309,4.7309,4.7309,4.7309,4.7309,4.7309,4.7309,4.7309,4.7309,4.7309,4.7309,4.7309,4.7309,4.7309,4.701,4.6651,4.6339,4.5992,4.5723,4.5723,4.5723,0.0,4.6082,4.5663,4.5394,4.5693,4.5723,4.5813,4.6112,4.6142,4.6142,4.6142,4.6501,4.6741,4.6741,4.6741,0.0,0.0,0.0,4.6022,4.5753,4.5723,0.0,0.0,0.0,4.4736,4.4736,4.4605,0.0,0.0,4.3858,4.3499,0.0,0.0,0.0,0.0,0.0,0.0,0.0,0.0,0.0,0.0,0.0,0.0,0.0,0.0,0.0,0.0,4.5873,4.6518,4.7219,4.7309,4.7309,4.7309,4.7309,4.7309,4.7309,4.7369,4.7429,4.7429,4.8027,4.8386,4.8386,4.9,0.0,0.0,0.0,4.9449,4.9539,4.9539,4.9539,4.9539,4.9539,4.9539,4.9539,4.9539,4.9539,4.9539,4.9449,4.9419,4.9419,4.9329,4.897,4.8327,4.7578,4.7309,4.7309,4.7309,4.7309,4.7309,4.7309,0.0,0.0,4.7309,4.7309,4.7309,4.7309,4.7309,4.7309,4.7309,4.7309,4.7309,4.7309,4.7309,4.7309,4.7309,4.7309,4.716,4.6561,4.6399,4.6399,4.6399,4.6399,4.6621,4.7219,4.6322,4.5723,4.6352,4.6399,4.6651,4.7219,4.7309,4.7309,4.7309,4.7309,0.0,4.7309,4.7309,4.7309,4.7309,4.7309,4.704,4.6471,4.6399,4.6142,4.5544,4.5454,4.5394,4.5394,4.5933,4.6262,4.6249,4.4545,4.3738,0.0,0.0,0.0,0.0,0.0,0.0,0.0,0.0,0.0,0.0,0.0,0.0,0.0,0.0,0.0,4.5185,4.5873,4.6518,4.7219,4.7309,4.7309,4.7309,4.7309,4.7309,4.7309,4.7788,4.8087,4.8087,4.876,4.912,4.912,4.9239,4.9494,4.9986,5.0016,5.0301,5.084,5.084,5.084,5.084,5.084,0.0,5.084,5.084,5.084,5.081,5.0272,5.0016,5.0002,4.9494,4.9239,4.9,4.7758,4.7309,4.7309,4.7309,4.7309,4.7309,4.7309,4.7309,4.7309,4.7309,4.7309,4.7309,4.7309,4.7309,0.0,4.7309,4.7309,4.7309,4.7309,4.7309,4.7309,4.7309,4.7309,4.7279,4.713,4.713,4.713,4.713,4.713,4.716,4.7279,4.71,4.695,4.71,4.713,4.716,4.7279,4.7309,4.7309,4.7309,4.7309,4.7309,4.7309,4.7309,4.7309,4.7309,4.7309,4.7249,4.713,4.713,4.707,4.692,4.6381,4.6142,4.6142,4.5693,4.5783,4.6279,4.6471,4.6531,0.0,0.0,0.0,0.0,0.0,0.0,0.0,0.0,0.0,0.0,0.0,4.3379,4.3738,0.0,4.5035,4.5693,4.6381,4.692,4.7249,4.7309,4.7309,4.7309,4.7309,4.7429,4.7758,4.8087,4.8416,4.879,4.9374,4.9763,4.9763,5.0062,5.0541,5.1199,5.1229,5.1528,5.2187,5.2187,5.2187,5.2187,5.2187,5.2187,5.2187,5.1858,5.1708,5.1678,5.102,5.0674,5.0644,5.0032,4.9763,4.9643,4.8686,4.8087,4.7758,4.7429,4.7309,4.7309,4.7309,4.7309,4.7309,4.7309,4.7309,4.7309,4.7309,4.7309,4.7309,4.7309,4.7309,4.7309,4.7309,4.7309,4.7309,4.7309,4.7309,4.7309,4.7309,4.7309,4.7309,4.7309,4.7309,4.7309,4.7309,4.7309,4.7309,4.7309,4.7309,4.7309,4.7309,4.7309,4.7309,4.7309,4.7309,4.7309,4.7309,4.7309,4.7309,4.7309,4.7309,4.7309,4.7309,4.7309,4.7309,4.7309,4.698,4.68,4.68,4.68,4.698,4.7309,4.7967,4.7938,0.0,0.0,0.0,0.0,0.0,0.0,0.0,4.329,4.3319,4.3469,4.3469,4.3678,4.4377,4.5035,4.5663,4.619,4.686,4.7309,4.7309,4.7309,4.7369,4.7489,4.7489,4.7698,4.8237,4.8506,4.8895,4.9404,5.0062,5.0435,5.0554,5.1109,5.1708,5.2366,5.2396,5.2636,5.3174,5.3174,5.3174,5.3174,5.3174,5.3174,5.3174,5.2636,5.2396,5.2366,5.1708,5.1349,5.1169,5.0614,5.0375,5.0315,4.9703,4.9134,4.8596,4.7938,4.7608,4.7489,4.7489,4.7429,4.7309,4.7309,4.7309,4.7309,4.7309,4.7309,4.7309,4.7309,4.7309,4.7309,4.7309,4.7309,4.7309,4.7309,4.7309,4.7309,4.7309,4.7309,4.7309,4.7309,4.7309,4.7309,4.7309,4.7309,4.7309,4.7309,4.7309,4.7309,4.7309,4.7309,4.7309,4.7309,4.7309,4.7309,4.7309,4.7309,4.7309,4.7309,4.7309,4.7309,4.7309,4.7309,4.7309,4.7309,4.7309,4.7309,4.7309,4.7848,4.8147,4.8297,4.888,4.8566,4.0774,4.1394,4.2017,4.2129,4.2739,4.329,0.0,4.329,4.3469,4.4077,4.4197,4.4407,4.5065,4.5753,4.619,4.6279,4.686,4.7309,4.7309,4.7309,4.7519,4.8117,4.8177,4.8207,4.8267,4.9344,5.0016,5.0076,5.0674,5.1379,5.1947,5.2067,5.2396,5.3054,5.3084,5.3114,5.3174,5.3174,5.3174,5.3174,5.3174,5.3174,5.3174,5.3114,5.3084,5.3025,5.2366,5.1768,5.1199,5.1139,5.1109,5.1003,5.0345,5.0046,4.9897,4.9284,4.8686,4.8177,4.8177,4.7788,4.7309,4.7309,4.7309,4.7309,4.7309,4.7309,4.7309,4.7309,4.7309,4.7309,4.7309,4.7309,4.7309,4.7309,4.7309,4.7309,4.7309,4.7309,4.7309,4.7309,4.7309,4.7309,4.7309,4.7309,4.7309,4.7309,4.7309,4.7309,4.7309,4.7309,4.7309,4.7309,4.7309,4.7309,4.7309,4.7309,4.7309,4.7309,4.7309,4.7309,4.7309,4.7309,4.7309,4.7309,4.7309,4.7309,4.7309,4.7369,4.7728,4.8297,4.8356,4.8626,4.1239,4.1686,4.2129,4.2618,4.305,4.329,4.329,4.3589,4.3947,4.4257,4.4616,4.5095,4.5783,4.6142,4.6441,4.683,4.713,4.7309,4.7309,4.7309,4.7549,4.8207,4.8626,4.9015,4.9374,4.9867,5.0345,5.0734,5.1409,5.1917,5.2187,5.2576,5.3084,5.3773,5.3773,5.3952,5.4341,5.4341,5.4341,5.4341,5.4341,5.4341,5.4341,5.3952,5.3563,5.3144,5.2486,5.2037,5.1768,5.1379,5.1229,5.1199,5.0853,5.0764,5.069,4.9643,4.9149,4.8865,4.8865,4.8416,4.7878,4.7878,4.7608,4.7309,4.7309,4.7309,4.7309,4.7309,4.7309,4.7309,4.7309,4.7309,4.7309,4.7309,4.7309,4.7309,4.7309,4.7309,4.7309,4.7309,4.7309,4.7309,4.7309,4.7309,4.7309,4.7309,4.7309,4.7309,4.7309,4.7309,4.7309,4.7309,4.7309,4.7309,4.7309,4.7309,4.7309,4.7309,4.7309,4.7309,4.7309,4.7309,4.7309,4.7309,4.7309,4.7309,4.7309,4.7309,4.7459,4.7728,4.7728,4.7848,4.1029,4.1603,4.217,4.278,4.313,4.3349,4.3529,4.3917,4.4407,4.4796,4.5244,4.5783,4.6471,4.6591,4.6741,4.7219,4.7309,4.7309,4.7309,4.7459,4.7818,4.8476,4.9134,4.9793,5.0405,5.0465,5.0734,5.1439,5.1947,5.2366,5.2725,5.3204,5.3773,5.4461,5.4491,5.47,5.5179,5.5179,5.5179,5.5179,5.5179,5.5179,5.5179,5.47,5.4102,5.3443,5.2965,5.2546,5.2157,5.1678,5.1379,5.1229,5.1229,5.1229,5.1109,5.0152,4.9703,4.9523,4.9523,4.9105,4.8566,4.8566,4.8237,4.7818,4.7638,4.7578,4.7549,4.7369,4.7309,4.7309,4.7309,4.7309,4.7309,4.7309,4.7309,4.7309,4.7309,4.7309,4.7309,4.7309,4.7309,4.7309,4.7309,4.7309,4.7309,4.7309,4.7309,4.7309,4.7309,4.7309,4.7309,4.7309,4.7309,4.7309,4.7309,4.7309,4.7309,4.7309,4.7309,4.7309,4.7309,4.7309,4.7309,4.7309,4.7309,4.7309,4.7309,4.7309,4.7399,4.7578,4.7578,4.7668,3.9299,4.0603,4.2005,4.2017,4.2659,4.3469,4.4137,4.4317,4.4676,4.595,4.6249,4.6459,4.716,4.7279,4.7279,4.7309,4.7309,4.7309,4.7309,4.7848,4.8506,4.9209,4.9823,5.0435,5.1109,5.1199,5.1468,5.2127,5.2187,5.2785,5.4072,5.4162,5.4491,5.5149,5.5149,5.5179,5.5179,5.5179,5.5179,5.5179,5.5179,5.5179,5.5179,5.5179,5.479,5.4192,5.4162,5.3414,5.2187,5.2187,5.1798,5.1229,5.1229,5.1229,5.1229,5.1169,5.0704,5.0166,5.0166,4.9793,4.9269,4.9269,4.9269,4.912,4.8446,4.8267,4.8117,4.7489,4.7309,4.7309,4.7309,4.7309,4.7309,4.7309,4.7309,4.7309,4.7309,4.7309,4.7309,4.7309,4.7309,4.7309,4.7309,4.7309,4.7309,4.7309,4.7309,4.7309,4.7309,4.7309,4.7309,4.7309,4.7309,4.7309,4.7309,4.7309,4.7309,4.7309,4.7309,4.7309,4.7309,4.7309,4.7309,4.7309,4.7309,4.7309,4.7309,4.7309,4.7638,4.8267,4.8267,4.864,3.9782,4.0603,4.1365,4.2578,4.3418,4.4007,4.4257,4.5005,4.5741,4.619,4.6681,4.704,4.7279,4.7309,4.7309,4.7309,4.7309,4.7309,4.7309,4.7878,4.8536,4.9239,4.9853,5.0435,5.1139,5.1618,5.1977,5.2187,5.3025,5.3743,5.4192,5.461,5.497,5.5179,5.5179,5.5179,5.5179,5.5179,5.5179,5.5179,5.5179,5.5179,5.5179,5.5179,5.5059,5.485,5.4401,5.3952,5.3473,5.2576,5.2067,5.1828,5.1379,5.1229,5.1229,5.1229,5.1079,5.0853,5.0853,5.0451,4.9912,4.9912,4.9613,4.9269,4.906,4.897,4.894,4.87,4.864,4.8506,4.8057,4.7967,4.7848,4.7399,4.7309,4.7309,4.7309,4.7309,4.7309,4.7309,4.7309,4.7309,4.7309,4.7309,4.7309,4.7309,4.7309,4.7309,4.7309,4.7309,4.7309,4.7309,4.7309,4.7309,4.7309,4.7309,4.7309,4.7309,4.7309,4.7309,4.7309,4.7309,4.7309,4.7309,4.7728,4.7967,4.7967,4.8386,4.876,4.897,4.897,4.909,3.9782,4.0603,4.1423,4.2872,4.3745,4.4436,4.4915,4.5693,4.6381,4.6621,4.701,4.7309,4.7309,4.7309,4.7309,4.7309,4.7309,4.7309,4.7309,4.8087,4.885,4.9269,5.0032,5.0704,5.1169,5.2037,5.2546,5.2546,5.3593,5.4311,5.4551,5.497,5.5179,5.5179,5.5179,5.5179,5.5179,5.5179,5.5179,5.5179,5.5179,5.5179,5.5179,5.5179,5.5179,5.5179,5.473,5.4431,5.4132,5.2995,5.2426,5.2127,5.1468,5.1229,5.1229,5.1229,5.1229,5.1229,5.1229,5.093,5.0554,5.0554,5.0301,4.9912,4.9673,4.9613,4.9583,4.9389,4.9299,4.9209,4.8745,4.8626,4.8536,4.8117,4.7997,4.7997,4.7997,4.7997,4.7997,4.7997,4.7997,4.7997,4.7997,4.7997,4.7997,4.7997,4.7997,4.7848,4.7369,4.7309,4.7309,4.7309,4.7309,4.7309,4.7309,4.7309,4.7399,4.7638,4.7668,4.7758,4.7997,4.7997,4.7997,4.7997,4.8416,4.8626,4.8626,4.912,4.9419,4.9613,4.9613,4.9733,3.9254,4.0589,4.2138,4.2873,4.3732,4.4766,4.598,4.6309,4.6518,4.7189,4.7309,4.7309,4.7309,4.7309,4.7309,4.7309,4.7309,4.7309,4.7309,4.8446,4.9299,4.9299,5.0421,5.1229,5.1229,5.2396,5.3174,5.3174,5.3832,5.4521,5.5149,5.5179,5.5179,5.5179,5.5179,5.5179,5.5179,5.5179,5.5179,5.5179,5.5179,5.5179,5.5179,5.5179,5.5179,5.5179,5.5179,5.485,5.4192,5.3503,5.2845,5.2187,5.1528,5.1259,5.1229,5.1229,5.1229,5.1229,5.1229,5.1229,5.1229,5.1229,5.1229,5.1063,5.0435,5.0255,5.0106,4.9553,4.9419,4.9389,4.9359,4.9359,4.9359,4.9329,4.9299,4.9299,4.9299,4.9299,4.9299,4.9299,4.9299,4.9299,4.9299,4.9299,4.9299,4.9299,4.9299,4.885,4.7578,4.7399,4.7399,4.7399,4.7399,4.7399,4.7399,4.7399,4.7668,4.8297,4.8327,4.8626,4.9269,4.9299,4.9299,4.9299,4.9329,4.9359,4.9359,4.9389,4.9673,5.0255,5.0255,5.0584,3.9869,4.0984,4.2067,4.3573,4.4899,4.5903,4.619,4.6711,4.71,4.7279,4.7309,4.7309,4.7309,4.7309,4.7309,4.7309,4.7309,4.7309,4.7309,4.8446,4.9299,4.9299,5.0421,5.1229,5.1229,5.2396,5.3174,5.3174,5.4281,5.5029,5.5179,5.5179,5.5179,5.5179,5.5179,5.5179,5.5179,5.5179,5.5179,5.5179,5.5179,5.5179,5.5179,5.5179,5.5179,5.5179,5.5179,5.5089,5.488,5.4221,5.3533,5.2875,5.2217,5.1648,5.1229,5.1229,5.1229,5.1229,5.1229,5.1229,5.1229,5.1229,5.1229,5.1199,5.102,5.0913,5.093,5.078,5.072,5.0601,5.0122,5.0002,4.9883,4.9419,4.9299,4.9299,4.9299,4.9299,4.9299,4.9299,4.9299,4.9299,4.9299,4.9299,4.9299,4.9299,4.9299,4.9179,4.8805,4.882,4.882,4.882,4.882,4.882,4.882,4.882,4.888,4.906,4.906,4.9149,4.9299,4.9299,4.9299,4.9299,4.9733,5.0002,5.0002,5.0481,5.081,5.0913,5.0913,5.105,4.0156,4.1553,4.305,4.4297,4.5429,4.6411,4.6681,4.704,4.7309,4.7309,4.7309,4.7309,4.7309,4.7309,4.7309,4.7309,4.7309,4.7309,4.7309,4.8446,4.9299,4.9299,5.0421,5.1319,5.1618,5.2576,5.3294,5.3623,5.461,5.5179,5.5179,5.5179,5.5179,5.5179,5.5179,5.5179,5.5179,5.5179,5.5179,5.5179,5.5179,5.5179,5.5179,5.5179,5.5179,5.5179,5.5179,5.5179,5.5149,5.4491,5.3803,5.3114,5.2456,5.1798,5.1229,5.1229,5.1229,5.1229,5.1229,5.1229,5.1229,5.1229,5.1229,5.1229,5.1229,5.1229,5.1229,5.1229,5.1229,5.1139,5.0734,5.0614,5.0524,5.0212,5.0122,5.0122,5.0122,5.0122,5.0122,5.0122,5.0122,5.0122,5.0122,5.0122,5.0122,5.0122,5.0122,5.0122,5.0122,4.9659,4.9299,4.9299,4.9299,4.9299,4.9299,4.9299,4.9419,4.9673,4.9673,4.9823,5.0122,5.0122,5.0122,5.0122,5.0481,5.0614,5.0614,5.105,5.1229,5.1229,5.1229,5.1229,4.0508,4.2281,4.4211,4.4908,4.5752,4.6621,4.7189,4.7309,4.7309,4.7309,4.7309,4.7309,4.7309,4.7309,4.7309,4.7309,4.7309,4.7309,4.7309,4.8446,4.9299,4.9299,5.0421,5.1468,5.2127,5.2785,5.3473,5.4162,5.482,5.5179,5.5179,5.5179,5.5179,5.5179,5.5179,5.5179,5.5179,5.5179,5.5179,5.5179,5.5179,5.5179,5.5179,5.5179,5.5179,5.5179,5.5179,5.5179,5.5149,5.4581,5.3952,5.3264,5.2576,5.1917,5.1349,5.1259,5.1229,5.1229,5.1229,5.1229,5.1276,5.1229,5.1229,5.1229,5.1229,5.1229,5.1229,5.1229,5.1229,5.1229,5.1229,5.1229,5.1229,5.1229,5.1229,5.1229,5.1229,5.1229,5.1229,5.1229,5.1229,5.1229,5.1229,5.1229,5.1229,5.1229,5.1229,5.1229,5.1229,5.0242,4.9569,4.9569,4.9569,4.9569,4.9569,4.9569,4.9763,5.0285,5.0315,5.0584,5.1199,5.1229,5.1229,5.1229,5.1229,5.1229,5.1229,5.1229,5.1229,5.1229,5.1319,5.1349,4.178,4.2711,4.3371,4.5529,4.6582,4.716,4.7279,4.7309,0.0,4.7309,4.7309,4.7309,4.7309,4.7309,4.7309,4.7309,4.7309,4.7309,4.7309,4.8446,4.9299,4.9299,5.0421,5.1468,5.2127,5.2785,5.3473,5.4162,5.482,5.5179,5.5179,5.5179,5.5179,5.5179,5.5179,5.5179,5.5179,5.5179,5.5179,5.5179,5.5179,5.5179,5.5179,5.5179,5.5179,5.5179,5.5179,5.5179,5.5179,5.5059,5.464,5.3952,5.3264,5.2606,5.1977,5.1409,5.1229,5.1229,5.1229,5.1369,5.1479,5.1276,5.1229,5.1229,5.1229,5.1229,5.1229,5.1229,5.1229,5.1229,5.1229,5.1229,5.1229,5.1229,5.1229,5.1229,5.1229,5.1229,5.1229,5.1229,5.1229,5.1229,5.1229,5.1229,5.1229,5.1229,5.1229,5.1229,5.1229,5.102,5.087,5.087,5.087,5.087,5.087,5.087,5.093,5.105,5.105,5.1109,5.1229,5.1229,5.1229,5.1229,5.1229,5.1229,5.1229,5.1229,5.1229,5.1229,5.1768,5.2037,4.2018,4.3026,4.3834,4.6218,4.707,4.7309,4.7309,0.0,0.0,4.7309,4.7309,4.7309,4.7309,4.7309,4.7309,4.7309,4.7309,4.7309,4.7309,4.8446,4.9299,4.9299,5.0421,5.1468,5.2127,5.2785,5.3473,5.4162,5.482,5.5179,5.5179,5.5179,5.5179,5.5179,5.5179,5.528,5.5381,5.5381,5.5481,5.5631,5.5481,5.5381,5.5381,5.5229,5.5179,5.5179,5.5179,5.5179,5.5179,5.5179,5.479,5.4132,5.3443,5.2785,5.2127,5.1468,5.1323,5.1386,5.1276,5.1369,5.1556,5.1323,5.1293,5.1416,5.1416,5.1323,5.1229,5.1229,5.1229,5.1229,5.1229,5.1229,5.1229,5.1229,5.1229,5.1229,5.1229,5.1229,5.1229,5.1229,5.1229,5.1229,5.1229,5.1229,5.1229,5.1229,5.1229,5.1229,5.1229,5.1229,5.1229,5.1229,5.1229,5.1229,5.1229,5.1229,5.1229,5.1229,5.1229,5.1229,5.1229,5.1229,5.1229,5.1229,5.1229,5.1229,5.1229,5.1558,5.1738,5.1738,5.2396,5.2725,4.2165,4.3255,4.4196,4.6691,4.7309,4.7309,4.7309,4.7309,0.0,4.7309,4.7309,4.7309,4.7309,4.7309,4.7309,4.7309,4.7309,4.7309,4.7309,4.8446,4.9299,4.9299,5.0421,5.1468,5.2127,5.2785,5.3473,5.4162,5.482,5.5179,5.5179,5.5179,5.5179,5.5179,5.5229,5.5381,5.5581,5.5631,5.578,5.5979,5.5731,5.5581,5.5581,5.533,5.5179,5.5179,5.5179,5.5179,5.5179,5.5179,5.488,5.4341,5.3503,5.2875,5.2306,5.1498,5.1339,5.1479,5.1276,5.1369,5.1572,5.1339,5.1386,5.1479,5.1479,5.1369,5.1229,5.1229,5.1229,5.1229,5.1229,5.1229,5.1229,5.1229,5.1229,5.1229,5.1229,5.1229,5.1229,5.1229,5.1229,5.1229,5.1229,5.1229,5.1229,5.1229,5.1229,5.1229,5.1229,5.1229,5.1229,5.1229,5.1229,5.1229,5.1229,5.1229,5.1229,5.1229,5.1229,5.1229,5.1229,5.1229,5.1229,5.1229,5.1349,5.1439,5.1439,5.2097,5.2396,5.2426,5.3084,5.3384,4.2708,4.3255,4.3437,4.6518,4.7309,4.7309,4.7309,0.0,4.7309,4.7309,4.7309,4.7309,4.7309,4.7309,4.7309,4.7309,4.7309,4.7309,4.7309,4.8446,4.9299,4.9299,5.0421,5.1468,5.2127,5.2785,5.3473,5.4162,5.482,5.5179,5.5179,5.5179,5.5179,5.5179,5.5431,5.5581,5.5581,5.583,5.5979,5.5979,5.5731,5.5581,5.5581,5.533,5.5179,5.5179,5.5179,5.5179,5.5179,5.5179,5.5149,5.497,5.3683,5.3144,5.2935,5.1678,5.1229,5.1229,5.1229,5.1369,5.1602,5.1572,5.1416,5.1229,5.1229,5.1229,5.1229,5.1229,5.1229,5.1229,5.1229,5.1229,5.1229,5.1229,5.1229,5.1229,5.1229,5.1229,5.1229,5.1229,5.1229,5.1229,5.1229,5.1229,5.1229,5.1229,5.1229,5.1229,5.1229,5.1229,5.1229,5.1229,5.1229,5.1229,5.1229,5.1229,5.1229,5.1229,5.1229,5.1229,5.1229,5.1229,5.1229,5.1229,5.1798,5.2127,5.2127,5.2755,5.3084,5.3114,5.3803,5.4132,4.2165,4.2858,4.3377,4.6518,4.7309,4.7309,4.7309,0.0,4.7309,4.7309,4.7309,4.7309,4.7309,4.7309,4.7309,4.7309,0.0,0.0,4.7309,4.8446,4.9299,4.9299,5.0421,5.1319,5.1588,5.2576,5.3623,5.473,5.5029,5.5179,5.5179,5.5179,5.5179,5.5179,5.528,5.5531,5.583,5.5929,5.6176,5.647,5.6225,5.5979,5.583,5.5581,5.533,5.5179,5.5179,5.5179,5.5179,5.5179,5.5179,5.5059,5.3713,5.3174,5.3025,5.1708,5.1293,5.1416,5.1276,5.1369,5.1572,5.1416,5.1323,5.1229,5.1386,5.1323,5.1229,5.1229,5.1229,5.1229,5.1229,5.1229,5.1229,5.1229,5.1229,5.1229,5.1229,5.1229,5.1229,5.1229,5.1229,5.1229,5.1229,5.1229,5.1229,5.1229,5.1229,5.1229,5.1229,5.1229,5.1229,5.1229,5.1229,5.1229,5.1229,5.1229,5.1229,5.1229,5.1229,5.1229,5.1229,5.1588,5.1798,5.1798,5.2456,5.2785,5.2785,5.3473,5.3803,5.3832,5.4491,5.479,4.1747,4.262,4.3377,4.6518,4.7309,4.7309,0.0,0.0,4.7309,4.7309,4.7309,4.7309,4.7309,4.7309,4.7309,0.0,0.0,4.7309,4.7309,4.8267,4.909,4.9299,5.0242,5.0973,5.1199,5.2396,5.3743,5.5089,5.5179,5.5179,5.5179,5.5179,5.5179,5.5179,5.533,5.5631,5.5979,5.6176,5.6421,5.681,5.6519,5.6274,5.5979,5.5731,5.5431,5.5179,5.5179,5.5179,5.5179,5.5179,5.5179,5.5059,5.3713,5.3174,5.3025,5.1708,5.1323,5.1433,5.1276,5.1323,5.1433,5.1276,5.1229,5.1229,5.1386,5.1339,5.1229,5.1229,5.1229,5.1229,5.1229,5.1229,5.1229,5.1229,5.1229,5.1229,5.1229,5.1229,5.1229,5.1229,5.1229,5.1229,5.1229,5.1229,5.1229,5.1229,5.1229,5.1229,5.1229,5.1229,5.1229,5.1229,5.1229,5.1229,5.1229,5.1229,5.1229,5.1229,5.1229,5.1319,5.1498,5.1947,5.2276,5.2486,5.3144,5.3503,5.3503,5.4162,5.4491,5.4521,5.497,5.5179,4.1747,4.262,4.3377,4.6518,4.7309,4.7309,0.0,4.7309,4.7309,4.7309,4.7309,4.7309,4.7309,4.7309,4.7309,4.7309,4.7309,0.0,4.7309,4.7878,4.8536,4.9239,4.9853,5.0465,5.1169,5.2396,5.3743,5.5089,5.5179,5.5179,5.5179,5.5179,5.5179,5.5179,5.5731,5.5979,5.5979,5.6519,5.681,5.681,5.6519,5.6274,5.5979,5.5731,5.5431,5.5179,5.5179,5.5179,5.5179,5.5179,5.5179,5.5059,5.3713,5.3174,5.3025,5.1708,5.1229,5.1229,5.1229,5.1229,5.1229,5.1229,5.1229,5.1229,5.1229,5.1229,5.1229,5.1229,5.1229,5.1229,5.1229,5.1229,5.1229,5.1229,5.1229,5.1229,5.1229,5.1229,5.1229,5.1229,5.1229,5.1229,5.1229,5.1229,5.1229,5.1229,5.1229,5.1229,5.1229,5.1229,5.1229,5.1229,5.1229,5.1229,5.1229,5.1229,5.1229,5.1229,5.1229,5.1498,5.2157,5.2187,5.2516,5.3144,5.3832,5.4192,5.4192,5.485,5.5179,5.5179,5.5179,5.5179,4.0886,4.2081,4.317,4.5667,4.677,4.7309,4.7309,4.7309,4.7309,4.7309,4.7309,4.7309,4.7309,4.7309,4.7309,4.7309,4.7309,0.0,4.7309,4.7878,4.8536,4.9239,5.0242,5.1349,5.2456,5.2935,5.3743,5.5089,5.5179,5.5179,5.5179,5.5179,5.5179,5.5179,5.5531,5.583,5.5979,5.6372,5.6616,5.681,5.6713,5.6421,5.5979,5.5929,5.5631,5.5179,5.5179,5.5179,5.5179,5.5179,5.491,5.4431,5.3533,5.2905,5.2396,5.1528,5.1229,5.1229,5.1229,5.1229,5.1229,5.1229,5.1229,5.1229,5.1229,5.1229,5.1229,5.1229,5.1229,5.1229,5.1229,5.1229,5.1229,5.1229,5.1229,5.1229,5.1229,5.1229,5.1229,5.1229,5.1229,5.1229,5.1229,5.1229,5.1229,5.1229,5.1229,5.1229,5.1229,5.1229,5.1229,5.1229,5.1229,5.1229,5.1229,5.1229,5.1409,5.1858,5.1887,5.2187,5.2845,5.3324,5.3683,5.3892,5.4551,5.488,5.488,5.5089,5.5179,5.5179,5.5179,5.5179,4.1069,4.2126,4.317,4.5756,4.655,4.6814,4.7222,4.7309,4.7309,4.7309,4.7309,4.7309,4.7309,4.7309,4.7309,4.7309,4.7309,4.7309,4.7309,4.7668,4.8267,4.9209,5.0421,5.1648,5.2695,5.3025,5.3623,5.473,5.5059,5.5179,5.5179,5.5179,5.5179,5.5179,5.5581,5.583,5.5979,5.6372,5.6616,5.681,5.681,5.6567,5.6176,5.6176,5.5929,5.5481,5.5381,5.533,0.0,5.5229,5.479,5.4132,5.3443,5.2785,5.2127,5.1468,5.1229,5.1229,5.1229,5.1229,5.1229,5.1229,5.1229,5.1229,5.1229,5.1229,5.1229,5.1229,5.1229,5.1229,5.1229,5.1229,5.1229,5.1229,5.1229,5.1229,5.1229,5.1229,5.1229,5.1229,5.1229,5.1229,5.1229,5.1229,5.1229,5.1229,5.1229,5.1229,5.1229,5.1229,5.1229,5.1229,5.1229,5.1319,5.1558,5.1588,5.1768,5.2187,5.2426,5.2875,5.3533,5.3982,5.4341,5.4581,5.497,5.5179,5.5179,5.5179,5.5179,5.5179,5.5179,5.5179,0.0,4.262,4.3348,4.643,4.655,4.6166,4.7062,4.7309,0.0,4.7309,4.7309,4.7309,4.7309,4.7309,4.7309,4.7309,4.7309,4.7309,4.7309,4.7399,4.7908,4.9179,5.0421,5.1468,5.2127,5.2785,5.3473,5.4162,5.482,5.5179,5.5179,5.5179,5.5179,5.5179,5.5731,5.5979,5.5979,5.6519,5.681,5.681,5.681,5.6664,5.6421,5.6372,5.6225,5.5979,5.5731,5.5581,5.5581,5.533,5.484,5.4072,5.3443,5.2803,5.2115,5.1439,5.1229,5.1229,5.1229,5.1229,5.1229,5.1229,5.1229,5.1229,5.1229,5.1229,5.1229,5.1229,5.1229,5.1229,5.1229,5.1229,5.1229,5.1229,5.1229,5.1229,5.1229,5.1229,5.1229,5.1229,5.1229,5.1229,5.1229,5.1229,5.1229,5.1229,5.1229,5.1229,5.1229,5.1229,5.1229,5.1289,5.1289,5.1558,5.2217,5.2217,5.2247,5.2336,5.2905,5.3563,5.4251,5.4281,5.4551,5.5179,5.5179,5.5179,5.5179,5.5179,5.5179,5.5179,5.5179,5.5179,4.2193,0.0,4.3979,4.5726,4.655,4.7019,0.0,4.7309,4.7309,4.7309,4.7309,4.7309,4.7309,4.7309,4.7309,4.7309,4.7309,4.7309,4.7309,4.8177,4.897,4.9269,5.0421,5.1468,5.2127,5.2785,5.3473,5.4162,5.482,5.5179,5.5179,5.5179,5.5179,5.5179,5.5731,5.5979,5.5979,5.6519,5.681,5.681,5.681,5.6664,5.6372,5.6176,5.6077,5.5979,5.5731,5.5581,5.5581,5.5531,5.4789,5.3736,5.3361,5.26,5.172,5.1306,5.1229,5.1229,5.1229,5.1229,5.1229,5.1229,5.1229,5.1229,5.1229,5.1229,5.1229,5.1229,5.1229,5.1229,5.1229,5.1229,5.1229,5.1229,5.1229,5.1229,5.1229,5.1229,5.1229,5.1229,5.1229,5.1229,5.1229,5.1229,5.1229,5.1229,5.1229,5.1229,5.1229,5.1229,5.1409,5.1917,5.1977,5.2247,5.2905,5.2486,5.2636,5.3683,5.3892,5.4281,5.494,5.497,5.5029,5.5179,5.5179,5.5179,5.5179,5.5179,5.5179,5.5179,5.5179,5.5179,4.2237,4.3211,4.4269,4.6065,4.655,4.6726,4.7222,4.7309,4.7309,4.7309,4.7309,4.7309,4.7309,4.7309,4.7309,4.7309,4.7309,4.7309,4.7309,4.8446,4.9299,4.9299,5.0421,5.1349,5.1708,5.2606,5.3324,5.3713,5.464,5.5179,5.5179,5.5179,5.5179,5.5179,5.5731,5.5979,5.5979,5.6519,5.681,5.681,5.681,5.6713,5.6567,5.6421,5.6323,5.6176,5.6028,5.588,5.575,5.5448,5.4624,5.3592,5.3116,5.2317,5.1386,5.1246,5.1229,5.1229,5.1229,5.1229,5.1229,5.1229,5.1229,5.1289,5.1588,5.1678,5.1618,5.1319,5.1229,5.1229,5.1229,5.1229,5.1229,5.1229,5.1229,5.1229,5.1229,5.1229,5.1229,5.1229,5.1229,5.1229,5.1229,5.1229,5.1229,5.1229,5.1229,5.1319,5.1618,5.1678,5.1917,5.2576,5.2665,5.2935,5.3593,5.3324,5.3443,5.4162,5.4491,5.482,5.5179,5.5179,5.5179,5.5179,5.5179,5.5179,5.5179,5.5179,5.5179,5.5179,5.5179,5.5179,4.2386,4.3386,4.4557,4.6734,4.6638,4.6255,4.7106,4.7309,4.7309,4.7309,4.7309,4.7309,4.7309,4.7309,4.7309,4.7309,4.7309,4.7309,4.7309,4.8446,4.9299,4.9299,5.0421,5.1229,5.1229,5.2306,5.3084,5.3174,5.4341,5.5089,5.5179,5.5179,5.5179,5.5179,5.5731,5.5979,5.5979,5.6519,5.681,5.681,5.681,5.681,5.681,5.6761,5.6664,5.647,5.6421,5.6274,5.6017,5.5348,5.4534,5.3627,5.2916,5.2111,5.1323,5.1276,5.1229,5.1229,5.1229,5.1229,5.1229,5.1229,5.1289,5.1468,5.2037,5.2276,5.2247,5.1678,5.1528,5.1528,5.1528,5.1528,5.1528,5.1528,5.1528,5.1528,5.1528,5.1439,5.1379,5.1379,5.1289,5.1259,5.1349,5.1379,5.1409,5.1498,5.1528,5.1708,5.2276,5.2336,5.2606,5.3264,5.3324,5.3623,5.4311,5.4371,5.4371,5.4371,5.488,5.5179,5.5179,5.5179,5.5179,5.5179,5.5179,5.5179,5.5179,5.5179,5.5179,5.5179,5.5179,5.5179,4.3142,4.4376,4.5436,4.6937,4.7149,4.7106,4.7266,4.7309,4.7309,4.7309,4.7309,4.7309,4.7309,4.7309,4.7309,4.7309,4.7309,4.7309,4.7309,4.8446,4.9299,4.9299,5.0421,5.1229,5.1229,5.1917,5.2576,5.3144,5.3922,5.461,5.5149,5.5179,5.5179,5.5179,5.5731,5.5979,5.5979,5.6519,5.681,5.681,5.681,5.681,5.681,5.6567,5.6567,5.6713,5.6519,5.6372,5.6262,5.556,5.4809,5.4121,5.3294,5.2486,5.1864,5.1649,5.1386,5.1229,5.1229,5.1229,5.1229,5.1229,5.1588,5.2067,5.2187,5.2606,5.3025,5.2905,5.2875,5.2875,5.2875,5.2875,5.2875,5.2875,5.2875,5.2875,5.2875,5.2456,5.2067,5.2067,5.1588,5.1379,5.1947,5.2067,5.2247,5.2785,5.2875,5.2905,5.3025,5.3025,5.3294,5.3982,5.4042,5.4311,5.497,5.5029,5.5029,5.5029,5.5119,5.5179,5.5179,5.5179,5.5179,5.5179,5.5179,5.5179,5.5179,5.5179,5.5179,5.5179,5.5179,5.5179,4.2737,4.4235,4.5603,4.698,4.7309,4.7309,4.7309,4.7309,4.7309,4.7309,4.7309,4.7309,4.7309,4.7309,4.7309,4.7309,4.7309,4.7309,4.7309,4.8446,4.9299,4.9299,5.0421,5.1229,5.1229,5.1828,5.2486,5.3144,5.3832,5.4491,5.5149,5.5179,5.5179,5.5179,5.5731,5.5979,5.5979,5.6519,5.681,5.681,5.681,5.681,5.681,5.6664,5.6616,5.6567,5.6616,5.6519,5.6329,5.5385,5.4741,5.4232,5.3054,5.2383,5.2002,5.1695,5.1433,5.1229,5.1229,5.1229,5.1289,5.1618,5.1947,5.2336,5.3054,5.3503,5.3803,5.4162,5.3743,5.3174,5.3174,5.3174,5.3174,5.3174,5.3174,5.3174,5.3174,5.2935,5.2725,5.2725,5.2486,5.2366,5.2665,5.2725,5.2845,5.3144,5.3174,5.3324,5.3683,5.3743,5.3982,5.467,5.473,5.485,5.5149,5.5179,5.5179,5.5179,5.5179,5.5179,5.5179,5.5179,5.5179,5.5179,5.5179,5.5179,5.5179,5.5179,5.5179,5.5179,5.5179,5.5179,4.2737,4.4235,4.5603,4.698,4.7309,4.7309,4.7309,4.7309,4.7309,4.7309,4.7309,4.7309,4.7309,4.7352,4.7396,4.7396,4.7439,4.7482,4.7482,4.8549,4.9389,4.9464,5.0559,5.1293,5.1293,5.1772,5.2294,5.2905,5.3443,5.4102,5.491,5.497,5.5029,5.5179,5.5731,5.5979,5.5979,5.6519,5.681,5.681,5.681,5.681,5.681,5.681,5.6713,5.6519,5.6713,5.6572,5.6181,5.5128,5.4497,5.4081,5.2887,5.2246,5.2002,5.1695,5.1433,5.1229,5.1229,5.1229,5.1319,5.1977,5.2306,5.2665,5.3832,5.4311,5.4551,5.5059,5.4461,5.3653,5.3653,5.3653,5.3653,5.3653,5.3653,5.3653,5.3653,5.3533,5.3414,5.3414,5.3294,5.3234,5.3384,5.3414,5.3473,5.3623,5.3653,5.3832,5.4371,5.4431,5.464,5.5149,5.5179,5.5179,5.5179,5.5179,5.5179,5.5179,5.5179,5.5179,5.5179,5.5179,5.5179,5.5179,5.5179,5.5179,5.5179,5.5179,5.5179,5.5179,5.5179,5.5179,4.4263,4.5221,4.5603,4.698,4.7309,4.7309,4.7309,4.7309,4.7309,4.7309,4.7309,4.7309,4.7309,4.7482,4.7581,4.7581,4.7794,4.7964,4.7964,4.89,4.9658,4.991,5.0925,5.1572,5.1572,5.1632,5.184,5.2217,5.2306,5.2905,5.4221,5.4281,5.4551,5.5179,5.5731,5.5979,5.5979,5.6519,5.681,5.681,5.681,5.681,5.681,5.681,5.681,5.6761,5.681,5.6392,5.5715,5.496,5.4314,5.3668,5.293,5.2413,5.2002,5.1695,5.1433,5.1229,5.1229,5.1229,5.1319,5.1977,5.2606,5.3234,5.3982,5.464,5.5119,5.5179,5.5119,5.5059,5.5059,5.5059,5.5059,5.5059,5.5059,5.5059,5.5059,5.4581,5.4132,5.4132,5.3623,5.3384,5.4012,5.4132,5.4341,5.494,5.5059,5.5059,5.5119,5.5119,5.5149,5.5179,5.5179,5.5179,5.5179,5.5179,5.5179,5.5179,5.5179,5.5179,5.5179,5.5179,5.5179,5.5179,5.5179,5.5179,5.5179,5.5179,5.5179,5.5179,5.5179,5.5179,4.3897,4.487,4.5603,4.698,4.7309,4.7309,4.7309,4.7396,4.7482,4.7352,4.7495,4.7666,4.7495,4.7666,4.7794,4.7624,4.7837,4.8159,4.8554,4.9347,5.0061,5.0575,5.1334,5.1787,5.1618,5.1572,5.178,5.2157,5.2187,5.2606,5.3533,5.413,5.4559,5.483,5.5766,5.6274,5.6274,5.6616,5.681,5.681,5.681,5.681,5.681,5.681,5.681,5.681,5.681,5.6361,5.5653,5.5007,5.4283,5.3607,5.2975,5.2473,5.2155,5.1926,5.1695,5.1386,5.1276,5.1229,5.1379,5.2456,5.2965,5.3384,5.4491,5.4999,5.5179,5.5179,5.5179,5.5179,5.5179,5.5179,5.5179,5.5179,5.5179,5.5179,5.5179,5.4999,5.482,5.482,5.461,5.4521,5.479,5.482,5.491,5.5149,5.5179,5.5179,5.5179,5.5179,5.5179,5.5179,5.5179,5.5179,5.5179,5.5179,5.5179,5.5179,5.5179,5.5179,5.5179,5.5179,5.5179,5.5179,5.5179,5.5179,5.5179,5.5179,5.5179,5.5179,5.5179,5.5179,4.3956,4.4963,4.5903,4.701,4.7309,4.7309,4.7396,4.7495,4.7581,4.7495,4.7709,4.7837,4.7752,4.788,4.7964,4.7837,4.8049,4.8462,4.9133,4.9748,5.0374,5.1133,5.1759,5.2017,5.1849,5.1757,5.183,5.2,5.1935,5.2187,5.2845,5.3567,5.4074,5.4285,5.5244,5.573,5.573,5.6203,5.6471,5.6471,5.6717,5.681,5.681,5.681,5.681,5.681,5.6563,5.6023,5.5345,5.4668,5.3976,5.3345,5.2883,5.2563,5.2261,5.2063,5.188,5.1695,5.1323,5.1276,5.1533,5.2803,5.3174,5.3443,5.479,5.5179,5.5179,5.5179,5.5179,5.5179,5.5179,5.5179,5.5179,5.5179,5.5179,5.5179,5.5179,5.5179,5.5179,5.5179,5.5179,5.5179,5.5179,5.5179,5.5179,5.5179,5.5179,5.5179,5.5179,5.5179,5.5179,5.5179,5.5179,5.5179,5.5179,5.5179,5.5179,5.5179,5.5179,5.5179,5.5179,5.5179,5.5179,5.5179,5.5179,5.5179,5.5179,5.5179,5.5179,5.5179,5.5179,5.5179,4.4888,4.5813,4.6429,4.713,4.7309,4.7352,4.7538,4.7581,4.7666,4.7964,4.7794,4.7666,4.7964,4.8007,4.8049,4.826,4.8438,4.8881,4.9589,5.0064,5.0651,5.1577,5.2044,5.2306,5.2306,5.2109,5.188,5.1618,5.1339,5.1498,5.2157,5.2455,5.2928,5.3592,5.404,5.4293,5.4293,5.5251,5.5684,5.5684,5.644,5.681,5.681,5.681,5.681,5.6748,5.5992,5.5315,5.4621,5.3991,5.3314,5.2698,5.2698,5.2563,5.2261,5.2063,5.2002,5.191,5.1369,5.1339,5.1767,5.2852,5.3174,5.3443,5.479,5.5179,5.5179,5.5179,5.5179,5.5179,5.5179,5.5179,5.5179,5.5179,5.5179,5.5179,5.5179,5.5179,5.5179,5.5179,5.5179,5.5179,5.5179,5.5179,5.5179,5.5179,5.5179,5.5179,5.5179,5.5179,5.5179,5.5179,5.5179,5.5179,5.5179,5.5179,5.5179,5.5179,5.5179,5.5179,5.5179,5.5179,5.5179,5.5179,5.5179,5.5179,5.5179,5.5179,5.5179,5.5179,5.5179,5.5179,4.5042,4.5813,4.6429,4.713,4.7309,4.7352,4.7538,4.7581,4.7709,4.8133,4.8175,4.8133,4.8218,4.8343,4.8427,4.8343,4.8438,4.9035,5.0236,5.0531,5.101,5.2267,5.2485,5.2427,5.2109,5.2048,5.1787,5.1339,5.1246,5.1336,5.178,5.2497,5.3017,5.3387,5.4173,5.4589,5.4589,5.4868,5.5007,5.5007,5.5222,5.5838,5.6779,5.6238,5.6023,5.5961,5.5315,5.4637,5.3914,5.3283,5.2883,5.2698,5.2698,5.2653,5.2518,5.2139,5.2002,5.191,5.1369,5.1246,5.1533,5.2803,5.3174,5.3443,5.479,5.5179,5.5179,5.5179,5.5179,5.5179,5.5179,5.5179,5.5179,5.5179,5.5179,5.5179,5.5179,5.5179,5.5179,5.5179,5.5179,5.5179,5.5179,5.5179,5.5179,5.5179,5.5179,5.5179,5.5179,5.5179,5.5179,5.5179,5.5179,5.5179,5.5179,5.5179,5.5179,5.5179,5.5179,5.5179,5.5179,5.5179,5.5179,5.5179,5.5179,5.5179,5.5179,5.5179,5.5179,5.5179,5.5179,5.5179,4.5514,4.6202,4.68,4.7219,4.7309,4.7352,4.7538,4.7752,4.8007,4.8313,4.8385,4.8343,4.8396,4.8438,4.8469,4.8427,4.8521,4.9097,5.0513,5.0697,5.119,5.2544,5.2698,5.2563,5.2155,5.2048,5.1787,5.1416,5.1369,5.1433,5.1572,5.229,5.278,5.2918,5.3546,5.3929,5.3929,5.416,5.4283,5.4283,5.456,5.5161,5.593,5.5499,5.5315,5.5284,5.456,5.3914,5.3283,5.2883,5.2698,5.2698,5.2698,5.2698,5.2608,5.2185,5.2048,5.2017,5.1416,5.1456,5.194,5.2893,5.3354,5.3803,5.485,5.5179,5.5179,5.5179,5.5179,5.5179,5.5179,5.5179,5.5179,5.5179,5.5179,5.5179,5.5179,5.5179,5.5179,5.5179,5.5179,5.5179,5.5179,5.5179,5.5179,5.5179,5.5179,5.5179,5.5179,5.5179,5.5179,5.5179,5.5179,5.5179,5.5179,5.5179,5.5179,5.5179,5.5179,5.5179,5.5179,5.5179,5.5179,5.5179,5.5179,5.5179,5.5179,5.5179,5.5179,5.5179,5.5179,5.5179,4.6142,4.68,4.7309,4.7309,4.7309,4.7352,4.7581,4.7964,4.8343,4.8521,4.8438,4.8355,4.8563,4.8438,4.8385,4.8563,4.8604,4.9097,5.0513,5.0697,5.119,5.2544,5.2698,5.2563,5.2306,5.2109,5.188,5.1618,5.1572,5.1618,5.1665,5.2079,5.2306,5.2352,5.2563,5.2698,5.2698,5.3314,5.3622,5.3652,5.4222,5.4498,5.4498,5.456,5.456,5.4468,5.3853,5.3283,5.2698,5.2698,5.2698,5.2698,5.2698,5.2698,5.2684,5.22,5.2155,5.2215,5.1479,5.1837,5.267,5.3061,5.3653,5.4341,5.4999,5.5179,5.5179,5.5179,5.5179,5.5179,5.5179,5.5179,5.5179,5.5179,5.5179,5.5179,5.5179,5.5179,5.5179,5.5179,5.5179,5.5179,5.5179,5.5179,5.5179,5.5179,5.5179,5.5179,5.5179,5.5179,5.5179,5.5179,5.5179,5.5179,5.5179,5.5179,5.5179,5.5179,5.5179,5.5179,5.5179,5.5179,5.5179,5.5179,5.5179,5.5179,5.5179,5.5179,5.5179,5.5179,5.5179,5.5179,4.6142,4.68,4.7309,4.7309,4.7309,4.7439,4.7794,4.8007,4.8133,4.8343,4.8469,4.8521,4.8563,4.8563,4.8521,4.8563,4.8604,4.9097,5.0513,5.0697,5.119,5.2544,5.2698,5.2518,5.2109,5.2048,5.188,5.1618,5.1572,5.1757,5.2124,5.2261,5.2397,5.2608,5.2653,5.2698,5.2698,5.2852,5.2944,5.2944,5.3067,5.316,5.316,5.3714,5.3652,5.3129,5.3006,5.2852,5.2698,5.2698,5.2698,5.2698,5.2698,5.2698,5.2653,5.2352,5.2261,5.2215,5.1711,5.2008,5.267,5.3061,5.3653,5.4341,5.4999,5.5179,5.5179,5.5179,5.5179,5.5179,5.5179,5.5179,5.5179,5.5179,5.5179,5.5179,5.5179,5.5179,5.5179,5.5179,5.5179,5.5179,5.5179,5.5179,5.5179,5.5179,5.5179,5.5179,5.5179,5.5179,5.5179,5.5179,5.5179,5.5179,5.5179,5.5179,5.5179,5.5179,5.5179,5.5179,5.5179,5.5179,5.5179,5.5179,5.5179,5.5179,5.5179,5.5179,5.5179,5.5179,5.5179,5.5179,4.6621,4.704,4.7309,4.7309,4.7309,4.7396,4.7709,4.7794,4.788,4.826,4.8469,4.8604,4.8604,4.8604,4.8604,4.8604,4.8604,4.8974,5.0051,5.0482,5.1067,5.2113,5.2513,5.2563,5.22,5.2155,5.2063,5.1787,5.1849,5.2033,5.2306,5.2397,5.2563,5.2698,5.2698,5.2698,5.2698,5.2698,5.2698,5.2698,5.2698,5.2698,5.2729,5.3067,5.3037,5.2698,5.2698,5.2698,5.2698,5.2698,5.2698,5.2698,5.2698,5.2698,5.2653,5.2397,5.2306,5.2215,5.1757,5.2235,5.3092,5.3181,5.3862,5.473,5.5089,5.5179,5.5179,5.5179,5.5179,5.5179,5.5179,5.5179,5.5179,5.5179,5.5179,5.5179,5.5179,5.5179,5.5179,5.5179,5.5179,5.5179,5.5179,5.5179,5.5179,5.5179,5.5179,5.5179,5.5179,5.5179,5.5179,5.5179,5.5179,5.5179,5.5179,5.5179,5.5179,5.5179,5.5179,5.5179,5.5179,5.5179,5.5179,5.5179,5.5179,5.5179,5.5179,5.5179,5.5179,5.5179,5.5179,5.5179,4.713,4.7309,4.7309,4.7309,4.7309,4.7352,4.7538,4.7581,4.7709,4.8218,4.8438,4.8563,4.8563,4.8604,4.8604,4.8604,4.8604,4.8881,4.9589,5.0266,5.0944,5.1621,5.2298,5.2608,5.2352,5.2306,5.2215,5.2063,5.2246,5.2306,5.2352,5.2563,5.2698,5.2698,5.2698,5.2698,5.2698,5.2698,5.2698,5.2698,5.2698,5.2698,5.2698,5.2698,5.2698,5.2698,5.2698,5.2698,5.2698,5.2698,5.2698,5.2698,5.2698,5.2698,5.2653,5.2442,5.2352,5.2261,5.1955,5.2614,5.3574,5.3421,5.4192,5.5179,5.5179,5.5179,5.5179,5.5179,5.5179,5.5179,5.5179,5.5179,5.5179,5.5179,5.5179,5.5179,5.5179,5.5179,5.5179,5.5179,5.5179,5.5179,5.5179,5.5179,5.5179,5.5179,5.5179,5.5179,5.5179,5.5179,5.5179,5.5179,5.5179,5.5179,5.5179,5.5179,5.5179,5.5179,5.5179,5.5179,5.5179,5.5179,5.5179,5.5179,5.5179,5.5179,5.5179,5.5179,5.5179,5.5179,5.5179,5.5179,4.713,4.7309,4.7309,4.7309,4.7309,4.7352,4.7538,4.7581,4.7709,4.8218,4.8343,4.8385,4.8563,4.8604,4.8604,4.8604,4.8604,4.8881,4.9589,5.0266,5.0944,5.1621,5.2298,5.2608,5.2352,5.2306,5.2306,5.2261,5.2306,5.2397,5.2608,5.2653,5.2698,5.2698,5.2698,5.2698,5.2698,5.2698,5.2698,5.2698,5.2698,5.2698,5.2698,5.2698,5.2698,5.2698,5.2698,5.2698,5.2698,5.2698,5.2698,5.2698,5.2698,5.2698,5.2698,5.2653,5.2518,5.2352,5.2686,5.3149,5.3664,5.3991,5.4581,5.5179,5.5179,5.5179,5.5179,5.5179,5.5179,5.5179,5.5179,5.5179,5.5179,5.5179,5.5179,5.5179,5.5179,5.5179,5.5179,5.5179,5.5179,5.5179,5.5179,5.5179,5.5179,5.5179,5.5179,5.5179,5.5179,5.5179,5.5179,5.5179,5.5179,5.5179,5.5179,5.5179,5.5179,5.5179,5.5179,5.5179,5.5179,5.5179,5.5179,5.5179,5.5179,5.5179,5.5179,5.5179,5.5179,5.5179,5.5179,5.5179,4.7219,4.7309,4.7309,4.7309,4.7309,4.7309,4.7439,4.7409,4.7495,4.7837,4.8049,4.8218,4.8521,4.8604,4.8604,4.8604,4.8604,4.8727,4.9035,4.9682,5.0389,5.1067,5.1744,5.2253,5.2532,5.2518,5.2518,5.2518,5.2518,5.2563,5.2698,5.2698,5.2698,5.2698,5.2698,5.2698,5.2698,5.2698,5.2698,5.2698,5.2698,5.2698,5.2698,5.2698,5.2698,5.2698,5.2698,5.2698,5.2698,5.2698,5.2698,5.2698,5.2698,5.2698,5.2698,5.2698,5.2518,5.2352,5.2854,5.3239,5.3664,5.4031,5.464,5.5179,5.5179,5.5179,5.5179,5.5179,5.5179,5.5179,5.5179,5.5179,5.5179,5.5179,5.5179,5.5179,5.5179,5.5179,5.5179,5.5179,5.5179,5.5179,5.5179,5.5179,5.5179,5.5179,5.5179,5.5179,5.5179,5.5179,5.5179,5.5179,5.5179,5.5179,5.5179,5.5179,5.5179,5.5179,5.5179,5.5179,5.5179,5.5179,5.5179,5.5179,5.5179,5.5179,5.5179,5.5179,5.5179,5.5179,5.5179,5.5179,4.7309,4.7309,4.7309,4.7309,4.7309,4.7309,4.7309,4.7309,4.7352,4.7538,4.7794,4.8091,4.8469,4.8593,4.8604,4.8604,4.8604,4.8604,4.8604,4.922,4.9928,5.0605,5.1282,5.1915,5.2547,5.2608,5.2563,5.2549,5.2563,5.2608,5.2608,5.2653,5.2698,5.2698,5.2698,5.2698,5.2698,5.2698,5.2698,5.2698,5.2698,5.2698,5.2698,5.2698,5.2698,5.2698,5.2698,5.2698,5.2698,5.2698,5.2698,5.2698,5.2698,5.2698,5.2698,5.2608,5.2519,5.2536,5.3004,5.3386,5.3838,5.4301,5.479,5.5179,5.5179,5.5179,5.5179,5.5179,5.5179,5.5179,5.5179,5.5179,5.5179,5.5179,5.5179,5.5179,5.5179,5.5179,5.5179,5.5179,5.5179,5.5179,5.5179,5.5179,5.5179,5.5179,5.5179,5.5179,5.5179,5.5179,5.5179,5.5179,5.5179,5.5179,5.5179,5.5179,5.5179,5.5179,5.5179,5.5179,5.5179,5.5179,5.5179,5.5179,5.5179,5.5179,5.5179,5.5179,5.5179,5.5179,5.5179,5.5179,4.7309,4.7309,4.7309,4.7309,4.7309,4.7309,4.7309,4.7309,4.7352,4.7538,4.7794,4.8049,4.8301,4.8438,4.8604,4.8604,4.8604,4.8604,4.8604,4.922,4.9928,5.0605,5.1282,5.1871,5.229,5.2306,5.2215,5.2048,5.2246,5.2306,5.2306,5.2563,5.2698,5.2698,5.2698,5.2698,5.2698,5.2698,5.2698,5.2698,5.2698,5.2698,5.2698,5.2698,5.2698,5.2698,5.2698,5.2698,5.2698,5.2698,5.2698,5.2698,5.2698,5.2698,5.2653,5.2397,5.2597,5.3034,5.3416,5.3838,5.4281,5.491,5.5149,5.5179,5.5179,5.5179,5.5179,5.5179,5.5179,5.5179,5.5179,5.5179,5.5179,5.5179,5.5179,5.5179,5.5179,5.5179,5.5179,5.5179,5.5179,5.5179,5.5179,5.5179,5.5179,5.5179,5.5179,5.5179,5.5179,5.5179,5.5179,5.5179,5.5179,5.5179,5.5179,5.5179,5.5179,5.5179,5.5179,5.5179,5.5179,5.5179,5.5179,5.5179,5.5179,5.5179,5.5179,5.5179,5.5179,5.5179,5.5179,5.5179,4.7309,4.7309,4.7309,4.7309,4.7309,4.7309,4.7309,4.7309,4.7309,4.7396,4.7581,4.7752,4.7837,4.8229,4.8604,4.8604,4.8604,4.8604,4.8604,4.885,4.9251,4.9959,5.0636,5.1269,5.1857,5.2287,5.2473,5.2246,5.2261,5.2261,5.2109,5.2337,5.2442,5.2442,5.2608,5.2698,5.2698,5.2698,5.2698,5.2698,5.2698,5.2698,5.2698,5.2698,5.2698,5.2698,5.2698,5.2698,5.2698,5.2698,5.2698,5.2698,5.2698,5.2698,5.2715,5.2872,5.2947,5.3108,5.396,5.4209,5.4311,5.497,5.5179,5.5179,5.5179,5.5179,5.5179,5.5179,5.5179,5.5179,5.5179,5.5179,5.5179,5.5179,5.5179,5.5179,5.5179,5.5179,5.5179,5.5179,5.5179,5.5179,5.5179,5.5179,5.5179,5.5179,5.5179,5.5179,5.5179,5.5179,5.5179,5.5179,5.5179,5.5179,5.5179,5.5179,5.5179,5.5179,5.5179,5.5179,5.5179,5.5179,5.5179,5.5179,5.5179,5.5179,5.5179,5.5179,5.5179,5.5179,5.5179,5.5179,4.7309,4.7309,4.7309,4.7309,4.7309,4.7309,4.7309,4.7309,4.7309,4.7309,4.7482,4.7581,4.7581,4.8091,4.848,4.848,4.8563,4.8604,4.8604,4.8604,4.8881,4.9589,5.0082,5.0654,5.1458,5.1935,5.2092,5.2048,5.2079,5.1987,5.188,5.2063,5.2215,5.2306,5.2442,5.2608,5.2698,5.2698,5.2698,5.2698,5.2698,5.2698,5.2698,5.2698,5.2698,5.2698,5.2698,5.2698,5.2698,5.2698,5.2698,5.2698,5.2698,5.2762,5.2917,5.3147,5.3324,5.365,5.4236,5.449,5.461,5.5059,5.5179,5.5179,5.5179,5.5179,5.5179,5.5179,5.5179,5.5179,5.5179,5.5179,5.5179,5.5179,5.5179,5.5179,5.5179,5.5179,5.5179,5.5179,5.5179,5.5179,5.5179,5.5179,5.5179,5.5179,5.5179,5.5179,5.5179,5.5179,5.5179,5.5179,5.5179,5.5179,5.5179,5.5179,5.5179,5.5179,5.5179,5.5179,5.5179,5.5179,5.5179,5.5179,5.5179,5.5179,5.5179,5.5179,5.5179,5.5179,5.5179,5.5179,0.0,0.0,0.0,4.7309,4.7309,4.7309,4.7309,4.7309,4.7309,4.7309,4.7482,4.7581,4.7581,4.7964,4.8301,4.8301,4.8469,4.8604,4.8604,4.8604,4.8881,4.9558,4.9682,5.0088,5.1114,5.1074,5.1183,5.1558,5.1572,5.1572,5.1572,5.1834,5.2063,5.2306,5.2306,5.2397,5.2698,5.2698,5.2698,5.2698,5.2698,5.2698,5.2698,5.2698,5.2698,5.2698,5.2698,5.2698,5.2698,5.2698,5.2698,5.2698,5.2684,5.2978,5.3253,5.3128,5.3741,5.4537,5.4321,5.467,5.5179,5.5179,5.5179,5.5179,5.5179,5.5179,5.5179,5.5179,5.5179,5.5179,5.5179,5.5179,5.5179,5.5179,5.5179,5.5179,5.5179,5.5179,5.5179,5.5179,5.5179,5.5179,5.5179,5.5179,5.5179,5.5179,5.5179,5.5179,5.5179,5.5179,5.5179,5.5179,5.5179,5.5179,5.5179,5.5179,5.5179,5.5179,5.5179,5.5179,5.5179,5.5179,5.5179,5.5179,5.5179,5.5179,5.5179,5.5179,5.5179,5.5179,5.5179,5.5179,4.7309,0.0,0.0,0.0,0.0,0.0,4.7309,4.7309,4.7309,4.7309,4.7352,4.7396,4.7396,4.7624,4.7794,4.7794,4.826,4.8604,4.8604,4.8604,4.8613,4.8672,4.9132,4.9463,4.9613,5.0468,5.097,5.0894,5.1301,5.1556,5.1323,5.1556,5.1834,5.2063,5.2063,5.22,5.2397,5.2397,5.2518,5.2698,5.2698,5.2698,5.2698,5.2698,5.2698,5.2698,5.2698,5.2698,5.2698,5.2698,5.2698,5.2715,5.3024,5.3193,5.3375,5.3923,5.4334,5.4628,5.486,5.5029,5.5179,5.5179,5.5179,5.5179,5.5179,5.5179,5.5179,5.5179,5.5179,5.5179,5.5179,5.5179,5.5179,5.5179,5.5179,5.5179,5.5179,5.5179,5.5179,5.5179,5.5179,5.5179,5.5179,5.5179,5.5179,5.5179,5.5179,5.5179,5.5179,5.5179,5.5179,5.5179,5.5179,5.5179,5.5179,5.5179,5.5179,5.5179,5.5179,5.5179,5.5179,5.5179,5.5179,5.5179,5.5179,5.5179,5.5179,5.5179,5.5179,5.5179,5.5179,5.5179,4.7309,4.7309,4.7309,4.7309,0.0,0.0,4.7309,4.7309,4.7309,4.7309,4.7309,4.7309,4.7309,4.7452,4.7581,4.7581,4.8007,4.8355,4.8438,4.8396,4.8385,4.8427,4.8638,4.8846,4.9108,4.962,5.0139,5.0547,5.0878,5.1069,5.1199,5.1339,5.1556,5.1834,5.1834,5.1926,5.22,5.22,5.2291,5.2518,5.2518,5.2608,5.2698,5.2698,5.2698,5.2698,5.2698,5.2698,5.2698,5.2563,5.2518,5.2579,5.307,5.3343,5.352,5.4292,5.4718,5.487,5.511,5.5179,5.5179,5.5179,5.5179,5.5179,5.5179,5.5179,5.5179,5.5179,5.5179,5.5179,5.5179,5.5179,5.5179,5.5179,5.5179,5.5179,5.5179,5.5179,5.5179,5.5179,5.5179,5.5179,5.5179,5.5179,5.5179,5.5179,5.5179,5.5179,5.5179,5.5179,5.5179,5.5179,5.5179,5.5179,5.5179,5.5179,5.5179,5.5179,5.5179,5.5179,5.5179,5.5179,5.5179,5.5179,5.5179,5.5179,5.5179,5.5179,5.5179,5.5179,5.5179,5.5179,4.7309,4.7309,4.7309,4.7309,4.7309,0.0,4.7309,4.7309,4.7309,4.7309,4.7309,4.7309,4.7309,4.7439,4.7581,4.7581,4.7752,4.8007,4.826,4.8133,4.8133,4.8438,4.8175,4.825,4.8999,4.8776,4.9056,5.0231,5.0244,5.0465,5.1169,5.1229,5.1323,5.1526,5.1556,5.1695,5.1956,5.1956,5.2063,5.2261,5.2261,5.2397,5.2653,5.2608,5.2608,5.2653,5.2608,5.2608,5.2608,5.2352,5.2291,5.249,5.31,5.3489,5.3803,5.4417,5.487,5.5179,5.5179,5.5179,5.5179,5.5179,5.5179,5.5179,5.5179,5.5179,5.5179,5.5179,5.5179,5.5179,5.5179,5.5179,5.5179,5.5179,5.5179,5.5179,5.5179,5.5179,5.5179,5.5179,5.5179,5.5179,5.5179,5.5179,5.5179,5.5179,5.5179,5.5179,5.5179,5.5179,5.5179,5.5179,5.5179,5.5179,5.5179,5.5179,5.5179,5.5179,5.5179,5.5179,5.5179,5.5179,5.5179,5.5179,5.5179,5.5179,5.5179,5.5179,5.5179,5.5179,5.5179,5.5179,4.7309,4.7309,4.7309,4.7309,4.7309,0.0,4.7309,4.7309,4.7309,4.7309,4.7309,4.7309,4.7309,4.7352,4.7352,4.7352,4.7396,4.7581,4.8007,4.8007,4.7964,4.7794,4.7709,4.7684,4.7705,4.8099,4.8475,4.8745,4.9643,5.0465,5.1169,5.1229,5.1229,5.1276,5.1276,5.1416,5.1695,5.1695,5.1834,5.2063,5.2063,5.2155,5.2352,5.22,5.22,5.2352,5.22,5.2246,5.2352,5.2155,5.249,5.3131,5.3425,5.3929,5.4496,5.491,5.514,5.5179,5.5179,5.5179,5.5179,5.5179,5.5179,5.5179,5.5179,5.5179,5.5179,5.5179,5.5179,5.5179,5.5179,5.5179,5.5179,5.5179,5.5179,5.5179,5.5179,5.5179,5.5179,5.5179,5.5179,5.5179,5.5179,5.5179,5.5179,5.5179,5.5179,5.5179,5.5179,5.5179,5.5179,5.5179,5.5179,5.5179,5.5179,5.5179,5.5179,5.5179,5.5179,5.5179,5.5179,5.5179,5.5179,5.5179,5.5179,5.5179,5.5179,5.5179,5.5179,5.5179,5.5179,5.5179,4.7309,4.7309,4.7309,4.7309,4.7309,0.0,0.0,4.7309,4.7309,4.7309,4.7309,4.7309,4.7309,4.7309,4.7309,4.7309,4.7309,4.7396,4.7624,4.7624,4.7666,4.7794,4.7581,4.7482,4.7482,4.7652,4.8057,4.876,4.9673,5.0465,5.1169,5.1229,5.1229,5.1229,5.1229,5.1276,5.1386,5.1386,5.1556,5.1787,5.1787,5.1926,5.2155,5.2048,5.2094,5.2155,5.2017,5.2063,5.2185,5.2243,5.2742,5.3472,5.3567,5.3916,5.448,5.499,5.5179,5.5179,5.5179,5.5179,5.5179,5.5179,5.5179,5.5179,5.5179,5.5179,5.5179,5.5179,5.5179,5.5179,5.5179,5.5179,5.5179,5.5179,5.5179,5.5179,5.5179,5.5179,5.5179,5.5179,5.5179,5.5179,5.5179,5.5179,5.5179,5.5179,5.5179,5.5179,5.5179,5.5179,5.5179,5.5179,5.5179,5.5179,5.5179,5.5179,5.5179,5.5179,5.5179,5.5179,5.5179,5.5179,5.5179,5.5179,5.5179,5.5179,5.5179,5.5179,5.5179,5.5179,5.5179,5.5179,4.7309,4.7309,4.7309,4.7309,4.7309,4.7309,0.0,0.0,0.0,4.7309,4.7309,4.7309,4.7309,4.7309,4.7309,4.7309,4.7309,4.7309,4.7309,4.7309,4.7439,4.7794,4.7495,4.7352,4.7495,4.7396,4.7788,4.903,4.9673,5.0285,5.0943,5.1139,5.1229,5.1229,5.1229,5.1229,5.1229,5.1229,5.1323,5.1526,5.1526,5.1649,5.1926,5.1834,5.1834,5.1926,5.1864,5.191,5.194,5.2326,5.2971,5.3622,5.3694,5.3999,5.4461,5.4999,5.5179,5.5179,5.5179,5.5179,5.5179,5.5179,5.5179,5.5179,5.5179,5.5179,5.5179,5.5179,5.5179,5.5179,5.5179,5.5179,5.5179,5.5179,5.5179,5.5179,5.5179,5.5179,5.5179,5.5179,5.5179,5.5179,5.5179,5.5179,5.5179,5.5179,5.5179,5.5179,5.5179,5.5179,5.5179,5.5179,5.5179,5.5179,5.5179,5.5179,5.5179,5.5179,5.5179,5.5179,5.5179,5.5179,5.5179,5.5179,5.5179,5.5179,5.5179,5.5179,5.5179,5.5179,5.5179,5.5179,4.7309,4.7309,4.7309,4.7309,4.7309,4.7309,4.7309,0.0,4.7309,4.7309,0.0,4.7309,4.7309,0.0,0.0,4.7309,4.7309,4.7309,4.7309,4.7309,4.7309,4.7396,4.7352,4.7309,4.7352,4.7309,4.7608,4.8356,4.906,4.9673,5.0255,5.09,5.1229,5.1229,5.1229,5.1229,5.1229,5.1229,5.1229,5.1276,5.1276,5.1416,5.1618,5.1416,5.1416,5.1618,5.1416,5.1416,5.1679,5.209,5.2798,5.3634,5.401,5.4491,5.5089,5.5149,5.5179,5.5179,5.5179,5.5179,5.5179,5.5179,5.5179,5.5179,5.5179,5.5179,5.5179,5.5179,5.5179,5.5179,5.5179,5.5179,5.5179,5.5179,5.5179,5.5179,5.5179,5.5179,5.5179,5.5179,5.5179,5.5179,5.5179,5.5179,5.5179,5.5179,5.5179,5.5179,5.5179,5.5179,5.5179,5.5179,5.5179,5.5179,5.5179,5.5179,5.5179,5.5179,5.5179,5.5179,5.5179,5.5179,5.5179,5.5179,5.5179,5.5179,5.5179,5.5179,5.5179,5.5179,5.5179,5.5179,4.7309,4.7309,4.7309,4.7309,4.7309,4.7309,4.7309,4.7309,4.7309,4.7309,0.0,0.0,0.0,0.0,0.0,0.0,4.7309,4.7309,4.7309,4.7309,4.7309,4.7309,4.7309,4.7309,4.7309,4.7309,4.7578,4.8237,4.8536,4.9134,5.0136,5.0465,5.0794,5.1199,5.1229,5.1229,5.1229,5.1229,5.1229,5.1229,5.1229,5.1276,5.1339,5.1276,5.1276,5.1369,5.1276,5.1276,5.143,5.2384,5.3032,5.344,5.4421,5.494,5.5179,5.5179,5.5179,5.5179,5.5179,5.5179,5.5179,5.5179,5.5179,5.5179,5.5179,5.5179,5.5179,5.5179,5.5179,5.5179,5.5179,5.5179,5.5179,5.5179,5.5179,5.5179,5.5179,5.5179,5.5179,5.5179,5.5179,5.5179,5.5179,5.5179,5.5179,5.5179,5.5179,5.5179,5.5179,5.5179,5.5179,5.5179,5.5179,5.5179,5.5179,5.5179,5.5179,5.5179,5.5179,5.5179,5.5179,5.5179,5.5179,5.5179,5.5179,5.5179,5.5179,5.5179,5.5179,5.5179,5.5179,5.5179,4.7309,4.7309,4.7309,4.7309,4.7309,4.7309,4.7309,4.7309,4.7309,4.7309,4.7309,0.0,0.0,0.0,0.0,0.0,0.0,4.7309,4.7309,4.7309,4.7309,4.7309,4.7309,4.7309,4.7309,4.7309,4.7489,4.7967,4.8177,4.8775,4.9912,5.0106,5.0495,5.1199,5.1229,5.1229,5.1229,5.1229,5.1229,5.1229,5.1229,5.1229,5.1229,5.1229,5.1229,5.1229,5.1229,5.1319,5.1558,5.2725,5.3294,5.3563,5.473,5.5179,5.5179,5.5179,5.5179,5.5179,5.5179,5.5179,5.5179,5.5179,5.5179,5.5179,5.5179,5.5179,5.5179,5.5179,5.5179,5.5179,5.5179,5.5179,5.5179,5.5179,5.5179,5.5179,5.5179,5.5179,5.5179,5.5179,5.5179,5.5179,5.5179,5.5179,5.5179,5.5179,5.5179,5.5179,5.5179,5.5179,5.5179,5.5179,5.5179,5.5179,5.5179,5.5179,5.5179,5.5179,5.5179,5.5179,5.5179,5.5179,5.5179,5.5179,5.5179,5.5179,5.5179,5.5179,5.5179,5.5179,5.5179,5.5179,4.7309,4.7309,4.7309,4.7309,4.7309,4.7309,4.7309,4.7309,4.7309,4.7309,4.7309,4.7309,4.7309,0.0,0.0,0.0,0.0,0.0,0.0,4.7309,4.7309,4.7309,4.7309,4.7309,4.7309,4.7309,4.7309,4.7339,4.7938,4.8566,4.9299,4.9883,5.0495,5.1199,5.1229,5.1229,5.1229,5.1229,5.1229,5.1229,5.1229,5.1229,5.1229,5.1229,5.1229,5.1229,5.1229,5.1588,5.2217,5.2905,5.3563,5.4251,5.491,5.5179,5.5179,5.5179,5.5179,5.5179,5.5179,5.5179,5.5179,5.5179,5.5179,5.5179,5.5179,5.5179,5.5179,5.5179,5.5179,5.5179,5.5179,5.5179,5.5179,5.5179,5.5179,5.5179,5.5179,5.5179,5.5179,5.5179,5.5179,5.5179,5.5179,5.5179,5.5179,5.5179,5.5179,5.5179,5.5179,5.5179,5.5179,5.5179,5.5179,5.5179,5.5179,5.5179,5.5179,5.5179,5.5179,5.5179,5.5179,5.5179,5.5179,5.5179,5.5179,5.5179,5.5179,5.5179,5.5179,5.5179,5.5179,5.5179,4.7309,4.7309,4.7309,4.7309,4.7309,4.7309,4.7309,4.7309,4.7309,4.7309,4.7309,4.7309,4.7309,0.0,0.0,0.0,0.0,0.0,0.0,4.7309,4.7309,4.7309,4.7309,4.7309,4.7309,4.7309,4.7309,4.7309,4.7519,4.7908,4.8566,4.9224,4.9883,5.0495,5.099,5.1229,5.1229,5.1229,5.1229,5.1229,5.1229,5.1229,5.1229,5.1229,5.1229,5.1229,5.1229,5.1588,5.2247,5.2905,5.3593,5.4281,5.494,5.5179,5.5179,5.5179,5.5179,5.5179,5.5179,5.5179,5.5179,5.5179,5.5179,5.5179,5.5179,5.5179,5.5179,5.5179,5.5179,5.5179,5.5179,5.5179,5.5179,5.5179,5.5179,5.5179,5.5179,5.5179,5.5179,5.5179,5.5179,5.5179,5.5179,5.5179,5.5179,5.5179,5.5179,5.5179,5.5179,5.5179,5.5179,5.5179,5.5179,5.5179,5.5179,5.5179,5.5179,5.5179,5.5179,5.5179,5.5179,5.5179,5.5179,5.5179,5.5179,5.5179,5.5179,5.5179,5.5179,5.5179,5.5179,5.5179,4.7309,4.7309,4.7309,4.7309,4.7309,4.7309,4.7309,4.7309,4.7309,4.7309,4.7309,4.7309,4.7309,0.0,0.0,0.0,0.0,0.0,0.0,4.7309,4.7309,4.7309,4.7309,4.7309,4.7309,4.7309,4.7309,4.7309,4.7309,4.7578,4.8237,4.897,4.9583,5.0166,5.0823,5.1229,5.1229,5.1229,5.1229,5.1229,5.1229,5.1229,5.1229,5.1229,5.1229,5.1229,5.1468,5.1947,5.2606,5.3264,5.3952,5.461,5.5029,5.5179,5.5179,5.5179,5.5179,5.5179,5.5179,5.5179,5.5179,5.5179,5.5179,5.5179,5.5179,5.5179,5.5149,5.491,5.4999,5.5149,5.491,5.5029,5.5179,5.5179,5.5179,5.5179,5.5179,5.5179,5.5179,5.5179,5.5179,5.5179,5.5179,5.5179,5.5179,5.5179,5.5179,5.5179,5.5179,5.5179,5.5179,5.5179,5.5179,5.5179,5.5179,5.5179,5.5179,5.5179,5.5179,5.5179,5.5179,5.5179,5.5388,5.5867,5.5418,5.5418,5.5867,5.5418,5.5179,5.5179,5.5179,5.5179]}]]